AA4621 / N129HQ 7700 Squawk Report (20th of February, 2020)

Aircraft E75S Reg No. N129HQ Age N/A
Model Emb-175 Jet engines 2 First flight 02-08
Registered 08-04-15 Rollout 01-08 Delivered 07-03-08
Construction No. 17000211 Line No. N/A Series 200LR
ADSHEX A075DF Airline name American Eagle Airlines Owner Republic Airline
Airfield based Indianapolis-International~IN~N First tracked N/A

Flight history for N129HQ

Route Flight No Date Playback
???? AA4315 2020-04-08 16:09:00
Ronald Reagan Washington Natl (DCA) - T. F. Green Airport (PVD) - Ronald Reagan Washington Natl (DCA) AA4424 2020-04-06 19:03:00
Louis Armstrong New Orleans Intl (MSY) - Ronald Reagan Washington Natl (DCA) AA4663 2020-04-06 16:18:00
???? AA4672 2020-04-06 02:08:00
Charlotte Douglas (CLT) - Pittsburgh Intl (PIT) - Charlotte Douglas (CLT) AA4561 2020-04-05 22:37:00
Charlotte Douglas (CLT) - Wilkes Barre Scranton Intl (AVP) - Charlotte Douglas (CLT) AA4466 2020-04-05 16:56:00
Louisville International Airport (SDF) - Charlotte Douglas (CLT) AA4367 2020-04-05 11:53:00
???? N/A 2020-04-04 18:16:00
???? N/A 2020-04-04 03:54:00
Miami Intl (MIA) - Louisville International Airport (SDF) AA4344 2020-04-04 03:46:00
Eppley Airfield (OMA) - Miami Intl (MIA) AA4350 2020-04-03 15:35:00
Charlotte Douglas (CLT) - Eppley Airfield (OMA) AA4443 2020-04-03 12:45:00
Charlotte Douglas (CLT) - Pittsburgh Intl (PIT) - Charlotte Douglas (CLT) AA4561 2020-04-02 22:41:00
Indianapolis Intl (IND) - Charlotte Douglas (CLT) AA4572 2020-04-02 13:54:00
Ronald Reagan Washington Natl (DCA) - Indianapolis Intl (IND) AA4400 2020-04-02 12:38:00
Ronald Reagan Washington Natl (DCA) - Indianapolis Intl (IND) - Ronald Reagan Washington Natl (DCA) AA4514 2020-04-01 23:28:00
Ronald Reagan Washington Natl (DCA) - Nashville Intl (BNA) - Ronald Reagan Washington Natl (DCA) AA4495 2020-04-01 18:55:00
Ronald Reagan Washington Natl (DCA) - Nashville Intl (BNA) AA4660 2020-03-31 02:11:00
La Guardia (LGA) - Ronald Reagan Washington Natl (DCA) AA4336 2020-03-30 23:25:00
La Guardia (LGA) - Hartsfield Jackson Atlanta Intl (ATL) - La Guardia (LGA) AA4498 2020-03-30 20:56:00
Time Lat Lon Altitude Heading Speed Vertical Rate
2020-02-20 21:30:07 GMT 39.873829 -75.242310 0 2 7 0
2020-02-20 21:30:04 GMT 39.873829 -75.242310 0 9 10 0
2020-02-20 21:30:01 GMT 39.873718 -75.242310 0 7 9 0
2020-02-20 21:29:58 GMT 39.873569 -75.242340 0 13 8 0
2020-02-20 21:29:55 GMT 39.873501 -75.242332 0 23 8 0
2020-02-20 21:29:52 GMT 39.873402 -75.242371 0 26 9 0
2020-02-20 21:29:49 GMT 39.873260 -75.242416 0 63 7 0
2020-02-20 21:29:46 GMT 39.873199 -75.242523 0 72 10 0
2020-02-20 21:29:43 GMT 39.873161 -75.242683 0 71 10 0
2020-02-20 21:29:40 GMT 39.873112 -75.242851 0 74 14 0
2020-02-20 21:29:37 GMT 39.873051 -75.243103 0 75 13 0
2020-02-20 21:29:34 GMT 39.873020 -75.243271 0 75 10 0
2020-02-20 21:29:31 GMT 39.872978 -75.243462 0 74 11 0
2020-02-20 21:29:28 GMT 39.872940 -75.243690 0 70 13 0
2020-02-20 21:29:25 GMT 39.872871 -75.243896 0 74 14 0
2020-02-20 21:29:22 GMT 39.872768 -75.244431 0 72 15 0
2020-02-20 21:29:19 GMT 39.872768 -75.244431 0 86 11 0
2020-02-20 21:29:16 GMT 39.872761 -75.244621 0 71 12 0
2020-02-20 21:29:13 GMT 39.872742 -75.244881 0 68 14 0
2020-02-20 21:29:10 GMT 39.872669 -75.245110 0 72 14 0
2020-02-20 21:29:07 GMT 39.872601 -75.245323 0 75 14 0
2020-02-20 21:29:04 GMT 39.872559 -75.245552 0 74 13 0
2020-02-20 21:29:01 GMT 39.872501 -75.245827 0 79 13 0
2020-02-20 21:28:58 GMT 39.872471 -75.246048 0 74 15 0
2020-02-20 21:28:55 GMT 39.872421 -75.246323 0 74 14 0
2020-02-20 21:28:52 GMT 39.872391 -75.246529 0 72 12 0
2020-02-20 21:28:49 GMT 39.872269 -75.247009 0 78 12 0
2020-02-20 21:28:46 GMT 39.872219 -75.247269 0 72 13 0
2020-02-20 21:28:43 GMT 39.872219 -75.247269 0 75 10 0
2020-02-20 21:28:40 GMT 39.872181 -75.247383 0 72 17 0
2020-02-20 21:28:37 GMT 39.872131 -75.247742 0 78 16 0
2020-02-20 21:28:34 GMT 39.872070 -75.248032 0 71 15 0
2020-02-20 21:28:31 GMT 39.872040 -75.248291 0 71 15 0
2020-02-20 21:28:28 GMT 39.871960 -75.248550 0 72 12 0
2020-02-20 21:28:25 GMT 39.871922 -75.248749 0 79 15 0
2020-02-20 21:28:22 GMT 39.871891 -75.249031 0 76 17 0
2020-02-20 21:28:19 GMT 39.871830 -75.249321 0 74 17 0
2020-02-20 21:28:16 GMT 39.871761 -75.249634 0 71 14 0
2020-02-20 21:28:13 GMT 39.871712 -75.249893 0 69 15 0
2020-02-20 21:28:10 GMT 39.871632 -75.250137 0 75 14 0
2020-02-20 21:28:07 GMT 39.871590 -75.250397 0 79 16 0
2020-02-20 21:28:04 GMT 39.871471 -75.250938 0 69 14 0
2020-02-20 21:28:01 GMT 39.871429 -75.251221 0 81 15 0
2020-02-20 21:27:58 GMT 39.871429 -75.251221 0 74 14 0
2020-02-20 21:27:55 GMT 39.871391 -75.251480 0 77 13 0
2020-02-20 21:27:52 GMT 39.871361 -75.251717 0 68 12 0
2020-02-20 21:27:49 GMT 39.871300 -75.251953 0 73 11 0
2020-02-20 21:27:46 GMT 39.871262 -75.252113 0 76 14 0
2020-02-20 21:27:43 GMT 39.871208 -75.252380 0 74 16 0
2020-02-20 21:27:40 GMT 39.871132 -75.252678 0 75 18 0
2020-02-20 21:27:37 GMT 39.871132 -75.252937 0 71 16 0
2020-02-20 21:27:34 GMT 39.870998 -75.253441 0 76 14 0
2020-02-20 21:27:31 GMT 39.870949 -75.253677 0 78 17 0
2020-02-20 21:27:28 GMT 39.870869 -75.253998 0 74 18 0
2020-02-20 21:27:22 GMT 39.870831 -75.254303 0 73 16 0
2020-02-20 21:27:19 GMT 39.870750 -75.254570 0 76 17 0
2020-02-20 21:27:16 GMT 39.870750 -75.254868 0 91 14 0
2020-02-20 21:27:13 GMT 39.870781 -75.255119 0 85 15 0
2020-02-20 21:27:10 GMT 39.870739 -75.255371 0 79 14 0
2020-02-20 21:27:07 GMT 39.870720 -75.255608 0 76 12 0
2020-02-20 21:27:04 GMT 39.870670 -75.256050 0 71 11 0
2020-02-20 21:27:01 GMT 39.870571 -75.256233 0 81 13 0
2020-02-20 21:26:58 GMT 39.870571 -75.256233 0 72 8 0
2020-02-20 21:26:55 GMT 39.870560 -75.256432 0 63 9 0
2020-02-20 21:26:52 GMT 39.870510 -75.256554 0 79 12 0
2020-02-20 21:26:49 GMT 39.870461 -75.256752 0 78 17 0
2020-02-20 21:26:46 GMT 39.870411 -75.257072 0 86 16 0
2020-02-20 21:26:43 GMT 39.870392 -75.257347 0 85 14 0
2020-02-20 21:26:40 GMT 39.870380 -75.257622 0 88 16 0
2020-02-20 21:26:37 GMT 39.870361 -75.257881 0 79 12 0
2020-02-20 21:26:34 GMT 39.870312 -75.258308 0 67 12 0
2020-02-20 21:26:28 GMT 39.870232 -75.258530 0 81 16 0
2020-02-20 21:26:25 GMT 39.870209 -75.258850 0 78 16 0
2020-02-20 21:26:19 GMT 39.870121 -75.259399 0 75 14 0
2020-02-20 21:26:16 GMT 39.870079 -75.259644 0 78 16 0
2020-02-20 21:26:13 GMT 39.870010 -75.259918 0 78 15 0
2020-02-20 21:26:10 GMT 39.869980 -75.260208 0 77 16 0
2020-02-20 21:26:07 GMT 39.869930 -75.260468 0 73 15 0
2020-02-20 21:26:04 GMT 39.869869 -75.260727 0 78 13 0
2020-02-20 21:26:01 GMT 39.869820 -75.260986 0 73 15 0
2020-02-20 21:25:58 GMT 39.869759 -75.261238 0 79 12 0
2020-02-20 21:25:55 GMT 39.869732 -75.261490 0 77 9 0
2020-02-20 21:25:52 GMT 39.869709 -75.261642 0 73 10 0
2020-02-20 21:25:49 GMT 39.869671 -75.261848 0 75 12 0
2020-02-20 21:25:46 GMT 39.869598 -75.262268 0 80 10 0
2020-02-20 21:25:43 GMT 39.869560 -75.262466 0 76 12 0
2020-02-20 21:25:40 GMT 39.869530 -75.262680 0 71 11 0
2020-02-20 21:25:37 GMT 39.869530 -75.262680 0 75 11 0
2020-02-20 21:25:34 GMT 39.869492 -75.262848 0 76 16 0
2020-02-20 21:25:31 GMT 39.869431 -75.263123 0 76 14 0
2020-02-20 21:25:28 GMT 39.869381 -75.263351 0 80 13 0
2020-02-20 21:25:25 GMT 39.869350 -75.263611 0 74 15 0
2020-02-20 21:25:22 GMT 39.869308 -75.263870 0 66 13 0
2020-02-20 21:25:19 GMT 39.869221 -75.264038 0 80 12 0
2020-02-20 21:25:16 GMT 39.869228 -75.264259 0 76 12 0
2020-02-20 21:25:13 GMT 39.869179 -75.264458 0 74 14 0
2020-02-20 21:25:10 GMT 39.869122 -75.264702 0 75 13 0
2020-02-20 21:25:07 GMT 39.869080 -75.264900 0 76 15 0
2020-02-20 21:25:04 GMT 39.869049 -75.265190 0 81 15 0
2020-02-20 21:25:01 GMT 39.868969 -75.265419 0 78 15 0
2020-02-20 21:24:58 GMT 39.868938 -75.265671 0 78 14 0
2020-02-20 21:24:55 GMT 39.868881 -75.265930 0 80 14 0
2020-02-20 21:24:52 GMT 39.868858 -75.266182 0 76 15 0
2020-02-20 21:24:49 GMT 39.868740 -75.266663 0 73 10 0
2020-02-20 21:24:43 GMT 39.868721 -75.266823 0 72 9 0
2020-02-20 21:24:40 GMT 39.868679 -75.267029 0 57 10 0
2020-02-20 21:24:37 GMT 39.868542 -75.267357 0 12 10 0
2020-02-20 21:24:34 GMT 39.868542 -75.267357 0 356 9 0
2020-02-20 21:24:31 GMT 39.868431 -75.267380 0 349 9 0
2020-02-20 21:24:28 GMT 39.868309 -75.267372 0 349 10 0
2020-02-20 21:24:25 GMT 39.868160 -75.267342 0 339 15 0
2020-02-20 21:24:22 GMT 39.867970 -75.267227 0 344 13 0
2020-02-20 21:24:19 GMT 39.867802 -75.267181 0 347 16 0
2020-02-20 21:24:16 GMT 39.867550 -75.267059 0 343 17 0
2020-02-20 21:24:13 GMT 39.867390 -75.267059 0 345 17 0
2020-02-20 21:24:10 GMT 39.867210 -75.267014 0 338 19 0
2020-02-20 21:24:07 GMT 39.866699 -75.266830 0 343 15 0
2020-02-20 21:24:01 GMT 39.866451 -75.266747 0 341 17 0
2020-02-20 21:23:58 GMT 39.866020 -75.266609 0 349 18 0
2020-02-20 21:23:52 GMT 39.865799 -75.266510 0 352 15 0
2020-02-20 21:23:49 GMT 39.865410 -75.266411 0 342 17 0
2020-02-20 21:23:46 GMT 39.865189 -75.266327 0 343 15 0
2020-02-20 21:23:43 GMT 39.865189 -75.266327 0 341 14 0
2020-02-20 21:23:40 GMT 39.865002 -75.266251 0 352 12 0
2020-02-20 21:23:37 GMT 39.864830 -75.266273 0 340 13 0
2020-02-20 21:23:34 GMT 39.864632 -75.266144 0 343 13 0
2020-02-20 21:23:31 GMT 39.864510 -75.266098 0 347 13 0
2020-02-20 21:23:28 GMT 39.864349 -75.266037 0 357 10 0
2020-02-20 21:23:25 GMT 39.864170 -75.265984 0 12 7 0
2020-02-20 21:23:22 GMT 39.864059 -75.266006 0 24 9 0
2020-02-20 21:23:19 GMT 39.863991 -75.266037 0 34 5 0
2020-02-20 21:23:16 GMT 39.863811 -75.266144 0 31 6 0
2020-02-20 21:23:10 GMT 39.863720 -75.266373 0 81 12 0
2020-02-20 21:23:04 GMT 39.863682 -75.266602 0 75 15 0
2020-02-20 21:23:01 GMT 39.863579 -75.267113 0 72 15 0
2020-02-20 21:22:58 GMT 39.863579 -75.267113 0 73 17 0
2020-02-20 21:22:55 GMT 39.863499 -75.267372 0 78 16 0
2020-02-20 21:22:52 GMT 39.863449 -75.267670 0 77 15 0
2020-02-20 21:22:49 GMT 39.863419 -75.267952 0 71 15 0
2020-02-20 21:22:46 GMT 39.863331 -75.268204 0 76 15 0
2020-02-20 21:22:43 GMT 39.863300 -75.268478 0 72 14 0
2020-02-20 21:22:40 GMT 39.863220 -75.268723 0 76 13 0
2020-02-20 21:22:37 GMT 39.863201 -75.268913 0 77 15 0
2020-02-20 21:22:34 GMT 39.863171 -75.269157 0 80 11 0
2020-02-20 21:22:31 GMT 39.863110 -75.269409 0 77 12 0
2020-02-20 21:22:28 GMT 39.863071 -75.269638 0 68 12 0
2020-02-20 21:22:25 GMT 39.863022 -75.269852 0 77 12 0
2020-02-20 21:22:22 GMT 39.862968 -75.270058 0 76 11 0
2020-02-20 21:22:19 GMT 39.862930 -75.270279 0 75 12 0
2020-02-20 21:22:16 GMT 39.862911 -75.270477 0 72 13 0
2020-02-20 21:22:13 GMT 39.862850 -75.270714 0 65 12 0
2020-02-20 21:22:10 GMT 39.862759 -75.270889 0 71 11 0
2020-02-20 21:22:07 GMT 39.862740 -75.271103 0 77 11 0
2020-02-20 21:22:04 GMT 39.862709 -75.271317 0 78 13 0
2020-02-20 21:22:01 GMT 39.862659 -75.271538 0 75 13 0
2020-02-20 21:21:58 GMT 39.862629 -75.271751 0 75 11 0
2020-02-20 21:21:55 GMT 39.862572 -75.271950 0 85 11 0
2020-02-20 21:21:52 GMT 39.862560 -75.272148 0 74 12 0
2020-02-20 21:21:49 GMT 39.862480 -75.272598 0 64 12 0
2020-02-20 21:21:46 GMT 39.862480 -75.272598 0 78 10 0
2020-02-20 21:21:43 GMT 39.862411 -75.272812 0 83 8 0
2020-02-20 21:21:40 GMT 39.862389 -75.272987 0 69 2 0
2020-02-20 21:21:37 GMT 39.862370 -75.273148 0 68 0 0
2020-02-20 21:21:34 GMT 39.862370 -75.273170 0 68 0 0
2020-02-20 21:21:31 GMT 39.862358 -75.273216 0 67 0 0
2020-02-20 21:21:28 GMT 39.862350 -75.273193 0 67 0 0
2020-02-20 21:21:25 GMT 39.862339 -75.273163 0 68 0 0
2020-02-20 21:21:22 GMT 39.862370 -75.273209 0 68 0 0
2020-02-20 21:21:19 GMT 39.862358 -75.273193 0 68 0 0
2020-02-20 21:21:14 GMT 39.862358 -75.273193 0 70 0 0
2020-02-20 21:21:11 GMT 39.862350 -75.273178 0 70 0 0
2020-02-20 21:21:08 GMT 39.862358 -75.273201 0 69 0 0
2020-02-20 21:21:05 GMT 39.862370 -75.273201 0 69 0 0
2020-02-20 21:21:02 GMT 39.862350 -75.273201 0 70 1 0
2020-02-20 21:20:57 GMT 39.862350 -75.273193 0 77 0 0
2020-02-20 21:20:54 GMT 39.862350 -75.273201 0 77 0 0
2020-02-20 21:20:51 GMT 39.862358 -75.273193 0 77 0 0
2020-02-20 21:20:48 GMT 39.862358 -75.273201 0 77 0 0
2020-02-20 21:20:45 GMT 39.862370 -75.273178 0 76 4 0
2020-02-20 21:20:42 GMT 39.862358 -75.273232 0 71 1 0
2020-02-20 21:20:39 GMT 39.862358 -75.273277 0 61 6 0
2020-02-20 21:20:36 GMT 39.862331 -75.273376 0 62 8 0
2020-02-20 21:20:33 GMT 39.862270 -75.273514 0 49 9 0
2020-02-20 21:20:30 GMT 39.862091 -75.273727 0 10 10 0
2020-02-20 21:20:27 GMT 39.861931 -75.273727 0 346 15 0
2020-02-20 21:20:24 GMT 39.861931 -75.273727 0 353 16 0
2020-02-20 21:20:21 GMT 39.861759 -75.273689 0 346 18 0
2020-02-20 21:20:18 GMT 39.861519 -75.273598 0 316 14 0
2020-02-20 21:20:15 GMT 39.861351 -75.273430 0 298 12 0
2020-02-20 21:20:12 GMT 39.861259 -75.273209 0 275 13 0
2020-02-20 21:20:09 GMT 39.861240 -75.272919 0 249 22 0
2020-02-20 21:20:06 GMT 39.861328 -75.272530 0 251 26 0
2020-02-20 21:20:03 GMT 39.861568 -75.271393 0 257 38 -160
2020-02-20 21:19:57 GMT 39.861721 -75.270714 -400 255 48 0
2020-02-20 21:19:54 GMT 39.861889 -75.269882 -425 256 50 0
2020-02-20 21:19:51 GMT 39.862061 -75.268967 -425 256 56 0
2020-02-20 21:19:48 GMT 39.862228 -75.267990 -425 255 58 0
2020-02-20 21:19:45 GMT 39.862461 -75.267014 -425 255 62 0
2020-02-20 21:19:42 GMT 39.862659 -75.265892 -425 254 65 0
2020-02-20 21:19:39 GMT 39.862900 -75.264740 -425 254 67 -64
2020-02-20 21:19:36 GMT 39.863152 -75.263519 -450 253 70 384
2020-02-20 21:19:33 GMT 39.863461 -75.262177 -450 257 80 0
2020-02-20 21:19:30 GMT 39.863720 -75.260689 -450 255 104 64
2020-02-20 21:19:27 GMT 39.864079 -75.258987 -450 256 116 0
2020-02-20 21:19:24 GMT 39.864449 -75.256912 -450 254 142 0
2020-02-20 21:19:21 GMT 39.864960 -75.254570 -450 255 154 0
2020-02-20 21:19:18 GMT 39.865471 -75.251877 -450 255 167 -640
2020-02-20 21:19:15 GMT 39.866081 -75.249046 -450 256 171 -640
2020-02-20 21:19:12 GMT 39.866650 -75.246033 -450 255 176 -640
2020-02-20 21:19:09 GMT 39.867210 -75.242973 -400 254 175 -640
2020-02-20 21:19:06 GMT 39.867870 -75.239906 -375 255 178 -640
2020-02-20 21:19:03 GMT 39.868450 -75.236801 -300 255 176 -640
2020-02-20 21:19:00 GMT 39.869061 -75.233749 -250 255 179 -640
2020-02-20 21:18:57 GMT 39.869690 -75.230637 -200 255 175 -640
2020-02-20 21:18:54 GMT 39.870331 -75.227608 -150 257 179 -640
2020-02-20 21:18:51 GMT 39.870850 -75.224480 -100 253 173 -640
2020-02-20 21:18:48 GMT 39.871479 -75.221519 -25 257 173 -640
2020-02-20 21:18:45 GMT 39.872120 -75.218422 100 256 170 -640
2020-02-20 21:18:42 GMT 39.872719 -75.215408 100 256 178 -640
2020-02-20 21:18:39 GMT 39.873310 -75.212227 100 256 171 -640
2020-02-20 21:18:36 GMT 39.873852 -75.209267 175 256 179 -640
2020-02-20 21:18:33 GMT 39.874489 -75.206131 200 255 178 -640
2020-02-20 21:18:30 GMT 39.875080 -75.203041 275 255 180 -640
2020-02-20 21:18:27 GMT 39.875778 -75.199982 275 256 182 -640
2020-02-20 21:18:24 GMT 39.876381 -75.196793 400 254 176 -640
2020-02-20 21:18:21 GMT 39.877071 -75.193611 500 256 172 -640
2020-02-20 21:18:18 GMT 39.878288 -75.187424 500 255 177 -800
2020-02-20 21:18:15 GMT 39.878860 -75.184319 550 255 174 -800
2020-02-20 21:18:09 GMT 39.879501 -75.181343 700 255 174 -800
2020-02-20 21:18:06 GMT 39.880100 -75.178322 700 254 171 -800
2020-02-20 21:18:03 GMT 39.880692 -75.175270 800 254 176 -800
2020-02-20 21:18:00 GMT 39.881329 -75.172211 775 256 181 -800
2020-02-20 21:17:57 GMT 39.883347 -75.162010 900 256 184 -832
2020-02-20 21:17:50 GMT 39.883347 -75.162010 850 256 180 -1088
2020-02-20 21:17:44 GMT 39.884537 -75.155975 1,150 256 184 -832
2020-02-20 21:17:39 GMT 39.885586 -75.150635 1,100 256 182 -1152
2020-02-20 21:17:34 GMT 39.886608 -75.145447 1,400 256 175 -896
2020-02-20 21:17:31 GMT 39.887512 -75.140930 1,250 256 181 -1024
2020-02-20 21:17:24 GMT 39.888889 -75.134094 1,350 256 178 -1216
2020-02-20 21:17:17 GMT 39.890240 -75.127380 1,475 256 177 -1088
2020-02-20 21:17:14 GMT 39.891174 -75.122604 1,550 256 175 -1024
2020-02-20 21:17:10 GMT 39.891731 -75.119934 1,600 256 175 -896
2020-02-20 21:17:05 GMT 39.892662 -75.114990 1,700 256 175 -896
2020-02-20 21:17:02 GMT 39.893509 -75.110657 1,725 256 174 -960
2020-02-20 21:16:53 GMT 39.895081 -75.102722 1,875 256 175 -1024
2020-02-20 21:16:44 GMT 39.897038 -75.092773 2,050 256 177 -1088
2020-02-20 21:16:41 GMT 39.897675 -75.089645 2,100 256 178 -1152
2020-02-20 21:16:33 GMT 39.899319 -75.081543 2,425 256 180 -896
2020-02-20 21:16:28 GMT 39.901550 -75.070068 2,425 256 180 -1024
2020-02-20 21:16:22 GMT 39.901550 -75.070068 2,650 256 180 -1024
2020-02-20 21:16:19 GMT 39.902069 -75.067368 2,475 256 180 -1024
2020-02-20 21:16:13 GMT 39.903580 -75.059731 2,575 256 179 -1088
2020-02-20 21:16:10 GMT 39.904114 -75.057007 2,625 257 179 -1152
2020-02-20 21:16:03 GMT 39.905502 -75.049698 2,750 257 179 -1152
2020-02-20 21:15:59 GMT 39.906906 -75.042297 2,900 257 180 -1152
2020-02-20 21:15:52 GMT 39.907516 -75.039131 2,950 256 182 -1088
2020-02-20 21:15:48 GMT 39.908348 -75.035095 3,000 256 182 -1088
2020-02-20 21:15:45 GMT 39.909027 -75.031487 3,075 256 184 -1088
2020-02-20 21:15:42 GMT 39.909714 -75.027962 3,150 256 186 -1024
2020-02-20 21:15:39 GMT 39.910492 -75.024025 3,225 256 186 -1088
2020-02-20 21:15:31 GMT 39.911934 -75.016846 3,625 256 186 -640
2020-02-20 21:15:28 GMT 39.912872 -75.012260 3,400 256 186 -704
2020-02-20 21:15:21 GMT 39.914169 -75.005554 3,475 256 187 -832
2020-02-20 21:15:15 GMT 39.915565 -74.998474 3,550 257 192 -704
2020-02-20 21:15:11 GMT 39.917194 -74.989990 3,600 257 191 -704
2020-02-20 21:15:08 GMT 39.917194 -74.989990 3,650 256 193 -768
2020-02-20 21:15:00 GMT 39.918732 -74.981987 3,725 257 194 -640
2020-02-20 21:14:57 GMT 39.919510 -74.977989 3,775 257 194 -832
2020-02-20 21:14:54 GMT 39.919895 -74.975891 3,975 256 196 -768
2020-02-20 21:14:50 GMT 39.920872 -74.970825 3,850 256 195 -832
2020-02-20 21:14:44 GMT 39.922348 -74.963303 3,925 256 197 -704
2020-02-20 21:14:39 GMT 39.923290 -74.958534 3,975 256 197 -768
2020-02-20 21:14:35 GMT 39.924316 -74.953346 4,025 256 197 -768
2020-02-20 21:14:32 GMT 39.924873 -74.950600 4,075 255 196 -704
2020-02-20 21:14:29 GMT 39.925713 -74.946480 4,100 255 196 -704
2020-02-20 21:14:25 GMT 39.926926 -74.940796 4,175 255 196 -768
2020-02-20 21:14:22 GMT 39.927429 -74.938477 4,175 255 196 -832
2020-02-20 21:14:19 GMT 39.928181 -74.934998 4,225 255 196 -704
2020-02-20 21:14:14 GMT 39.929626 -74.928284 4,300 255 196 -704
2020-02-20 21:14:09 GMT 39.930542 -74.923828 4,350 256 197 -768
2020-02-20 21:14:06 GMT 39.931091 -74.920959 4,375 256 196 -768
2020-02-20 21:14:03 GMT 39.931999 -74.916580 4,425 256 197 -768
2020-02-20 21:14:00 GMT 39.932831 -74.912231 4,475 256 196 -768
2020-02-20 21:13:56 GMT 39.933578 -74.908340 4,525 256 196 -832
2020-02-20 21:13:52 GMT 39.934296 -74.904907 4,550 256 196 -768
2020-02-20 21:13:47 GMT 39.935394 -74.899231 4,650 256 195 -704
2020-02-20 21:13:42 GMT 39.936699 -74.892738 4,675 256 196 -768
2020-02-20 21:13:37 GMT 39.937820 -74.887024 4,750 256 196 -768
2020-02-20 21:13:34 GMT 39.938515 -74.883621 4,800 256 196 -768
2020-02-20 21:13:31 GMT 39.939167 -74.880379 4,825 256 195 -704
2020-02-20 21:13:26 GMT 39.940144 -74.875381 4,875 256 195 -768
2020-02-20 21:13:21 GMT 39.942078 -74.866028 4,950 256 194 -768
2020-02-20 21:13:18 GMT 39.942078 -74.866028 4,975 256 195 -768
2020-02-20 21:13:14 GMT 39.943218 -74.860275 5,075 256 195 -768
2020-02-20 21:13:10 GMT 39.944000 -74.856506 5,075 256 195 -768
2020-02-20 21:13:06 GMT 39.945030 -74.851601 5,550 255 195 -768
2020-02-20 21:13:03 GMT 39.945728 -74.848419 5,150 254 195 -768
2020-02-20 21:12:59 GMT 39.946754 -74.843925 5,200 253 195 -768
2020-02-20 21:12:56 GMT 39.947525 -74.840515 5,250 253 195 -768
2020-02-20 21:12:53 GMT 39.948441 -74.836853 5,300 252 195 -768
2020-02-20 21:12:49 GMT 39.949547 -74.832748 5,325 250 194 -768
2020-02-20 21:12:46 GMT 39.950684 -74.828918 5,375 249 195 -768
2020-02-20 21:12:43 GMT 39.951782 -74.825699 5,425 244 195 -704
2020-02-20 21:12:38 GMT 39.953831 -74.820763 5,525 237 197 -768
2020-02-20 21:12:35 GMT 39.955135 -74.818329 5,525 237 197 -768
2020-02-20 21:12:32 GMT 39.960114 -74.810852 5,550 221 201 0
2020-02-20 21:12:27 GMT 39.960114 -74.810852 5,550 222 200 0
2020-02-20 21:12:24 GMT 39.961807 -74.808899 5,550 221 201 -64
2020-02-20 21:12:21 GMT 39.964462 -74.806213 5,550 185 214 -64
2020-02-20 21:12:16 GMT 39.969193 -74.802414 5,550 209 205 64
2020-02-20 21:12:12 GMT 39.972683 -74.800293 5,550 196 210 64
2020-02-20 21:12:05 GMT 39.977600 -74.797974 5,550 196 209 64
2020-02-20 21:12:02 GMT 39.980831 -74.796921 5,550 193 211 64
2020-02-20 21:11:59 GMT 39.984924 -74.796021 5,550 186 214 -64
2020-02-20 21:11:56 GMT 39.986893 -74.795715 5,550 185 214 -64
2020-02-20 21:11:53 GMT 39.989491 -74.795486 5,550 184 215 -128
2020-02-20 21:11:50 GMT 39.992283 -74.795296 5,550 182 216 0
2020-02-20 21:11:46 GMT 39.997284 -74.795227 5,550 175 218 -64
2020-02-20 21:11:43 GMT 39.999916 -74.795547 5,550 170 220 -128
2020-02-20 21:11:40 GMT 40.002914 -74.796387 5,550 163 224 -128
2020-02-20 21:11:36 GMT 40.006851 -74.798279 5,575 137 231 -64
2020-02-20 21:11:32 GMT 40.009926 -74.800537 5,575 145 229 0
2020-02-20 21:11:28 GMT 40.014534 -74.805534 5,575 124 232 -64
2020-02-20 21:11:23 GMT 40.017002 -74.809464 5,575 125 232 -64
2020-02-20 21:11:20 GMT 40.020260 -74.817329 5,550 80 240 -128
2020-02-20 21:11:14 GMT 40.021683 -74.824524 5,525 98 228 256
2020-02-20 21:11:08 GMT 40.021935 -74.829758 5,550 90 231 -192
2020-02-20 21:11:04 GMT 40.021469 -74.836555 5,550 83 233 -128
2020-02-20 21:11:01 GMT 40.021225 -74.838562 5,550 81 236 -64
2020-02-20 21:10:58 GMT 40.020630 -74.843689 5,550 80 239 -128
2020-02-20 21:10:55 GMT 40.020126 -74.847717 5,550 80 242 -64
2020-02-20 21:10:52 GMT 40.019608 -74.851913 5,550 80 242 -64
2020-02-20 21:10:49 GMT 40.018864 -74.857780 5,575 80 243 0
2020-02-20 21:10:44 GMT 40.018024 -74.864708 5,550 81 243 0
2020-02-20 21:10:40 GMT 40.017563 -74.868469 5,550 81 243 64
2020-02-20 21:10:35 GMT 40.016441 -74.877510 5,550 81 243 0
2020-02-20 21:10:32 GMT 40.016117 -74.880318 5,550 81 243 -64
2020-02-20 21:10:29 GMT 40.015503 -74.885315 5,550 80 243 -64
2020-02-20 21:10:25 GMT 40.014130 -74.896240 5,550 80 242 -64
2020-02-20 21:10:18 GMT 40.013306 -74.902710 5,575 80 241 -64
2020-02-20 21:10:13 GMT 40.011929 -74.913338 5,550 80 244 -128
2020-02-20 21:10:09 GMT 40.011929 -74.913338 5,550 81 243 -64
2020-02-20 21:10:05 GMT 40.011108 -74.920044 5,550 81 242 64
2020-02-20 21:10:02 GMT 40.010437 -74.925575 5,550 81 243 -128
2020-02-20 21:09:59 GMT 40.009972 -74.929626 5,550 81 243 -64
2020-02-20 21:09:54 GMT 40.009041 -74.937180 5,550 81 243 64
2020-02-20 21:09:49 GMT 40.008270 -74.943298 5,550 80 244 -128
2020-02-20 21:09:45 GMT 40.007599 -74.948921 5,550 80 244 -64
2020-02-20 21:09:41 GMT 40.006947 -74.954102 5,550 81 241 128
2020-02-20 21:09:38 GMT 40.006439 -74.958496 5,550 81 241 128
2020-02-20 21:09:35 GMT 40.005844 -74.963623 5,550 81 240 64
2020-02-20 21:09:32 GMT 40.005318 -74.968018 5,550 81 238 -64
2020-02-20 21:09:27 GMT 40.004608 -74.974060 5,550 81 238 -64
2020-02-20 21:09:24 GMT 40.003967 -74.979187 5,550 81 238 64
2020-02-20 21:09:20 GMT 40.002663 -74.990242 5,550 81 238 0
2020-02-20 21:09:13 GMT 40.001907 -74.996338 5,550 80 239 -64
2020-02-20 21:09:10 GMT 40.001541 -74.999207 5,575 81 238 0
2020-02-20 21:09:07 GMT 40.000900 -75.004822 5,550 81 238 128
2020-02-20 21:09:04 GMT 40.000580 -75.007690 5,550 81 238 128
2020-02-20 21:09:01 GMT 39.999638 -75.015518 5,575 81 239 -128
2020-02-20 21:08:58 GMT 39.999638 -75.015518 5,550 81 238 -128
2020-02-20 21:08:54 GMT 39.998474 -75.025826 5,550 81 239 -128
2020-02-20 21:08:47 GMT 39.997684 -75.032684 5,575 81 240 0
2020-02-20 21:08:44 GMT 39.997124 -75.037872 5,550 81 240 -64
2020-02-20 21:08:41 GMT 39.996323 -75.045044 5,550 81 239 128
2020-02-20 21:08:38 GMT 39.996323 -75.045044 5,575 81 239 -64
2020-02-20 21:08:34 GMT 39.995121 -75.055595 5,550 81 237 -64
2020-02-20 21:08:28 GMT 39.993958 -75.065834 5,550 81 237 64
2020-02-20 21:08:24 GMT 39.993958 -75.065834 5,550 81 238 0
2020-02-20 21:08:20 GMT 39.993530 -75.069519 5,550 81 238 -64
2020-02-20 21:08:17 GMT 39.992191 -75.081253 5,550 81 240 -64
2020-02-20 21:08:13 GMT 39.992191 -75.081253 5,550 81 240 -128
2020-02-20 21:08:10 GMT 39.991608 -75.086121 5,575 81 242 -64
2020-02-20 21:08:06 GMT 39.991028 -75.091118 5,575 81 242 64
2020-02-20 21:08:03 GMT 39.990555 -75.094910 5,575 81 242 -64
2020-02-20 21:08:00 GMT 39.989273 -75.105347 5,575 81 239 0
2020-02-20 21:07:55 GMT 39.989273 -75.105347 5,550 81 239 -64
2020-02-20 21:07:52 GMT 39.987907 -75.116646 5,575 81 241 64
2020-02-20 21:07:49 GMT 39.987259 -75.122070 5,550 81 241 128
2020-02-20 21:07:44 GMT 39.987259 -75.122070 5,550 81 241 128
2020-02-20 21:07:40 GMT 39.985748 -75.135376 5,550 81 239 -64
2020-02-20 21:07:36 GMT 39.985748 -75.135376 5,550 81 239 -64
2020-02-20 21:07:32 GMT 39.985252 -75.139679 5,550 81 238 -64
2020-02-20 21:07:29 GMT 39.984882 -75.143112 5,550 81 238 64
2020-02-20 21:07:26 GMT 39.984322 -75.148170 5,525 81 239 64
2020-02-20 21:07:22 GMT 39.983719 -75.153290 5,525 108 245 128
2020-02-20 21:07:19 GMT 39.983276 -75.157593 5,550 83 241 -320
2020-02-20 21:07:15 GMT 39.982784 -75.162590 5,575 84 242 -384
2020-02-20 21:07:10 GMT 39.982368 -75.171951 5,575 91 244 -64
2020-02-20 21:07:06 GMT 39.982635 -75.176941 5,575 100 245 0
2020-02-20 21:07:02 GMT 39.983871 -75.183899 5,575 108 245 128
2020-02-20 21:06:58 GMT 39.984970 -75.187622 5,550 115 245 256
2020-02-20 21:06:51 GMT 39.990280 -75.197937 5,550 133 241 0
2020-02-20 21:06:47 GMT 39.993622 -75.201782 5,550 149 237 64
2020-02-20 21:06:40 GMT 39.998661 -75.205849 5,550 154 236 64
2020-02-20 21:06:37 GMT 40.002136 -75.207642 5,550 159 236 0
2020-02-20 21:06:33 GMT 40.007088 -75.209595 5,550 164 238 0
2020-02-20 21:06:29 GMT 40.011520 -75.211243 5,575 164 237 -64
2020-02-20 21:06:25 GMT 40.015366 -75.212646 5,550 164 238 0
2020-02-20 21:06:21 GMT 40.019669 -75.214233 5,550 164 239 64
2020-02-20 21:06:18 GMT 40.026779 -75.216774 5,550 164 240 64
2020-02-20 21:06:14 GMT 40.026779 -75.216774 5,550 164 242 -64
2020-02-20 21:06:08 GMT 40.033760 -75.219330 5,550 164 242 128
2020-02-20 21:06:04 GMT 40.037430 -75.220642 5,550 164 243 -128
2020-02-20 21:05:57 GMT 40.044605 -75.223267 5,575 164 243 -64
2020-02-20 21:05:53 GMT 40.048424 -75.224701 5,575 163 242 64
2020-02-20 21:05:50 GMT 40.055824 -75.227448 5,550 164 242 64
2020-02-20 21:05:44 GMT 40.059643 -75.228821 5,550 164 242 -64
2020-02-20 21:05:37 GMT 40.066956 -75.231506 5,550 164 241 64
2020-02-20 21:05:33 GMT 40.070755 -75.232910 5,550 164 240 128
2020-02-20 21:05:30 GMT 40.074783 -75.234314 5,550 164 240 128
2020-02-20 21:05:26 GMT 40.078537 -75.235657 5,550 165 239 0
2020-02-20 21:05:22 GMT 40.082642 -75.237000 5,550 166 237 -192
2020-02-20 21:05:19 GMT 40.085907 -75.238037 5,550 167 237 -128
2020-02-20 21:05:15 GMT 40.091766 -75.239372 5,550 172 236 64
2020-02-20 21:05:12 GMT 40.092648 -75.239494 5,550 188 229 -64
2020-02-20 21:05:08 GMT 40.098701 -75.239372 5,575 201 224 -64
2020-02-20 21:05:05 GMT 40.100922 -75.238892 5,575 189 229 -64
2020-02-20 21:05:00 GMT 40.105728 -75.236816 5,575 205 221 -64
2020-02-20 21:04:57 GMT 40.109131 -75.234314 5,575 231 203 64
2020-02-20 21:04:51 GMT 40.112869 -75.230225 5,575 230 204 64
2020-02-20 21:04:48 GMT 40.114975 -75.226807 5,550 240 199 256
2020-02-20 21:04:45 GMT 40.116344 -75.223640 5,550 247 196 256
2020-02-20 21:04:40 GMT 40.117630 -75.219116 5,550 259 193 -128
2020-02-20 21:04:37 GMT 40.118088 -75.215881 5,550 259 193 -128
2020-02-20 21:04:34 GMT 40.118484 -75.211838 5,550 265 191 -64
2020-02-20 21:04:30 GMT 40.118858 -75.206284 5,550 265 191 0
2020-02-20 21:04:26 GMT 40.119183 -75.201729 5,550 265 191 64
2020-02-20 21:04:23 GMT 40.119370 -75.198921 5,550 265 191 64
2020-02-20 21:04:19 GMT 40.119789 -75.193367 5,550 265 192 -64
2020-02-20 21:04:16 GMT 40.119919 -75.191711 5,550 265 192 64
2020-02-20 21:04:13 GMT 40.120239 -75.187500 5,550 265 192 0
2020-02-20 21:04:09 GMT 40.120583 -75.183128 5,550 266 209 -64
2020-02-20 21:04:06 GMT 40.120972 -75.178284 5,550 265 192 128
2020-02-20 21:04:02 GMT 40.121185 -75.175262 5,550 265 192 128
2020-02-20 21:03:56 GMT 40.121792 -75.166710 5,550 265 199 -128
2020-02-20 21:03:53 GMT 40.122070 -75.163147 5,550 265 201 -128
2020-02-20 21:03:48 GMT 40.122349 -75.158409 5,550 266 206 0
2020-02-20 21:03:44 GMT 40.122677 -75.153542 5,550 266 209 0
2020-02-20 21:03:41 GMT 40.122894 -75.150146 5,550 266 209 0
2020-02-20 21:03:37 GMT 40.123234 -75.144173 5,550 266 212 0
2020-02-20 21:03:34 GMT 40.123627 -75.137329 5,550 266 213 64
2020-02-20 21:03:25 GMT 40.124165 -75.128258 5,550 267 215 -128
2020-02-20 21:03:22 GMT 40.124397 -75.123451 5,575 267 215 -64
2020-02-20 21:03:16 GMT 40.124676 -75.117836 5,550 267 214 64
2020-02-20 21:03:13 GMT 40.124863 -75.114021 5,550 267 215 128
2020-02-20 21:03:10 GMT 40.125046 -75.110107 5,550 267 214 -64
2020-02-20 21:03:05 GMT 40.125423 -75.103722 5,550 266 212 -64
2020-02-20 21:03:02 GMT 40.125732 -75.098328 5,550 266 211 0
2020-02-20 21:02:59 GMT 40.126167 -75.090988 5,550 266 211 64
2020-02-20 21:02:56 GMT 40.126167 -75.090988 5,550 266 211 0
2020-02-20 21:02:52 GMT 40.126492 -75.086372 5,550 266 211 -64
2020-02-20 21:02:46 GMT 40.126877 -75.079407 5,550 266 212 -64
2020-02-20 21:02:42 GMT 40.127239 -75.073509 5,575 266 212 -64
2020-02-20 21:02:37 GMT 40.127609 -75.066833 5,550 266 211 64
2020-02-20 21:02:32 GMT 40.128021 -75.060303 5,550 266 211 64
2020-02-20 21:02:28 GMT 40.128342 -75.055298 5,550 265 211 -64
2020-02-20 21:02:21 GMT 40.128937 -75.047058 5,550 265 211 0
2020-02-20 21:02:15 GMT 40.129471 -75.040054 5,550 265 212 -64
2020-02-20 21:02:12 GMT 40.129749 -75.035370 5,550 266 213 -64
2020-02-20 21:02:09 GMT 40.130035 -75.031494 5,550 266 213 0
2020-02-20 21:02:01 GMT 40.131454 -75.008911 5,550 266 208 128
2020-02-20 21:01:52 GMT 40.131454 -75.008911 5,550 265 210 64
2020-02-20 21:01:45 GMT 40.131985 -75.001541 5,525 266 208 128
2020-02-20 21:01:42 GMT 40.132404 -74.995918 5,550 265 211 -64
2020-02-20 21:01:39 GMT 40.132500 -74.993988 5,550 265 211 -64
2020-02-20 21:01:33 GMT 40.133148 -74.984436 5,550 266 212 -64
2020-02-20 21:01:30 GMT 40.133335 -74.980568 5,550 266 213 0
2020-02-20 21:01:23 GMT 40.133743 -74.973022 5,575 266 213 0
2020-02-20 21:01:19 GMT 40.134083 -74.967583 5,550 266 212 128
2020-02-20 21:01:14 GMT 40.134544 -74.959908 5,550 265 211 -64
2020-02-20 21:01:09 GMT 40.135014 -74.953850 5,550 265 211 0
2020-02-20 21:01:02 GMT 40.135666 -74.945107 5,550 265 211 128
2020-02-20 21:00:59 GMT 40.135895 -74.942551 5,550 264 209 -128
2020-02-20 21:00:55 GMT 40.136261 -74.937805 5,550 265 208 -64
2020-02-20 21:00:51 GMT 40.136719 -74.932312 5,550 265 208 64
2020-02-20 21:00:48 GMT 40.137012 -74.928566 5,550 265 208 128
2020-02-20 21:00:42 GMT 40.137955 -74.915222 5,525 266 207 128
2020-02-20 21:00:38 GMT 40.138271 -74.909843 5,550 266 208 -320
2020-02-20 21:00:33 GMT 40.138271 -74.909843 5,550 275 210 64
2020-02-20 21:00:30 GMT 40.138458 -74.906006 5,550 268 210 -128
2020-02-20 21:00:27 GMT 40.138596 -74.902229 5,550 269 211 -64
2020-02-20 21:00:24 GMT 40.138641 -74.897949 5,550 272 211 64
2020-02-20 21:00:19 GMT 40.138176 -74.891556 5,550 285 210 -64
2020-02-20 21:00:16 GMT 40.137634 -74.888855 5,550 353 215 -64
2020-02-20 21:00:12 GMT 40.134174 -74.880066 5,550 305 209 -64
2020-02-20 21:00:08 GMT 40.134174 -74.880066 5,550 316 208 64
2020-02-20 21:00:05 GMT 40.132278 -74.877197 5,550 316 208 64
2020-02-20 21:00:02 GMT 40.129704 -74.874451 5,550 352 216 64
2020-02-20 20:59:59 GMT 40.127052 -74.872261 5,550 334 211 128
2020-02-20 20:59:56 GMT 40.124680 -74.870911 5,550 348 215 -128
2020-02-20 20:59:53 GMT 40.121044 -74.869576 5,550 350 215 -64
2020-02-20 20:59:48 GMT 40.115707 -74.868408 5,550 353 215 0
2020-02-20 20:59:45 GMT 40.113739 -74.868042 5,550 353 215 0
2020-02-20 20:59:41 GMT 40.109547 -74.867332 5,550 353 215 -64
2020-02-20 20:59:38 GMT 40.102615 -74.866211 5,550 353 216 -64
2020-02-20 20:59:34 GMT 40.102615 -74.866211 5,550 353 216 64
2020-02-20 20:59:29 GMT 40.097672 -74.865417 5,550 353 216 64
2020-02-20 20:59:25 GMT 40.093735 -74.864746 5,550 353 216 64
2020-02-20 20:59:21 GMT 40.090164 -74.864197 5,550 353 216 -64
2020-02-20 20:59:18 GMT 40.086090 -74.863525 5,550 353 215 64
2020-02-20 20:59:14 GMT 40.082733 -74.862961 5,550 353 215 64
2020-02-20 20:59:11 GMT 40.080315 -74.862587 5,550 74 241 0
2020-02-20 20:59:05 GMT 40.074402 -74.861526 5,550 23 227 -192
2020-02-20 20:58:59 GMT 40.067184 -74.860405 5,550 355 214 -64
2020-02-20 20:58:55 GMT 40.063927 -74.860092 5,550 358 216 128
2020-02-20 20:58:51 GMT 40.060295 -74.859962 5,550 29 229 -128
2020-02-20 20:58:46 GMT 40.055237 -74.860718 5,550 31 230 -64
2020-02-20 20:58:43 GMT 40.051666 -74.862183 5,550 20 225 -192
2020-02-20 20:58:37 GMT 40.046608 -74.865646 5,575 37 232 -64
2020-02-20 20:58:33 GMT 40.043106 -74.869385 5,575 46 236 0
2020-02-20 20:58:29 GMT 40.040176 -74.873718 5,575 52 239 128
2020-02-20 20:58:25 GMT 40.037857 -74.878380 5,550 64 244 64
2020-02-20 20:58:22 GMT 40.036606 -74.881775 5,550 67 245 64
2020-02-20 20:58:18 GMT 40.034554 -74.889427 5,550 73 248 -64
2020-02-20 20:58:13 GMT 40.032806 -74.897217 5,550 73 247 -64
2020-02-20 20:58:07 GMT 40.031342 -74.903847 5,550 73 245 64
2020-02-20 20:58:02 GMT 40.029617 -74.911400 5,550 73 247 -64
2020-02-20 20:57:56 GMT 40.027523 -74.920639 5,575 73 246 -128
2020-02-20 20:57:51 GMT 40.026169 -74.926575 5,550 73 244 256
2020-02-20 20:57:48 GMT 40.025055 -74.931442 5,550 74 243 384
2020-02-20 20:57:45 GMT 40.022961 -74.940987 5,550 74 230 64
2020-02-20 20:57:42 GMT 40.021957 -74.945740 5,550 74 233 -128
2020-02-20 20:57:37 GMT 40.021957 -74.945740 5,550 74 233 -64
2020-02-20 20:57:31 GMT 40.019943 -74.954895 5,550 73 233 0
2020-02-20 20:57:27 GMT 40.018707 -74.960449 5,550 74 233 0
2020-02-20 20:57:24 GMT 40.017975 -74.963684 5,550 74 233 0
2020-02-20 20:57:19 GMT 40.016491 -74.970451 5,550 74 233 0
2020-02-20 20:57:16 GMT 40.015594 -74.974609 5,550 74 233 0
2020-02-20 20:57:09 GMT 40.013397 -74.984497 5,550 74 236 -64
2020-02-20 20:57:05 GMT 40.012253 -74.989677 5,550 74 236 64
2020-02-20 20:56:59 GMT 40.010651 -74.997070 5,550 73 235 64
2020-02-20 20:56:55 GMT 40.009369 -75.002853 5,550 73 233 64
2020-02-20 20:56:52 GMT 40.008133 -75.008484 5,550 73 233 -64
2020-02-20 20:56:49 GMT 40.007492 -75.011230 5,550 73 233 -64
2020-02-20 20:56:46 GMT 40.006165 -75.017212 5,550 73 232 0
2020-02-20 20:56:43 GMT 40.005295 -75.020996 5,550 74 232 -64
2020-02-20 20:56:39 GMT 40.003418 -75.029724 5,550 74 231 64
2020-02-20 20:56:35 GMT 40.003418 -75.029724 5,550 74 231 64
2020-02-20 20:56:29 GMT 40.001686 -75.037621 5,575 73 233 -64
2020-02-20 20:56:26 GMT 40.000710 -75.041862 5,575 73 235 128
2020-02-20 20:56:22 GMT 39.999023 -75.049377 5,575 73 235 0
2020-02-20 20:56:19 GMT 39.998291 -75.052673 5,575 73 235 -64
2020-02-20 20:56:15 GMT 39.997192 -75.057617 5,575 74 234 -128
2020-02-20 20:56:09 GMT 39.995449 -75.065521 5,550 74 231 -64
2020-02-20 20:56:05 GMT 39.994053 -75.071953 5,550 74 234 -128
2020-02-20 20:56:00 GMT 39.992748 -75.077881 5,550 74 231 0
2020-02-20 20:55:57 GMT 39.992020 -75.081299 5,550 74 231 64
2020-02-20 20:55:54 GMT 39.991196 -75.085266 5,550 74 231 64
2020-02-20 20:55:50 GMT 39.989769 -75.091988 5,550 74 230 -64
2020-02-20 20:55:47 GMT 39.989182 -75.094971 5,550 74 230 -64
2020-02-20 20:55:44 GMT 39.986618 -75.106812 5,550 74 234 -128
2020-02-20 20:55:38 GMT 39.986618 -75.106812 5,550 74 230 64
2020-02-20 20:55:35 GMT 39.984928 -75.114647 5,550 73 231 0
2020-02-20 20:55:25 GMT 39.982601 -75.124947 5,550 73 233 0
2020-02-20 20:55:22 GMT 39.981491 -75.130127 5,575 76 235 -256
2020-02-20 20:55:19 GMT 39.981125 -75.132202 5,575 82 237 -64
2020-02-20 20:55:15 GMT 39.980164 -75.138550 5,575 80 237 -64
2020-02-20 20:55:12 GMT 39.979855 -75.142738 5,575 89 239 -64
2020-02-20 20:55:07 GMT 39.980209 -75.151245 5,575 99 241 128
2020-02-20 20:55:03 GMT 39.982040 -75.160530 5,550 110 242 128
2020-02-20 20:54:59 GMT 39.983765 -75.165337 5,550 157 231 -128
2020-02-20 20:54:56 GMT 39.983765 -75.165337 5,550 118 242 -64
2020-02-20 20:54:52 GMT 39.986023 -75.170166 5,550 126 241 0
2020-02-20 20:54:48 GMT 39.989502 -75.175476 5,550 135 241 128
2020-02-20 20:54:44 GMT 39.991837 -75.178162 5,550 145 237 64
2020-02-20 20:54:41 GMT 39.994518 -75.180626 5,550 148 235 128
2020-02-20 20:54:36 GMT 39.999847 -75.184021 5,550 160 230 -128
2020-02-20 20:54:33 GMT 40.003315 -75.185562 5,575 162 229 -128
2020-02-20 20:54:29 GMT 40.007996 -75.187256 5,550 164 227 192
2020-02-20 20:54:24 GMT 40.011703 -75.188599 5,550 164 231 64
2020-02-20 20:54:21 GMT 40.015045 -75.189758 5,550 164 235 0
2020-02-20 20:54:17 GMT 40.018433 -75.190979 5,550 165 236 0
2020-02-20 20:54:14 GMT 40.022495 -75.192368 5,550 165 236 -64
2020-02-20 20:54:11 GMT 40.026123 -75.193604 5,550 165 236 -192
2020-02-20 20:54:08 GMT 40.028873 -75.194550 5,550 163 236 -128
2020-02-20 20:54:03 GMT 40.037064 -75.197876 5,550 158 236 64
2020-02-20 20:54:00 GMT 40.043537 -75.202293 5,550 148 238 128
2020-02-20 20:53:54 GMT 40.043537 -75.202293 5,550 145 238 128
2020-02-20 20:53:51 GMT 40.048828 -75.208008 5,550 138 238 -128
2020-02-20 20:53:47 GMT 40.048828 -75.208008 5,550 102 237 -192
2020-02-20 20:53:43 GMT 40.051758 -75.212402 5,550 106 237 -64
2020-02-20 20:53:40 GMT 40.054138 -75.217163 5,550 118 235 192
2020-02-20 20:53:32 GMT 40.056572 -75.225945 5,550 106 237 -64
2020-02-20 20:53:29 GMT 40.057434 -75.234863 5,550 93 240 -832
2020-02-20 20:53:26 GMT 40.057781 -75.241432 5,575 93 237 -64
2020-02-20 20:53:22 GMT 40.057781 -75.241432 5,575 93 237 64
2020-02-20 20:53:19 GMT 40.058029 -75.246277 5,550 93 237 64
2020-02-20 20:53:15 GMT 40.058258 -75.250305 5,550 93 240 -832
2020-02-20 20:53:11 GMT 40.058666 -75.258034 5,575 93 236 -128
2020-02-20 20:53:07 GMT 40.058807 -75.261467 5,575 93 236 0
2020-02-20 20:53:02 GMT 40.059265 -75.270325 5,550 93 237 -192
2020-02-20 20:52:58 GMT 40.059540 -75.276611 5,600 93 238 -512
2020-02-20 20:52:54 GMT 40.059814 -75.281799 5,625 93 238 -832
2020-02-20 20:52:50 GMT 40.060295 -75.291306 5,725 93 240 -832
2020-02-20 20:52:42 GMT 40.060715 -75.299484 5,800 94 243 -832
2020-02-20 20:52:39 GMT 40.060913 -75.302734 5,800 94 243 -832
2020-02-20 20:52:36 GMT 40.061096 -75.306152 5,850 93 245 -832
2020-02-20 20:52:33 GMT 40.061550 -75.315521 5,950 93 249 -704
2020-02-20 20:52:30 GMT 40.061874 -75.321838 5,950 93 249 -704
2020-02-20 20:52:27 GMT 40.061874 -75.321838 6,000 93 249 -704
2020-02-20 20:52:22 GMT 40.062195 -75.327881 6,050 93 253 -832
2020-02-20 20:52:19 GMT 40.062424 -75.332153 6,075 93 251 -832
2020-02-20 20:52:16 GMT 40.062653 -75.337036 6,125 93 251 -896
2020-02-20 20:52:12 GMT 40.062901 -75.342239 6,175 93 252 -896
2020-02-20 20:52:09 GMT 40.063248 -75.348511 6,225 93 252 -832
2020-02-20 20:52:06 GMT 40.063431 -75.352844 6,275 93 252 -832
2020-02-20 20:52:02 GMT 40.063797 -75.359497 6,450 93 252 -768
2020-02-20 20:51:58 GMT 40.063980 -75.363770 6,350 93 252 -768
2020-02-20 20:51:55 GMT 40.064251 -75.369080 6,400 93 253 -832
2020-02-20 20:51:52 GMT 40.064850 -75.380432 6,500 93 254 -832
2020-02-20 20:51:47 GMT 40.064850 -75.380432 6,500 93 254 -832
2020-02-20 20:51:44 GMT 40.065125 -75.385986 6,550 93 254 -832
2020-02-20 20:51:40 GMT 40.065399 -75.391541 6,600 93 255 -768
2020-02-20 20:51:37 GMT 40.065601 -75.396049 6,625 93 255 -768
2020-02-20 20:51:34 GMT 40.065834 -75.401108 6,700 93 261 -896
2020-02-20 20:51:28 GMT 40.066360 -75.411865 6,775 93 258 -896
2020-02-20 20:51:24 GMT 40.066628 -75.417274 6,825 93 259 -896
2020-02-20 20:51:18 GMT 40.067001 -75.425781 6,925 93 260 -896
2020-02-20 20:51:15 GMT 40.067184 -75.429565 6,950 93 260 -896
2020-02-20 20:51:10 GMT 40.067696 -75.439369 7,050 93 261 -832
2020-02-20 20:51:05 GMT 40.068024 -75.445610 7,100 93 261 -832
2020-02-20 20:51:02 GMT 40.068256 -75.450233 7,425 93 262 -832
2020-02-20 20:50:59 GMT 40.068466 -75.454956 7,425 93 262 -832
2020-02-20 20:50:56 GMT 40.068676 -75.459717 7,200 93 263 -832
2020-02-20 20:50:53 GMT 40.069016 -75.466370 7,425 93 265 -704
2020-02-20 20:50:49 GMT 40.069336 -75.473389 7,375 93 264 -896
2020-02-20 20:50:46 GMT 40.069839 -75.483643 7,400 93 265 -704
2020-02-20 20:50:41 GMT 40.069839 -75.483643 7,475 93 265 -640
2020-02-20 20:50:38 GMT 40.070072 -75.488930 7,475 93 265 -640
2020-02-20 20:50:35 GMT 40.070297 -75.493103 7,475 93 265 -640
2020-02-20 20:50:32 GMT 40.070629 -75.500603 7,550 93 265 -512
2020-02-20 20:50:28 GMT 40.070816 -75.504349 7,550 93 265 -64
2020-02-20 20:50:25 GMT 40.071049 -75.509468 7,550 93 265 0
2020-02-20 20:50:22 GMT 40.071281 -75.514091 7,550 93 265 0
2020-02-20 20:50:19 GMT 40.071625 -75.521484 7,550 93 265 64
2020-02-20 20:50:16 GMT 40.071808 -75.524597 7,550 93 265 0
2020-02-20 20:50:11 GMT 40.072212 -75.533257 7,550 93 265 64
2020-02-20 20:50:08 GMT 40.072449 -75.538025 7,550 93 265 64
2020-02-20 20:50:04 GMT 40.072678 -75.542870 7,550 93 265 64
2020-02-20 20:50:00 GMT 40.073006 -75.549919 7,550 93 265 64
2020-02-20 20:49:54 GMT 40.073376 -75.558281 7,550 93 264 -64
2020-02-20 20:49:50 GMT 40.073750 -75.566589 7,550 93 264 -64
2020-02-20 20:49:46 GMT 40.074028 -75.572327 7,550 93 264 0
2020-02-20 20:49:43 GMT 40.074280 -75.577698 7,550 93 264 64
2020-02-20 20:49:38 GMT 40.074692 -75.586670 7,550 93 264 64
2020-02-20 20:49:35 GMT 40.074913 -75.590683 7,550 93 265 0
2020-02-20 20:49:29 GMT 40.075333 -75.600357 7,550 93 265 -64
2020-02-20 20:49:26 GMT 40.075565 -75.604851 7,550 93 265 -64
2020-02-20 20:49:23 GMT 40.075703 -75.608032 7,575 93 264 0
2020-02-20 20:49:16 GMT 40.076588 -75.627136 7,550 93 263 128
2020-02-20 20:49:11 GMT 40.076588 -75.627136 7,550 93 263 64
2020-02-20 20:49:08 GMT 40.076866 -75.633568 7,550 93 264 64
2020-02-20 20:49:02 GMT 40.077255 -75.642212 7,550 93 264 64
2020-02-20 20:48:56 GMT 40.077660 -75.651421 7,550 93 271 0
2020-02-20 20:48:53 GMT 40.077942 -75.657654 7,550 93 272 -64
2020-02-20 20:48:46 GMT 40.078403 -75.669273 7,550 93 278 -128
2020-02-20 20:48:41 GMT 40.079102 -75.684875 7,550 93 308 0
2020-02-20 20:48:36 GMT 40.079102 -75.684875 7,550 93 288 64
2020-02-20 20:48:32 GMT 40.079453 -75.693542 7,550 93 293 64
2020-02-20 20:48:25 GMT 40.079845 -75.704102 7,550 92 301 -64
2020-02-20 20:48:21 GMT 40.080173 -75.712029 7,550 93 308 0
2020-02-20 20:48:16 GMT 40.080593 -75.722580 7,550 93 308 -64
2020-02-20 20:48:09 GMT 40.081192 -75.734070 8,975 95 366 -320
2020-02-20 20:48:04 GMT 40.081944 -75.744804 7,575 95 309 -128
2020-02-20 20:47:59 GMT 40.082657 -75.754883 7,575 95 310 -256
2020-02-20 20:47:54 GMT 40.083298 -75.763977 7,625 95 310 -704
2020-02-20 20:47:50 GMT 40.083710 -75.769585 7,675 95 310 -1216
2020-02-20 20:47:42 GMT 40.084763 -75.784790 7,850 95 311 -1408
2020-02-20 20:47:39 GMT 40.085220 -75.791443 7,950 95 311 -1472
2020-02-20 20:47:34 GMT 40.085907 -75.800659 8,100 95 311 -1472
2020-02-20 20:47:28 GMT 40.086594 -75.810364 8,325 95 311 -1472
2020-02-20 20:47:21 GMT 40.087574 -75.823456 8,350 95 311 -1408
2020-02-20 20:47:18 GMT 40.088085 -75.830193 8,475 95 315 -1280
2020-02-20 20:47:12 GMT 40.088974 -75.842590 8,575 95 313 -1280
2020-02-20 20:47:06 GMT 40.089531 -75.850548 8,650 95 314 -1280
2020-02-20 20:47:02 GMT 40.090256 -75.860779 8,800 95 316 -1344
2020-02-20 20:46:57 GMT 40.090836 -75.868774 8,900 95 317 -1344
2020-02-20 20:46:48 GMT 40.092232 -75.888687 9,100 95 320 -1472
2020-02-20 20:46:44 GMT 40.092556 -75.893303 9,375 95 366 -320
2020-02-20 20:46:41 GMT 40.093163 -75.901794 9,325 95 322 -640
2020-02-20 20:46:38 GMT 40.093395 -75.905663 9,350 95 321 -768
2020-02-20 20:46:35 GMT 40.095154 -75.930481 9,475 95 329 -960
2020-02-20 20:46:27 GMT 40.095154 -75.930481 9,550 95 338 -832
2020-02-20 20:46:20 GMT 40.095932 -75.941833 9,550 95 345 -192
2020-02-20 20:46:17 GMT 40.096298 -75.947021 9,550 95 352 -128
2020-02-20 20:46:14 GMT 40.097397 -75.963318 9,575 95 357 -256
2020-02-20 20:46:11 GMT 40.097397 -75.963318 9,575 95 362 -320
2020-02-20 20:46:07 GMT 40.098282 -75.976074 9,600 95 381 -1664
2020-02-20 20:46:04 GMT 40.098282 -75.976074 9,600 95 371 -512
2020-02-20 20:46:00 GMT 40.098816 -75.983643 9,600 95 371 -576
2020-02-20 20:45:57 GMT 40.099503 -75.993591 9,700 95 379 -1408
2020-02-20 20:45:54 GMT 40.099911 -75.999359 9,750 95 382 -1792
2020-02-20 20:45:44 GMT 40.102066 -76.029602 10,200 95 422 -2048
2020-02-20 20:45:35 GMT 40.103439 -76.049194 10,625 94 390 -2624
2020-02-20 20:45:32 GMT 40.103439 -76.049194 10,625 94 390 -2624
2020-02-20 20:45:26 GMT 40.104473 -76.064720 10,950 95 393 -2560
2020-02-20 20:45:22 GMT 40.105179 -76.074707 11,100 95 394 -2688
2020-02-20 20:45:15 GMT 40.106644 -76.095398 11,475 95 396 -2560
2020-02-20 20:45:09 GMT 40.107376 -76.106079 11,675 95 400 -2688
2020-02-20 20:45:05 GMT 40.107964 -76.114159 11,825 95 399 -2624
2020-02-20 20:45:00 GMT 40.108658 -76.124329 12,000 95 400 -2624
2020-02-20 20:44:57 GMT 40.109177 -76.131508 12,150 95 405 -1920
2020-02-20 20:44:54 GMT 40.109875 -76.141121 12,300 95 402 -2496
2020-02-20 20:44:50 GMT 40.110477 -76.149734 12,425 95 405 -1920
2020-02-20 20:44:43 GMT 40.111588 -76.165955 12,625 95 409 -1792
2020-02-20 20:44:39 GMT 40.113365 -76.190308 12,800 99 431 0
2020-02-20 20:44:33 GMT 40.113365 -76.190308 13,200 95 416 -1856
2020-02-20 20:44:29 GMT 40.114197 -76.202026 13,200 95 420 -1792
2020-02-20 20:44:25 GMT 40.115021 -76.214172 13,200 94 421 -1728
2020-02-20 20:44:21 GMT 40.115505 -76.221771 13,325 94 421 -1664
2020-02-20 20:44:18 GMT 40.115891 -76.228149 13,650 95 424 -1792
2020-02-20 20:44:15 GMT 40.116486 -76.237068 13,500 97 424 -1088
2020-02-20 20:44:12 GMT 40.116943 -76.243469 13,575 95 423 -2176
2020-02-20 20:44:09 GMT 40.117722 -76.253784 13,850 96 424 -1536
2020-02-20 20:44:03 GMT 40.118912 -76.269104 13,900 96 423 -1536
2020-02-20 20:43:59 GMT 40.119465 -76.275703 13,950 96 423 -1344
2020-02-20 20:43:55 GMT 40.120583 -76.287872 14,025 96 423 -1344
2020-02-20 20:43:51 GMT 40.121384 -76.296509 14,125 97 424 -1088
2020-02-20 20:43:48 GMT 40.122490 -76.308228 14,200 97 424 -1088
2020-02-20 20:43:41 GMT 40.124039 -76.322937 14,750 99 464 -1152
2020-02-20 20:43:37 GMT 40.125275 -76.333862 14,375 98 425 -1024
2020-02-20 20:43:32 GMT 40.126957 -76.347801 14,475 99 426 -1088
2020-02-20 20:43:27 GMT 40.128662 -76.361572 14,575 99 427 -1024
2020-02-20 20:43:21 GMT 40.131821 -76.387146 14,750 99 464 -1152
2020-02-20 20:43:16 GMT 40.131821 -76.387146 14,725 99 429 -1088
2020-02-20 20:43:13 GMT 40.132915 -76.395866 15,025 99 430 -1152
2020-02-20 20:43:10 GMT 40.133522 -76.400734 14,850 99 431 -1152
2020-02-20 20:43:04 GMT 40.135571 -76.417213 14,950 99 433 -1152
2020-02-20 20:43:01 GMT 40.136856 -76.427307 15,025 99 435 -1088
2020-02-20 20:42:58 GMT 40.137726 -76.434570 15,100 99 435 -1088
2020-02-20 20:42:53 GMT 40.139248 -76.446495 15,150 99 436 -1088
2020-02-20 20:42:50 GMT 40.141155 -76.462097 15,250 99 437 -1024
2020-02-20 20:42:44 GMT 40.142532 -76.473145 15,325 99 439 -1088
2020-02-20 20:42:39 GMT 40.143539 -76.481506 15,400 99 439 -1152
2020-02-20 20:42:35 GMT 40.145187 -76.495117 15,500 99 442 -1152
2020-02-20 20:42:32 GMT 40.146183 -76.502983 15,550 99 444 -1152
2020-02-20 20:42:29 GMT 40.146835 -76.508415 15,600 99 444 -1152
2020-02-20 20:42:25 GMT 40.148071 -76.518250 15,800 99 447 -1152
2020-02-20 20:42:22 GMT 40.150452 -76.537659 15,775 98 448 -1152
2020-02-20 20:42:18 GMT 40.150452 -76.537659 15,800 98 448 -1152
2020-02-20 20:42:13 GMT 40.152374 -76.553589 15,900 99 450 -1152
2020-02-20 20:42:10 GMT 40.153473 -76.562317 15,975 98 451 -1024
2020-02-20 20:42:06 GMT 40.154617 -76.572021 16,025 98 451 -1088
2020-02-20 20:42:02 GMT 40.157032 -76.591995 16,350 98 452 -1152
2020-02-20 20:41:58 GMT 40.157032 -76.591995 16,150 98 452 -1152
2020-02-20 20:41:54 GMT 40.158428 -76.603859 16,250 99 454 -1152
2020-02-20 20:41:51 GMT 40.159218 -76.610352 16,300 98 454 -1152
2020-02-20 20:41:48 GMT 40.160427 -76.620087 16,350 99 454 -1152
2020-02-20 20:41:44 GMT 40.161530 -76.629150 16,550 99 455 -1152
2020-02-20 20:41:38 GMT 40.163876 -76.648361 16,550 99 457 -1152
2020-02-20 20:41:35 GMT 40.164871 -76.656555 16,600 99 457 -1152
2020-02-20 20:41:30 GMT 40.166336 -76.668579 16,675 99 458 -1152
2020-02-20 20:41:27 GMT 40.167179 -76.675522 16,750 99 458 -1152
2020-02-20 20:41:24 GMT 40.168530 -76.686630 16,825 98 459 -1152
2020-02-20 20:41:20 GMT 40.169632 -76.695923 16,950 98 460 -1152
2020-02-20 20:41:16 GMT 40.170822 -76.705811 16,950 98 460 -1152
2020-02-20 20:41:13 GMT 40.172287 -76.717957 17,025 98 461 -1088
2020-02-20 20:41:10 GMT 40.174164 -76.733337 17,100 98 461 -1088
2020-02-20 20:41:06 GMT 40.174164 -76.733337 17,125 98 461 -1152
2020-02-20 20:41:03 GMT 40.175140 -76.741623 17,300 98 463 -1152
2020-02-20 20:40:59 GMT 40.176628 -76.753731 17,275 98 463 -1152
2020-02-20 20:40:56 GMT 40.177597 -76.762024 17,325 98 463 -1152
2020-02-20 20:40:53 GMT 40.179840 -76.780884 17,475 98 464 -1216
2020-02-20 20:40:50 GMT 40.181030 -76.790833 17,825 98 465 -1152
2020-02-20 20:40:46 GMT 40.181030 -76.790833 17,550 98 465 -1152
2020-02-20 20:40:43 GMT 40.182220 -76.800842 17,600 99 465 -1152
2020-02-20 20:40:37 GMT 40.183823 -76.814209 17,700 99 465 -1152
2020-02-20 20:40:34 GMT 40.185242 -76.825829 17,775 99 462 -1088
2020-02-20 20:40:31 GMT 40.185894 -76.831390 17,825 99 463 -1088
2020-02-20 20:40:28 GMT 40.188080 -76.849174 17,950 98 457 -1024
2020-02-20 20:40:21 GMT 40.189480 -76.860977 18,000 98 453 -384
2020-02-20 20:40:15 GMT 40.191376 -76.876831 18,000 98 452 0
2020-02-20 20:40:11 GMT 40.192596 -76.887070 18,000 98 452 0
2020-02-20 20:40:08 GMT 40.193668 -76.895683 18,000 98 452 0
2020-02-20 20:40:03 GMT 40.195404 -76.910339 18,000 98 452 -128
2020-02-20 20:39:59 GMT 40.196228 -76.917343 18,000 98 452 -128
2020-02-20 20:39:54 GMT 40.198059 -76.932983 18,000 98 453 -128
2020-02-20 20:39:51 GMT 40.199162 -76.942253 18,025 98 454 -448
2020-02-20 20:39:45 GMT 40.201908 -76.965157 18,125 98 455 -1408
2020-02-20 20:39:42 GMT 40.203445 -76.978081 18,225 98 456 -2048
2020-02-20 20:39:37 GMT 40.203445 -76.978081 18,325 98 457 -2048
2020-02-20 20:39:33 GMT 40.204697 -76.988525 18,425 98 456 -2048
2020-02-20 20:39:29 GMT 40.205818 -76.997871 18,675 98 457 -2048
2020-02-20 20:39:26 GMT 40.207260 -77.009789 18,700 98 458 -2048
2020-02-20 20:39:23 GMT 40.208145 -77.017532 18,800 98 458 -2048
2020-02-20 20:39:19 GMT 40.209309 -77.027397 18,900 98 459 -2048
2020-02-20 20:39:16 GMT 40.210144 -77.034546 19,000 98 459 -2048
2020-02-20 20:39:10 GMT 40.212112 -77.051025 19,200 98 462 -2048
2020-02-20 20:39:03 GMT 40.214172 -77.068726 19,825 98 464 -2048
2020-02-20 20:38:59 GMT 40.215500 -77.079834 19,650 98 467 -2112
2020-02-20 20:38:56 GMT 40.217010 -77.093201 19,675 98 470 -2624
2020-02-20 20:38:52 GMT 40.218246 -77.103859 19,875 98 469 -2560
2020-02-20 20:38:49 GMT 40.219040 -77.110603 19,975 98 469 -2624
2020-02-20 20:38:45 GMT 40.220341 -77.121841 20,525 98 470 -2624
2020-02-20 20:38:39 GMT 40.222298 -77.138443 20,500 98 472 -2688
2020-02-20 20:38:36 GMT 40.223602 -77.149414 20,575 98 472 -2688
2020-02-20 20:38:28 GMT 40.226162 -77.171463 20,950 98 474 -2752
2020-02-20 20:38:25 GMT 40.226624 -77.175415 21,000 98 475 -2752
2020-02-20 20:38:19 GMT 40.229046 -77.196304 21,325 98 478 -2752
2020-02-20 20:38:15 GMT 40.230350 -77.207855 21,450 98 477 -2752
2020-02-20 20:38:08 GMT 40.232254 -77.224426 21,875 98 479 -2752
2020-02-20 20:38:05 GMT 40.235321 -77.250854 22,525 98 482 -2688
2020-02-20 20:38:00 GMT 40.235321 -77.250854 22,200 98 482 -2688
2020-02-20 20:37:57 GMT 40.236237 -77.258728 22,325 98 483 -2560
2020-02-20 20:37:54 GMT 40.237103 -77.266220 22,525 98 496 -1600
2020-02-20 20:37:49 GMT 40.238846 -77.281982 22,700 98 494 -1984
2020-02-20 20:37:44 GMT 40.240639 -77.298058 22,775 98 494 -1920
2020-02-20 20:37:37 GMT 40.242279 -77.312622 23,100 98 497 -1728
2020-02-20 20:37:34 GMT 40.243664 -77.325333 23,075 97 495 -576
2020-02-20 20:37:31 GMT 40.245853 -77.345497 23,075 98 506 -512
2020-02-20 20:37:27 GMT 40.245853 -77.345497 23,100 97 494 320
2020-02-20 20:37:24 GMT 40.247063 -77.357361 23,050 98 497 512
2020-02-20 20:37:20 GMT 40.248047 -77.366211 23,025 98 555 -3648
2020-02-20 20:37:17 GMT 40.250507 -77.388573 23,125 98 504 -320
2020-02-20 20:37:10 GMT 40.251904 -77.400681 23,175 98 515 -3136
2020-02-20 20:37:06 GMT 40.252945 -77.410034 23,425 98 515 -3136
2020-02-20 20:37:03 GMT 40.256187 -77.437630 23,675 98 561 -1664
2020-02-20 20:36:58 GMT 40.256187 -77.437630 23,800 99 517 -2560
2020-02-20 20:36:55 GMT 40.257164 -77.445312 23,850 99 522 -1088
2020-02-20 20:36:52 GMT 40.258095 -77.452736 23,900 99 526 -512
2020-02-20 20:36:44 GMT 40.261074 -77.476646 24,100 99 534 -384
2020-02-20 20:36:41 GMT 40.262238 -77.486267 24,100 98 555 -3648
2020-02-20 20:36:37 GMT 40.263931 -77.500549 24,225 98 546 -2880
2020-02-20 20:36:34 GMT 40.265079 -77.510170 24,600 98 551 -2944
2020-02-20 20:36:31 GMT 40.267780 -77.534386 24,750 98 555 -3648
2020-02-20 20:36:27 GMT 40.267780 -77.534386 25,000 98 561 -576
2020-02-20 20:36:24 GMT 40.268990 -77.545059 24,875 98 561 -1664
2020-02-20 20:36:20 GMT 40.270199 -77.555801 24,925 98 561 -1088
2020-02-20 20:36:14 GMT 40.272812 -77.578857 25,025 98 562 64
2020-02-20 20:36:11 GMT 40.273876 -77.587944 25,025 98 560 0
2020-02-20 20:36:05 GMT 40.275879 -77.606018 25,000 98 560 128
2020-02-20 20:36:02 GMT 40.276997 -77.616096 24,975 98 559 128
2020-02-20 20:35:56 GMT 40.279633 -77.639587 25,000 98 562 64
2020-02-20 20:35:52 GMT 40.280907 -77.650993 25,000 98 563 -64
2020-02-20 20:35:48 GMT 40.282070 -77.661545 25,000 98 564 64
2020-02-20 20:35:45 GMT 40.283607 -77.675087 25,000 98 565 -64
2020-02-20 20:35:41 GMT 40.285469 -77.691505 25,000 98 566 -128
2020-02-20 20:35:38 GMT 40.286499 -77.700317 25,000 98 566 -128
2020-02-20 20:35:34 GMT 40.288147 -77.715210 25,025 98 564 0
2020-02-20 20:35:31 GMT 40.289932 -77.731445 25,000 98 564 64
2020-02-20 20:35:24 GMT 40.291660 -77.747124 25,000 98 563 64
2020-02-20 20:35:20 GMT 40.293846 -77.767349 25,000 98 563 64
2020-02-20 20:35:14 GMT 40.296112 -77.788147 25,000 98 563 128
2020-02-20 20:35:11 GMT 40.297531 -77.801636 24,975 98 562 192
2020-02-20 20:35:08 GMT 40.297531 -77.801636 24,975 98 562 256
2020-02-20 20:35:04 GMT 40.298996 -77.815063 25,000 97 564 -128
2020-02-20 20:35:01 GMT 40.299866 -77.823181 25,000 97 565 -128
2020-02-20 20:34:58 GMT 40.300831 -77.831764 25,000 97 564 -192
2020-02-20 20:34:52 GMT 40.303162 -77.854431 25,000 97 565 -128
2020-02-20 20:34:49 GMT 40.304184 -77.864601 25,000 96 566 0
2020-02-20 20:34:41 GMT 40.306595 -77.892517 25,000 96 566 64
2020-02-20 20:34:37 GMT 40.307510 -77.904785 25,000 95 566 128
2020-02-20 20:34:27 GMT 40.309845 -77.939941 24,975 94 568 -64
2020-02-20 20:34:19 GMT 40.311398 -77.968536 25,000 93 574 -192
2020-02-20 20:34:16 GMT 40.311722 -77.976196 25,000 93 573 -256
2020-02-20 20:34:11 GMT 40.312500 -77.994263 25,050 92 577 -704
2020-02-20 20:34:06 GMT 40.313141 -78.013855 25,300 91 583 -1664
2020-02-20 20:33:58 GMT 40.313587 -78.038574 26,175 90 591 -3200
2020-02-20 20:33:55 GMT 40.313736 -78.050598 27,650 90 587 -2496
2020-02-20 20:33:48 GMT 40.313873 -78.073303 25,800 90 588 -3136
2020-02-20 20:33:44 GMT 40.313957 -78.086510 26,250 90 591 -3392
2020-02-20 20:33:37 GMT 40.314102 -78.113220 26,475 90 591 -3200
2020-02-20 20:33:34 GMT 40.314194 -78.127502 26,600 90 591 -3392
2020-02-20 20:33:28 GMT 40.314331 -78.148186 26,875 90 591 -3264
2020-02-20 20:33:24 GMT 40.314423 -78.160339 26,975 90 591 -3392
2020-02-20 20:33:18 GMT 40.314705 -78.198372 27,875 90 594 -3136
2020-02-20 20:33:14 GMT 40.314705 -78.198372 27,650 90 596 -3136
2020-02-20 20:33:06 GMT 40.314796 -78.222908 28,075 90 599 -3328
2020-02-20 20:33:03 GMT 40.314842 -78.235703 28,225 90 602 -4288
2020-02-20 20:32:55 GMT 40.315063 -78.266968 28,875 90 603 -4672
2020-02-20 20:32:43 GMT 40.315292 -78.312683 29,900 90 605 -5056
2020-02-20 20:32:36 GMT 40.315449 -78.336891 31,825 90 606 -1280
2020-02-20 20:32:31 GMT 40.315521 -78.352234 30,725 90 605 -5824
2020-02-20 20:32:25 GMT 40.315613 -78.374207 31,375 90 607 -3648
2020-02-20 20:32:22 GMT 40.315659 -78.387451 31,600 90 605 64
2020-02-20 20:32:17 GMT 40.315796 -78.427124 31,750 90 607 -1728
2020-02-20 20:32:10 GMT 40.315796 -78.427124 32,000 90 605 64
2020-02-20 20:32:04 GMT 40.315914 -78.455681 32,000 90 605 -128
2020-02-20 20:32:01 GMT 40.315933 -78.463440 32,000 90 605 64
2020-02-20 20:31:54 GMT 40.316006 -78.489075 32,000 90 605 0
2020-02-20 20:31:49 GMT 40.316071 -78.506287 32,000 90 605 -64
2020-02-20 20:31:46 GMT 40.316116 -78.520752 32,000 90 605 -64
2020-02-20 20:31:43 GMT 40.316147 -78.530273 32,000 90 605 -64
2020-02-20 20:31:40 GMT 40.316147 -78.539261 32,000 90 605 -64
2020-02-20 20:31:36 GMT 40.316193 -78.553993 32,000 90 605 -128
2020-02-20 20:31:33 GMT 40.316208 -78.565002 32,000 90 606 -64
2020-02-20 20:31:30 GMT 40.316208 -78.578186 32,000 90 606 -64
2020-02-20 20:31:24 GMT 40.316193 -78.612610 32,000 90 607 64
2020-02-20 20:31:20 GMT 40.316193 -78.612610 32,000 90 606 0
2020-02-20 20:31:16 GMT 40.316193 -78.625900 32,000 89 607 64
2020-02-20 20:31:13 GMT 40.316208 -78.640930 32,000 89 607 64
2020-02-20 20:31:08 GMT 40.316147 -78.655243 32,000 89 607 64
2020-02-20 20:31:04 GMT 40.316147 -78.671349 32,000 90 607 0
2020-02-20 20:31:01 GMT 40.316147 -78.683083 32,000 90 607 0
2020-02-20 20:30:58 GMT 40.316162 -78.692383 32,000 90 607 0
2020-02-20 20:30:51 GMT 40.316208 -78.730591 32,000 89 607 64
2020-02-20 20:30:48 GMT 40.316208 -78.730591 32,000 89 606 64
2020-02-20 20:30:41 GMT 40.316116 -78.757202 32,000 89 606 0
2020-02-20 20:30:38 GMT 40.316051 -78.768227 32,000 89 606 0
2020-02-20 20:30:31 GMT 40.315773 -78.796005 32,000 89 605 -64
2020-02-20 20:30:27 GMT 40.315613 -78.807007 32,000 88 605 64
2020-02-20 20:30:19 GMT 40.314972 -78.845093 32,000 88 608 -320
2020-02-20 20:30:10 GMT 40.314331 -78.873047 32,100 88 609 -1152
2020-02-20 20:30:07 GMT 40.314098 -78.884148 32,150 88 610 -1152
2020-02-20 20:30:02 GMT 40.313679 -78.898750 32,200 87 610 -1152
2020-02-20 20:29:59 GMT 40.313324 -78.911255 32,300 87 610 -1216
2020-02-20 20:29:53 GMT 40.312469 -78.934273 32,425 86 611 -1216
2020-02-20 20:29:50 GMT 40.312042 -78.945251 32,500 86 611 -1216
2020-02-20 20:29:46 GMT 40.311356 -78.960205 32,600 86 611 -1152
2020-02-20 20:29:41 GMT 40.310715 -78.974915 32,650 86 611 -1216
2020-02-20 20:29:35 GMT 40.309677 -78.997757 32,775 86 611 -1152
2020-02-20 20:29:32 GMT 40.309067 -79.011597 32,825 86 611 -1088
2020-02-20 20:29:25 GMT 40.307281 -79.051697 33,000 86 613 -384
2020-02-20 20:29:20 GMT 40.306137 -79.076538 33,000 86 614 64
2020-02-20 20:29:14 GMT 40.306137 -79.076538 33,000 86 614 64
2020-02-20 20:29:10 GMT 40.305626 -79.087952 33,000 86 614 64
2020-02-20 20:29:04 GMT 40.304581 -79.112427 33,000 86 613 0
2020-02-20 20:29:01 GMT 40.303894 -79.126953 33,000 86 613 -64
2020-02-20 20:28:54 GMT 40.302750 -79.152344 33,000 86 612 0
2020-02-20 20:28:50 GMT 40.302181 -79.164925 33,000 86 612 -64
2020-02-20 20:28:42 GMT 40.300919 -79.192322 33,000 86 611 -64
2020-02-20 20:28:33 GMT 40.299202 -79.229843 33,000 86 610 64
2020-02-20 20:28:26 GMT 40.298172 -79.252686 33,000 86 611 -64
2020-02-20 20:28:22 GMT 40.297485 -79.267090 33,000 86 611 -128
2020-02-20 20:28:11 GMT 40.295570 -79.307930 33,100 86 609 -1216
2020-02-20 20:28:04 GMT 40.294220 -79.337273 33,350 86 607 -1856
2020-02-20 20:28:00 GMT 40.293800 -79.346008 33,425 86 605 -1856
2020-02-20 20:27:51 GMT 40.292034 -79.383835 33,750 86 600 -1792
2020-02-20 20:27:47 GMT 40.291397 -79.396240 33,850 86 595 -1152
2020-02-20 20:27:40 GMT 40.289429 -79.437866 34,100 86 595 -1152
2020-02-20 20:27:29 GMT 40.287827 -79.471008 34,275 86 594 -1216
2020-02-20 20:27:19 GMT 40.286728 -79.493202 34,450 86 593 -1152
2020-02-20 20:27:16 GMT 40.286121 -79.506058 34,475 86 593 -1152
2020-02-20 20:27:08 GMT 40.284576 -79.536865 34,625 86 593 -1152
2020-02-20 20:26:59 GMT 40.283203 -79.565430 34,800 86 593 -1152
2020-02-20 20:26:56 GMT 40.282745 -79.575439 34,825 86 592 -1088
2020-02-20 20:26:47 GMT 40.280861 -79.613235 35,000 86 590 -128
2020-02-20 20:26:36 GMT 40.278946 -79.652283 35,000 86 590 64
2020-02-20 20:26:27 GMT 40.277573 -79.679443 35,000 86 590 0
2020-02-20 20:26:24 GMT 40.277042 -79.689957 35,000 86 590 0
2020-02-20 20:26:18 GMT 40.275146 -79.727844 35,000 86 589 0
2020-02-20 20:26:07 GMT 40.273876 -79.752754 35,000 86 588 0
2020-02-20 20:26:03 GMT 40.273087 -79.767639 35,000 86 588 -64
2020-02-20 20:25:57 GMT 40.271923 -79.791016 35,000 86 587 0
2020-02-20 20:25:52 GMT 40.271210 -79.804504 35,000 86 587 0
2020-02-20 20:25:46 GMT 40.269974 -79.828552 35,000 86 587 0
2020-02-20 20:25:43 GMT 40.269333 -79.841309 35,000 86 587 0
2020-02-20 20:25:32 GMT 40.267311 -79.880409 35,000 86 587 0
2020-02-20 20:25:25 GMT 40.266220 -79.901367 35,000 86 587 0
2020-02-20 20:25:20 GMT 40.265350 -79.917908 35,000 86 587 0
2020-02-20 20:25:15 GMT 40.264381 -79.937019 35,000 86 587 0
2020-02-20 20:25:11 GMT 40.263496 -79.953812 35,000 86 587 0
2020-02-20 20:25:05 GMT 40.262470 -79.973663 35,000 86 587 -64
2020-02-20 20:25:00 GMT 40.261494 -79.992020 35,000 86 586 64
2020-02-20 20:24:53 GMT 40.260376 -80.013306 35,000 86 586 64
2020-02-20 20:24:46 GMT 40.259075 -80.037582 35,000 85 586 0
2020-02-20 20:24:43 GMT 40.258469 -80.048882 35,000 85 586 -64
2020-02-20 20:24:38 GMT 40.257442 -80.068359 35,000 85 586 0
2020-02-20 20:24:34 GMT 40.256561 -80.084213 35,000 85 586 0
2020-02-20 20:24:28 GMT 40.255444 -80.105438 35,000 85 586 0
2020-02-20 20:24:23 GMT 40.254604 -80.120735 35,000 85 586 0
2020-02-20 20:24:16 GMT 40.253395 -80.143456 35,000 85 585 -64
2020-02-20 20:24:11 GMT 40.252186 -80.166176 35,000 85 585 64
2020-02-20 20:24:07 GMT 40.251389 -80.180908 35,000 85 585 0
2020-02-20 20:24:02 GMT 40.250519 -80.196533 35,000 85 585 64
2020-02-20 20:23:56 GMT 40.249374 -80.217651 35,000 85 585 0
2020-02-20 20:23:50 GMT 40.248322 -80.236710 35,000 85 584 0
2020-02-20 20:23:42 GMT 40.246552 -80.269112 35,000 85 584 0
2020-02-20 20:23:35 GMT 40.245201 -80.293083 35,000 85 584 0
2020-02-20 20:23:30 GMT 40.244476 -80.306458 35,000 85 584 0
2020-02-20 20:23:24 GMT 40.243149 -80.330444 35,000 85 584 -64
2020-02-20 20:23:20 GMT 40.242550 -80.340767 35,000 85 584 64
2020-02-20 20:23:10 GMT 40.240547 -80.376228 35,000 85 584 -64
2020-02-20 20:23:05 GMT 40.239384 -80.397324 35,000 85 584 0
2020-02-20 20:22:59 GMT 40.237747 -80.426147 35,000 85 583 0
2020-02-20 20:22:52 GMT 40.236774 -80.443764 35,000 85 583 0
2020-02-20 20:22:49 GMT 40.235687 -80.462708 35,000 85 583 0
2020-02-20 20:22:38 GMT 40.234268 -80.488037 35,000 85 583 0
2020-02-20 20:22:29 GMT 40.232117 -80.525940 35,000 85 582 0
2020-02-20 20:22:18 GMT 40.230118 -80.560310 35,000 85 582 0
2020-02-20 20:22:08 GMT 40.227978 -80.596642 35,000 85 581 0
2020-02-20 20:21:56 GMT 40.225601 -80.637337 35,000 85 581 0
2020-02-20 20:21:48 GMT 40.223228 -80.678101 35,000 85 580 0
2020-02-20 20:21:36 GMT 40.220528 -80.723984 35,000 85 580 0
2020-02-20 20:21:26 GMT 40.219391 -80.743103 35,000 85 580 0
2020-02-20 20:21:16 GMT 40.217224 -80.780098 35,000 85 579 0
2020-02-20 20:21:04 GMT 40.215034 -80.816238 35,000 85 579 0
2020-02-20 20:20:54 GMT 40.212708 -80.855568 35,000 85 579 -64
2020-02-20 20:20:44 GMT 40.210556 -80.891113 35,000 85 579 0
2020-02-20 20:20:32 GMT 40.208286 -80.928040 35,000 85 579 0
2020-02-20 20:20:22 GMT 40.205978 -80.966370 35,000 85 579 0
2020-02-20 20:20:12 GMT 40.203674 -81.003380 35,000 85 580 0
2020-02-20 20:20:03 GMT 40.201862 -81.032722 35,000 85 580 64
2020-02-20 20:20:00 GMT 40.201447 -81.039001 35,000 85 580 64
2020-02-20 20:19:53 GMT 40.199524 -81.069763 35,000 85 579 0
2020-02-20 20:19:40 GMT 40.196777 -81.114502 35,000 85 579 0
2020-02-20 20:19:32 GMT 40.195019 -81.143150 35,000 85 579 0
2020-02-20 20:19:28 GMT 40.194534 -81.150818 35,000 85 579 0
2020-02-20 20:19:21 GMT 40.192841 -81.177307 35,000 85 579 -64
2020-02-20 20:19:18 GMT 40.191971 -81.191223 35,000 85 579 0
2020-02-20 20:19:08 GMT 40.189728 -81.226257 35,000 85 580 0
2020-02-20 20:19:01 GMT 40.188175 -81.250641 35,000 85 579 -64
2020-02-20 20:18:56 GMT 40.187302 -81.263916 35,000 85 579 0
2020-02-20 20:18:49 GMT 40.185791 -81.287231 35,000 85 579 0
2020-02-20 20:18:46 GMT 40.184963 -81.300888 35,000 85 579 -64
2020-02-20 20:18:42 GMT 40.184170 -81.313438 35,000 85 579 0
2020-02-20 20:18:36 GMT 40.182587 -81.338158 35,000 85 579 0
2020-02-20 20:18:31 GMT 40.181473 -81.355255 35,000 85 580 0
2020-02-20 20:18:28 GMT 40.181053 -81.362190 35,000 85 579 0
2020-02-20 20:18:22 GMT 40.179657 -81.383545 35,000 85 579 0
2020-02-20 20:18:15 GMT 40.177235 -81.420677 35,000 85 579 0
2020-02-20 20:18:07 GMT 40.176258 -81.435966 35,000 85 579 0
2020-02-20 20:18:04 GMT 40.175354 -81.449219 35,000 85 579 0
2020-02-20 20:18:01 GMT 40.174942 -81.456177 35,000 85 578 0
2020-02-20 20:17:55 GMT 40.172379 -81.495056 35,000 85 578 0
2020-02-20 20:17:50 GMT 40.172379 -81.495056 35,000 85 578 0
2020-02-20 20:17:46 GMT 40.171371 -81.510376 35,000 85 578 0
2020-02-20 20:17:40 GMT 40.169041 -81.545769 35,000 85 578 0
2020-02-20 20:17:32 GMT 40.168110 -81.559380 35,000 85 577 0
2020-02-20 20:17:29 GMT 40.167709 -81.565918 35,000 85 577 0
2020-02-20 20:17:25 GMT 40.166656 -81.581299 35,000 85 577 0
2020-02-20 20:17:20 GMT 40.165558 -81.597961 35,000 85 577 0
2020-02-20 20:17:15 GMT 40.164108 -81.619431 35,000 85 577 0
2020-02-20 20:17:11 GMT 40.163177 -81.633286 35,000 85 577 -64
2020-02-20 20:17:05 GMT 40.162125 -81.649231 35,000 85 577 0
2020-02-20 20:17:00 GMT 40.160614 -81.671448 35,000 84 576 64
2020-02-20 20:16:54 GMT 40.159103 -81.693604 35,000 84 576 0
2020-02-20 20:16:48 GMT 40.158142 -81.707397 35,000 84 576 0
2020-02-20 20:16:45 GMT 40.157265 -81.720367 35,000 84 575 0
2020-02-20 20:16:38 GMT 40.155354 -81.748207 35,000 84 575 0
2020-02-20 20:16:33 GMT 40.154572 -81.759827 35,000 84 575 0
2020-02-20 20:16:28 GMT 40.153122 -81.781357 35,000 84 575 0
2020-02-20 20:16:24 GMT 40.152328 -81.792465 35,000 84 575 0
2020-02-20 20:16:16 GMT 40.150589 -81.818054 35,000 84 575 -64
2020-02-20 20:16:11 GMT 40.149303 -81.836662 35,000 84 574 0
2020-02-20 20:16:04 GMT 40.146603 -81.875298 35,000 84 574 -64
2020-02-20 20:15:55 GMT 40.144554 -81.905701 35,000 84 574 0
2020-02-20 20:15:48 GMT 40.143810 -81.916496 35,000 84 575 -64
2020-02-20 20:15:45 GMT 40.143082 -81.927063 35,000 84 575 -64
2020-02-20 20:15:42 GMT 40.142323 -81.937469 35,000 84 575 0
2020-02-20 20:15:39 GMT 40.141388 -81.951393 35,000 84 575 0
2020-02-20 20:15:35 GMT 40.140411 -81.965187 35,000 84 575 0
2020-02-20 20:15:27 GMT 40.138733 -81.989380 35,000 84 575 0
2020-02-20 20:15:24 GMT 40.137756 -82.003517 35,000 84 575 0
2020-02-20 20:15:20 GMT 40.136810 -82.016968 35,000 84 575 0
2020-02-20 20:15:11 GMT 40.134842 -82.044617 35,000 84 575 0
2020-02-20 20:15:06 GMT 40.133606 -82.062561 35,000 84 574 0
2020-02-20 20:15:03 GMT 40.132637 -82.075676 35,000 84 574 0
2020-02-20 20:14:58 GMT 40.131474 -82.092339 35,000 84 574 0
2020-02-20 20:14:52 GMT 40.129986 -82.112999 35,000 84 574 -64
2020-02-20 20:14:48 GMT 40.129074 -82.126038 35,000 84 574 0
2020-02-20 20:14:45 GMT 40.127472 -82.148010 35,000 84 574 0
2020-02-20 20:14:42 GMT 40.126694 -82.159180 35,000 84 574 0
2020-02-20 20:14:38 GMT 40.126694 -82.159180 35,000 84 574 0
2020-02-20 20:14:31 GMT 40.124725 -82.186768 35,000 84 574 0
2020-02-20 20:14:28 GMT 40.124073 -82.195709 35,000 84 574 0
2020-02-20 20:14:23 GMT 40.123032 -82.210205 35,000 84 574 0
2020-02-20 20:14:20 GMT 40.122070 -82.223755 35,000 84 574 64
2020-02-20 20:14:17 GMT 40.121338 -82.233643 35,000 84 574 0
2020-02-20 20:14:12 GMT 40.120056 -82.251587 35,000 84 574 -64
2020-02-20 20:14:09 GMT 40.119553 -82.258484 35,000 84 574 -64
2020-02-20 20:14:06 GMT 40.118813 -82.268623 35,000 84 574 -64
2020-02-20 20:14:01 GMT 40.117538 -82.286072 35,000 84 575 -64
2020-02-20 20:13:57 GMT 40.116390 -82.301826 35,000 84 575 0
2020-02-20 20:13:51 GMT 40.114700 -82.324707 35,000 84 575 64
2020-02-20 20:13:48 GMT 40.114151 -82.332764 35,000 84 576 64
2020-02-20 20:13:45 GMT 40.113224 -82.344780 35,000 84 576 0
2020-02-20 20:13:40 GMT 40.110992 -82.375237 35,000 84 576 0
2020-02-20 20:13:35 GMT 40.110992 -82.375237 35,000 84 576 0
2020-02-20 20:13:29 GMT 40.109455 -82.395966 35,000 84 576 64
2020-02-20 20:13:25 GMT 40.108521 -82.409119 35,000 84 576 -64
2020-02-20 20:13:19 GMT 40.106873 -82.430969 35,000 84 576 64
2020-02-20 20:13:14 GMT 40.105728 -82.446167 35,000 84 576 0
2020-02-20 20:13:08 GMT 40.104080 -82.468628 35,000 84 576 0
2020-02-20 20:13:05 GMT 40.102985 -82.483101 35,000 84 576 0
2020-02-20 20:12:59 GMT 40.101471 -82.503174 35,000 84 576 0
2020-02-20 20:12:52 GMT 40.099869 -82.523987 35,000 84 576 64
2020-02-20 20:12:47 GMT 40.098560 -82.541283 35,000 84 576 0
2020-02-20 20:12:44 GMT 40.097672 -82.553040 35,000 84 575 -64
2020-02-20 20:12:41 GMT 40.096977 -82.562004 35,000 84 576 -64
2020-02-20 20:12:38 GMT 40.096233 -82.571686 35,000 83 576 0
2020-02-20 20:12:34 GMT 40.094559 -82.589600 35,000 82 576 64
2020-02-20 20:12:31 GMT 40.093414 -82.599915 35,000 81 575 0
2020-02-20 20:12:26 GMT 40.091583 -82.613525 35,000 79 575 0
2020-02-20 20:12:23 GMT 40.089386 -82.626770 35,000 76 574 0
2020-02-20 20:12:17 GMT 40.085155 -82.647522 35,000 73 573 -64
2020-02-20 20:12:13 GMT 40.082546 -82.658386 35,000 71 572 0
2020-02-20 20:12:06 GMT 40.076202 -82.680725 35,000 68 570 64
2020-02-20 20:12:02 GMT 40.067368 -82.705872 35,000 63 567 -64
2020-02-20 20:11:55 GMT 40.059814 -82.725342 35,000 63 566 0
2020-02-20 20:11:52 GMT 40.054230 -82.739685 35,000 63 567 0
2020-02-20 20:11:47 GMT 40.054230 -82.739685 35,000 63 567 0
2020-02-20 20:11:44 GMT 40.051498 -82.746712 35,000 63 567 0
2020-02-20 20:11:39 GMT 40.045307 -82.762505 35,000 63 567 0
2020-02-20 20:11:36 GMT 40.041115 -82.773308 35,000 63 567 0
2020-02-20 20:11:31 GMT 40.034039 -82.791534 35,000 63 567 0
2020-02-20 20:11:25 GMT 40.027496 -82.808228 35,000 63 567 0
2020-02-20 20:11:20 GMT 40.021820 -82.822876 35,000 63 567 0
2020-02-20 20:11:17 GMT 40.018936 -82.830139 35,000 63 567 64
2020-02-20 20:11:14 GMT 40.011429 -82.849487 35,000 63 567 0
2020-02-20 20:11:08 GMT 40.007584 -82.859436 35,000 63 567 0
2020-02-20 20:11:04 GMT 40.002617 -82.872246 35,000 63 567 0
2020-02-20 20:10:58 GMT 39.996689 -82.887451 35,000 63 567 0
2020-02-20 20:10:55 GMT 39.991974 -82.899658 35,000 63 567 0
2020-02-20 20:10:52 GMT 39.988678 -82.908203 35,000 63 567 0
2020-02-20 20:10:49 GMT 39.986649 -82.913383 35,000 63 567 0
2020-02-20 20:10:46 GMT 39.982086 -82.925293 35,000 63 567 0
2020-02-20 20:10:43 GMT 39.972198 -82.950867 35,000 63 567 64
2020-02-20 20:10:38 GMT 39.972198 -82.950867 35,000 63 567 0
2020-02-20 20:10:33 GMT 39.967285 -82.963570 35,000 63 567 64
2020-02-20 20:10:29 GMT 39.962070 -82.977112 35,000 63 567 0
2020-02-20 20:10:26 GMT 39.957882 -82.987976 35,000 63 567 64
2020-02-20 20:10:21 GMT 39.953178 -83.000336 35,000 63 568 0
2020-02-20 20:10:17 GMT 39.947174 -83.015938 35,000 63 568 -64
2020-02-20 20:10:14 GMT 39.943775 -83.024803 35,000 63 569 0
2020-02-20 20:10:11 GMT 39.935623 -83.046204 35,000 63 569 0
2020-02-20 20:10:07 GMT 39.935623 -83.046204 35,000 63 570 0
2020-02-20 20:10:02 GMT 39.927704 -83.067017 35,000 63 570 -64
2020-02-20 20:09:55 GMT 39.922688 -83.080109 35,000 63 570 0
2020-02-20 20:09:52 GMT 39.918079 -83.092224 35,000 63 570 0
2020-02-20 20:09:49 GMT 39.915703 -83.098450 35,000 63 570 0
2020-02-20 20:09:45 GMT 39.911224 -83.110260 35,000 63 570 0
2020-02-20 20:09:42 GMT 39.907696 -83.119446 35,000 63 570 0
2020-02-20 20:09:39 GMT 39.899002 -83.142204 35,000 63 570 64
2020-02-20 20:09:36 GMT 39.899002 -83.142204 35,000 63 570 64
2020-02-20 20:09:30 GMT 39.892288 -83.159851 35,000 63 571 -64
2020-02-20 20:09:27 GMT 39.889961 -83.165894 35,000 63 570 -128
2020-02-20 20:09:22 GMT 39.882885 -83.184326 35,000 63 570 64
2020-02-20 20:09:18 GMT 39.879532 -83.193176 35,000 63 570 0
2020-02-20 20:09:15 GMT 39.875061 -83.204834 35,000 63 570 0
2020-02-20 20:09:09 GMT 39.867508 -83.224480 35,000 63 570 0
2020-02-20 20:09:03 GMT 39.861610 -83.239868 35,000 63 570 64
2020-02-20 20:09:00 GMT 39.857666 -83.250153 35,000 63 570 64
2020-02-20 20:08:57 GMT 39.854534 -83.258362 35,000 63 570 64
2020-02-20 20:08:51 GMT 39.846313 -83.279831 35,000 63 571 -64
2020-02-20 20:08:47 GMT 39.842804 -83.289062 35,000 64 571 -64
2020-02-20 20:08:41 GMT 39.835236 -83.309204 35,000 64 571 -64
2020-02-20 20:08:38 GMT 39.832283 -83.317200 35,000 64 572 0
2020-02-20 20:08:35 GMT 39.827957 -83.329269 35,000 67 573 0
2020-02-20 20:08:30 GMT 39.822647 -83.344971 35,000 67 573 0
2020-02-20 20:08:26 GMT 39.819717 -83.354347 35,000 72 575 0
2020-02-20 20:08:23 GMT 39.816036 -83.366821 35,000 69 574 64
2020-02-20 20:08:19 GMT 39.812824 -83.378479 35,000 71 576 0
2020-02-20 20:08:16 GMT 39.807266 -83.400146 35,000 71 575 0
2020-02-20 20:08:12 GMT 39.807266 -83.400146 35,000 71 576 64
2020-02-20 20:08:07 GMT 39.802814 -83.417847 35,000 72 575 0
2020-02-20 20:08:02 GMT 39.798252 -83.436035 35,000 72 576 0
2020-02-20 20:07:58 GMT 39.791039 -83.465027 35,000 72 576 0
2020-02-20 20:07:50 GMT 39.788383 -83.475769 35,000 72 576 -64
2020-02-20 20:07:47 GMT 39.786072 -83.485344 35,000 72 576 -64
2020-02-20 20:07:41 GMT 39.779072 -83.516907 35,000 75 577 0
2020-02-20 20:07:37 GMT 39.779072 -83.516907 35,000 75 577 0
2020-02-20 20:07:34 GMT 39.773346 -83.550133 35,000 79 579 0
2020-02-20 20:07:28 GMT 39.773346 -83.550133 35,000 79 579 -64
2020-02-20 20:07:25 GMT 39.771904 -83.560303 35,000 79 579 64
2020-02-20 20:07:20 GMT 39.769669 -83.576660 35,000 79 579 -64
2020-02-20 20:07:16 GMT 39.768082 -83.588402 35,000 79 579 -64
2020-02-20 20:07:13 GMT 39.766876 -83.597168 35,000 79 579 64
2020-02-20 20:07:09 GMT 39.763184 -83.624046 35,000 79 580 -64
2020-02-20 20:07:06 GMT 39.763184 -83.624046 35,000 79 579 64
2020-02-20 20:06:59 GMT 39.758171 -83.660400 35,000 79 580 0
2020-02-20 20:06:54 GMT 39.758171 -83.660400 35,000 79 579 64
2020-02-20 20:06:48 GMT 39.754486 -83.687042 35,000 79 579 64
2020-02-20 20:06:45 GMT 39.753387 -83.694984 35,000 79 579 64
2020-02-20 20:06:36 GMT 39.748260 -83.732124 35,000 79 579 0
2020-02-20 20:06:27 GMT 39.744690 -83.758034 35,000 79 578 0
2020-02-20 20:06:23 GMT 39.743042 -83.770157 35,000 79 578 64
2020-02-20 20:06:15 GMT 39.739506 -83.795532 35,000 79 577 -64
2020-02-20 20:06:12 GMT 39.737915 -83.807114 35,000 79 577 -64
2020-02-20 20:06:05 GMT 39.734245 -83.833435 35,000 79 577 -64
2020-02-20 20:05:57 GMT 39.730499 -83.860191 35,000 79 577 -64
2020-02-20 20:05:50 GMT 39.727959 -83.878601 35,000 79 577 -64
2020-02-20 20:05:43 GMT 39.723862 -83.907784 35,000 79 576 64
2020-02-20 20:05:34 GMT 39.717903 -83.950378 35,000 79 576 0
2020-02-20 20:05:29 GMT 39.717903 -83.950378 35,000 79 576 0
2020-02-20 20:05:22 GMT 39.714088 -83.977600 35,000 79 576 0
2020-02-20 20:05:19 GMT 39.713196 -83.983971 35,000 79 576 0
2020-02-20 20:05:12 GMT 39.709579 -84.009766 35,000 79 576 0
2020-02-20 20:05:09 GMT 39.704311 -84.047180 35,000 79 576 0
2020-02-20 20:05:02 GMT 39.704311 -84.047180 35,000 79 576 64
2020-02-20 20:04:59 GMT 39.702896 -84.057175 35,000 79 576 64
2020-02-20 20:04:55 GMT 39.701706 -84.065590 35,000 79 576 64
2020-02-20 20:04:52 GMT 39.700150 -84.076462 35,000 79 576 -64
2020-02-20 20:04:49 GMT 39.698227 -84.090073 35,000 79 576 0
2020-02-20 20:04:46 GMT 39.696815 -84.100220 35,000 79 576 0
2020-02-20 20:04:41 GMT 39.694199 -84.118614 35,000 79 576 0
2020-02-20 20:04:38 GMT 39.692764 -84.128784 35,000 79 576 0
2020-02-20 20:04:32 GMT 39.690250 -84.146423 35,000 79 576 0
2020-02-20 20:04:28 GMT 39.686691 -84.171272 35,000 79 576 0
2020-02-20 20:04:25 GMT 39.686691 -84.171272 35,000 79 576 0
2020-02-20 20:04:22 GMT 39.685318 -84.181068 35,000 79 576 0
2020-02-20 20:04:17 GMT 39.682617 -84.200058 35,000 79 576 -64
2020-02-20 20:04:13 GMT 39.681221 -84.210022 35,000 79 576 -64
2020-02-20 20:04:08 GMT 39.678589 -84.228592 35,000 79 576 0
2020-02-20 20:04:05 GMT 39.677628 -84.235405 35,000 79 576 64
2020-02-20 20:04:02 GMT 39.675819 -84.247925 35,000 79 576 0
2020-02-20 20:03:55 GMT 39.672516 -84.271057 35,000 79 576 0
2020-02-20 20:03:51 GMT 39.668289 -84.300484 35,000 79 576 -64
2020-02-20 20:03:47 GMT 39.668289 -84.300484 35,000 79 576 -64
2020-02-20 20:03:44 GMT 39.667255 -84.307617 35,000 79 576 -64
2020-02-20 20:03:40 GMT 39.665440 -84.320190 35,000 79 576 0
2020-02-20 20:03:35 GMT 39.662247 -84.342339 35,000 79 576 64
2020-02-20 20:03:32 GMT 39.660831 -84.352417 35,000 79 576 64
2020-02-20 20:03:29 GMT 39.659760 -84.359497 35,000 79 576 0
2020-02-20 20:03:24 GMT 39.657013 -84.378540 35,000 79 576 -64
2020-02-20 20:03:19 GMT 39.653595 -84.402290 35,000 79 576 0
2020-02-20 20:03:12 GMT 39.651333 -84.418091 35,000 79 576 64
2020-02-20 20:03:09 GMT 39.649750 -84.428833 35,000 79 576 64
2020-02-20 20:03:04 GMT 39.646957 -84.447937 35,000 79 577 64
2020-02-20 20:03:00 GMT 39.645676 -84.456741 35,000 79 577 64
2020-02-20 20:02:57 GMT 39.644211 -84.466919 35,000 79 577 64
2020-02-20 20:02:54 GMT 39.642380 -84.479546 35,000 79 577 0
2020-02-20 20:02:51 GMT 39.640862 -84.489990 35,000 79 577 -64
2020-02-20 20:02:42 GMT 39.634644 -84.532509 35,000 79 577 0
2020-02-20 20:02:38 GMT 39.634644 -84.532509 35,000 79 577 0
2020-02-20 20:02:33 GMT 39.631969 -84.551086 35,000 79 577 0
2020-02-20 20:02:29 GMT 39.629826 -84.565857 35,000 79 577 0
2020-02-20 20:02:25 GMT 39.628143 -84.577354 35,000 79 577 64
2020-02-20 20:02:20 GMT 39.625263 -84.597046 35,000 79 577 0
2020-02-20 20:02:17 GMT 39.624573 -84.602074 35,000 79 577 -64
2020-02-20 20:02:14 GMT 39.622559 -84.615623 35,000 79 577 -64
2020-02-20 20:02:09 GMT 39.620041 -84.633118 35,000 79 577 0
2020-02-20 20:02:06 GMT 39.618889 -84.640869 35,000 79 577 0
2020-02-20 20:01:58 GMT 39.614372 -84.671875 35,000 79 577 0
2020-02-20 20:01:49 GMT 39.609833 -84.702621 35,000 79 576 64
2020-02-20 20:01:46 GMT 39.608364 -84.712524 35,000 79 576 0
2020-02-20 20:01:43 GMT 39.606857 -84.722679 35,000 79 576 0
2020-02-20 20:01:40 GMT 39.605438 -84.732414 35,000 79 575 0
2020-02-20 20:01:37 GMT 39.604019 -84.741905 35,000 79 576 64
2020-02-20 20:01:26 GMT 39.598618 -84.778450 35,000 79 576 -64
2020-02-20 20:01:23 GMT 39.597706 -84.784607 35,000 79 576 0
2020-02-20 20:01:19 GMT 39.594818 -84.804245 35,000 79 576 0
2020-02-20 20:01:15 GMT 39.592850 -84.817558 35,000 79 575 0
2020-02-20 20:01:12 GMT 39.591934 -84.823730 35,000 79 575 0
2020-02-20 20:01:07 GMT 39.588909 -84.844116 35,000 79 574 64
2020-02-20 20:01:04 GMT 39.587929 -84.850647 35,000 79 575 -64
2020-02-20 20:01:01 GMT 39.586674 -84.858948 35,000 79 575 0
2020-02-20 20:00:58 GMT 39.584484 -84.873718 35,000 79 575 0
2020-02-20 20:00:54 GMT 39.581085 -84.896545 35,000 79 575 0
2020-02-20 20:00:47 GMT 39.579224 -84.908997 35,000 79 575 64
2020-02-20 20:00:44 GMT 39.576244 -84.929199 35,000 79 574 64
2020-02-20 20:00:35 GMT 39.572754 -84.952621 35,000 79 574 64
2020-02-20 20:00:32 GMT 39.569031 -84.977661 35,000 79 574 64
2020-02-20 20:00:27 GMT 39.566982 -84.991272 35,000 79 574 0
2020-02-20 20:00:23 GMT 39.566982 -84.991272 35,000 79 574 -64
2020-02-20 20:00:20 GMT 39.565704 -84.999786 35,000 78 573 64
2020-02-20 20:00:16 GMT 39.563770 -85.012817 35,000 79 574 0
2020-02-20 20:00:13 GMT 39.562325 -85.022278 35,000 79 573 64
2020-02-20 20:00:06 GMT 39.556183 -85.063141 35,000 79 573 -64
2020-02-20 20:00:03 GMT 39.555130 -85.070061 35,000 79 573 0
2020-02-20 19:59:55 GMT 39.553017 -85.084229 35,000 79 573 64
2020-02-20 19:59:52 GMT 39.551620 -85.093628 35,000 79 573 64
2020-02-20 19:59:44 GMT 39.547569 -85.120483 35,000 79 572 0
2020-02-20 19:59:41 GMT 39.545654 -85.133293 35,000 78 572 0
2020-02-20 19:59:36 GMT 39.543331 -85.148682 35,000 78 572 -64
2020-02-20 19:59:33 GMT 39.540447 -85.167542 35,000 78 571 -64
2020-02-20 19:59:30 GMT 39.540447 -85.167542 35,000 78 571 0
2020-02-20 19:59:24 GMT 39.536911 -85.191093 35,000 78 571 0
2020-02-20 19:59:18 GMT 39.534161 -85.209167 35,000 78 570 0
2020-02-20 19:59:15 GMT 39.532837 -85.217903 35,000 78 570 64
2020-02-20 19:59:11 GMT 39.530251 -85.234619 35,000 78 570 64
2020-02-20 19:59:08 GMT 39.528809 -85.244019 35,000 78 570 64
2020-02-20 19:59:02 GMT 39.525696 -85.264412 35,000 78 570 64
2020-02-20 19:58:59 GMT 39.524387 -85.273132 35,000 78 570 0
2020-02-20 19:58:54 GMT 39.522400 -85.286148 35,000 78 570 -64
2020-02-20 19:58:50 GMT 39.519562 -85.304893 35,000 78 570 0
2020-02-20 19:58:47 GMT 39.515488 -85.331650 35,000 78 570 -64
2020-02-20 19:58:42 GMT 39.515488 -85.331650 35,000 78 570 0
2020-02-20 19:58:38 GMT 39.513771 -85.342712 35,000 78 570 64
2020-02-20 19:58:33 GMT 39.511677 -85.356384 35,000 78 570 64
2020-02-20 19:58:29 GMT 39.508839 -85.375000 35,000 78 570 0
2020-02-20 19:58:26 GMT 39.507580 -85.383118 35,000 78 570 0
2020-02-20 19:58:21 GMT 39.502762 -85.414581 35,000 78 571 0
2020-02-20 19:58:17 GMT 39.501808 -85.420776 35,000 78 571 0
2020-02-20 19:58:11 GMT 39.499695 -85.434761 35,000 78 571 64
2020-02-20 19:58:07 GMT 39.497711 -85.447510 35,000 78 572 0
2020-02-20 19:58:04 GMT 39.496765 -85.453568 35,000 78 572 0
2020-02-20 19:58:00 GMT 39.493881 -85.472321 35,000 78 572 0
2020-02-20 19:57:56 GMT 39.492233 -85.483070 35,000 78 572 0
2020-02-20 19:57:50 GMT 39.488708 -85.505814 35,000 78 571 -64
2020-02-20 19:57:46 GMT 39.483948 -85.536804 35,000 78 572 0
2020-02-20 19:57:41 GMT 39.483948 -85.536804 35,000 78 572 64
2020-02-20 19:57:37 GMT 39.482395 -85.546814 35,000 78 572 0
2020-02-20 19:57:34 GMT 39.480652 -85.557999 35,000 78 572 0
2020-02-20 19:57:28 GMT 39.478134 -85.574303 35,000 78 572 -64
2020-02-20 19:57:25 GMT 39.476028 -85.587738 35,000 78 573 -64
2020-02-20 19:57:18 GMT 39.472202 -85.612549 35,000 78 572 0
2020-02-20 19:57:14 GMT 39.467880 -85.640038 35,000 78 572 0
2020-02-20 19:57:09 GMT 39.467880 -85.640038 35,000 78 572 -64
2020-02-20 19:57:05 GMT 39.465363 -85.656219 35,000 78 572 64
2020-02-20 19:56:57 GMT 39.458981 -85.697083 35,000 78 572 64
2020-02-20 19:56:52 GMT 39.458981 -85.697083 35,000 78 572 64
2020-02-20 19:56:46 GMT 39.455933 -85.716522 35,000 78 573 0
2020-02-20 19:56:43 GMT 39.454285 -85.727097 35,000 78 573 64
2020-02-20 19:56:39 GMT 39.451859 -85.742493 35,000 78 573 0
2020-02-20 19:56:36 GMT 39.450367 -85.752014 35,000 78 573 0
2020-02-20 19:56:33 GMT 39.447739 -85.768768 35,000 78 573 -64
2020-02-20 19:56:24 GMT 39.444397 -85.790268 35,000 78 574 0
2020-02-20 19:56:21 GMT 39.442410 -85.803040 35,000 78 573 64
2020-02-20 19:56:17 GMT 39.440369 -85.815758 35,000 78 574 -64
2020-02-20 19:56:13 GMT 39.438263 -85.829193 35,000 78 574 -64
2020-02-20 19:56:10 GMT 39.435379 -85.847351 35,000 78 567 64
2020-02-20 19:56:01 GMT 39.431030 -85.874870 35,000 78 574 0
2020-02-20 19:55:57 GMT 39.429653 -85.883606 35,000 78 574 64
2020-02-20 19:55:52 GMT 39.426773 -85.901680 35,000 78 573 0
2020-02-20 19:55:49 GMT 39.425880 -85.907471 35,000 78 573 0
2020-02-20 19:55:42 GMT 39.420593 -85.940613 35,000 78 573 0
2020-02-20 19:55:36 GMT 39.418488 -85.953987 35,000 78 572 -64
2020-02-20 19:55:33 GMT 39.416977 -85.963478 35,000 78 572 0
2020-02-20 19:55:29 GMT 39.414642 -85.978165 35,000 78 572 0
2020-02-20 19:55:21 GMT 39.410614 -86.003601 35,000 78 570 0
2020-02-20 19:55:18 GMT 39.409264 -86.012329 35,000 78 571 0
2020-02-20 19:55:11 GMT 39.403538 -86.048401 35,000 78 570 64
2020-02-20 19:55:08 GMT 39.403538 -86.048401 35,000 78 570 64
2020-02-20 19:55:00 GMT 39.399673 -86.072746 35,000 78 568 64
2020-02-20 19:54:57 GMT 39.398232 -86.081726 35,000 78 568 64
2020-02-20 19:54:50 GMT 39.393993 -86.108215 35,000 78 566 64
2020-02-20 19:54:44 GMT 39.390930 -86.127441 35,000 78 563 -64
2020-02-20 19:54:41 GMT 39.387543 -86.148575 35,000 78 564 -128
2020-02-20 19:54:38 GMT 39.387543 -86.148575 35,000 78 561 0
2020-02-20 19:54:29 GMT 39.383007 -86.176819 35,000 78 561 0
2020-02-20 19:54:26 GMT 39.381638 -86.185356 35,000 78 561 0
2020-02-20 19:54:23 GMT 39.380074 -86.195190 35,000 78 560 -64
2020-02-20 19:54:20 GMT 39.378586 -86.204346 35,000 78 559 0
2020-02-20 19:54:17 GMT 39.376675 -86.216125 35,000 78 559 0
2020-02-20 19:54:14 GMT 39.374863 -86.227211 35,000 78 557 -64
2020-02-20 19:54:10 GMT 39.371475 -86.247993 35,000 78 557 -64
2020-02-20 19:54:07 GMT 39.371475 -86.247993 35,000 78 555 -64
2020-02-20 19:53:59 GMT 39.366714 -86.277222 35,000 78 553 64
2020-02-20 19:53:55 GMT 39.364975 -86.287994 35,000 78 553 64
2020-02-20 19:53:49 GMT 39.362385 -86.304077 35,000 78 551 0
2020-02-20 19:53:45 GMT 39.359940 -86.319099 35,000 78 550 64
2020-02-20 19:53:42 GMT 39.358292 -86.329315 35,000 78 549 64
2020-02-20 19:53:36 GMT 39.355591 -86.346031 34,950 78 547 -64
2020-02-20 19:53:33 GMT 39.354050 -86.355469 35,000 78 546 -64
2020-02-20 19:53:30 GMT 39.352478 -86.365082 35,000 78 545 0
2020-02-20 19:53:27 GMT 39.351242 -86.372780 35,000 78 545 0
2020-02-20 19:53:24 GMT 39.348839 -86.387512 34,775 78 539 384
2020-02-20 19:53:21 GMT 39.347813 -86.393799 35,000 78 544 -64
2020-02-20 19:53:18 GMT 39.343857 -86.418030 35,000 78 541 128
2020-02-20 19:53:14 GMT 39.342274 -86.427856 35,000 78 541 256
2020-02-20 19:53:11 GMT 39.342274 -86.427856 35,000 78 540 320
2020-02-20 19:53:08 GMT 39.338837 -86.448906 34,925 78 540 704
2020-02-20 19:53:01 GMT 39.337830 -86.455116 34,925 78 540 704
2020-02-20 19:52:58 GMT 39.335541 -86.469093 34,850 78 540 704
2020-02-20 19:52:55 GMT 39.334122 -86.477928 34,825 78 540 704
2020-02-20 19:52:52 GMT 39.332775 -86.486145 34,775 78 540 768
2020-02-20 19:52:49 GMT 39.331566 -86.493713 34,775 78 540 704
2020-02-20 19:52:45 GMT 39.328766 -86.510704 34,700 78 540 704
2020-02-20 19:52:42 GMT 39.327236 -86.520142 34,675 78 540 704
2020-02-20 19:52:39 GMT 39.326111 -86.526825 34,625 78 540 704
2020-02-20 19:52:36 GMT 39.324955 -86.534058 34,625 78 540 704
2020-02-20 19:52:33 GMT 39.323181 -86.544800 34,575 78 540 704
2020-02-20 19:52:30 GMT 39.321899 -86.552383 34,575 78 540 704
2020-02-20 19:52:27 GMT 39.319557 -86.566895 34,525 78 540 512
2020-02-20 19:52:22 GMT 39.315353 -86.592384 34,475 78 539 384
2020-02-20 19:52:19 GMT 39.315353 -86.592384 34,450 78 539 384
2020-02-20 19:52:16 GMT 39.312607 -86.609047 34,400 78 538 1088
2020-02-20 19:52:13 GMT 39.311222 -86.617249 34,400 78 538 1088
2020-02-20 19:52:10 GMT 39.311222 -86.617249 34,400 78 538 384
2020-02-20 19:52:06 GMT 39.308990 -86.631042 34,375 78 538 448
2020-02-20 19:52:02 GMT 39.306793 -86.644333 34,325 77 537 640
2020-02-20 19:51:59 GMT 39.304798 -86.656250 34,250 78 538 1088
2020-02-20 19:51:55 GMT 39.303543 -86.663818 34,250 78 538 1088
2020-02-20 19:51:51 GMT 39.300110 -86.684517 34,125 78 539 1280
2020-02-20 19:51:45 GMT 39.298141 -86.696411 34,025 77 540 1344
2020-02-20 19:51:42 GMT 39.296513 -86.706360 33,950 77 542 1280
2020-02-20 19:51:39 GMT 39.294891 -86.716042 33,900 77 542 1280
2020-02-20 19:51:35 GMT 39.291019 -86.739502 33,800 78 543 1216
2020-02-20 19:51:32 GMT 39.291019 -86.739502 33,750 78 544 1152
2020-02-20 19:51:28 GMT 39.289158 -86.750732 33,725 77 545 1088
2020-02-20 19:51:24 GMT 39.287155 -86.763031 33,650 77 546 704
2020-02-20 19:51:20 GMT 39.284592 -86.778320 33,625 77 546 640
2020-02-20 19:51:17 GMT 39.283768 -86.783394 33,600 77 546 640
2020-02-20 19:51:14 GMT 39.281708 -86.795937 33,550 77 546 640
2020-02-20 19:51:08 GMT 39.277287 -86.822266 33,500 77 546 384
2020-02-20 19:51:05 GMT 39.275940 -86.830322 33,475 77 545 320
2020-02-20 19:50:59 GMT 39.273701 -86.843811 33,450 77 544 448
2020-02-20 19:50:56 GMT 39.271912 -86.854324 33,425 77 543 640
2020-02-20 19:50:53 GMT 39.270538 -86.862549 33,400 77 544 640
2020-02-20 19:50:47 GMT 39.267094 -86.883057 33,350 77 543 640
2020-02-20 19:50:43 GMT 39.262161 -86.912605 33,025 77 541 640
2020-02-20 19:50:38 GMT 39.262161 -86.912605 33,250 77 542 640
2020-02-20 19:50:35 GMT 39.260761 -86.920959 33,200 77 542 640
2020-02-20 19:50:32 GMT 39.259369 -86.929085 33,175 77 541 640
2020-02-20 19:50:29 GMT 39.257595 -86.939880 33,025 77 540 576
2020-02-20 19:50:26 GMT 39.256210 -86.947952 33,125 77 541 640
2020-02-20 19:50:21 GMT 39.252476 -86.970215 33,050 77 540 640
2020-02-20 19:50:18 GMT 39.252476 -86.970215 33,050 77 540 576
2020-02-20 19:50:15 GMT 39.250610 -86.981262 33,025 77 539 576
2020-02-20 19:50:12 GMT 39.249023 -86.990761 32,975 77 539 576
2020-02-20 19:50:09 GMT 39.247215 -87.001282 32,975 77 538 640
2020-02-20 19:50:05 GMT 39.244839 -87.015320 32,900 77 538 640
2020-02-20 19:50:00 GMT 39.242661 -87.028198 32,875 77 537 640
2020-02-20 19:49:57 GMT 39.240837 -87.039062 32,800 77 536 640
2020-02-20 19:49:53 GMT 39.237206 -87.060242 32,775 77 535 640
2020-02-20 19:49:50 GMT 39.237206 -87.060242 32,750 77 536 640
2020-02-20 19:49:47 GMT 39.235886 -87.068146 32,750 77 535 640
2020-02-20 19:49:44 GMT 39.233852 -87.079956 32,700 77 535 640
2020-02-20 19:49:39 GMT 39.229988 -87.102539 32,625 77 534 640
2020-02-20 19:49:31 GMT 39.227097 -87.119316 32,575 77 532 640
2020-02-20 19:49:26 GMT 39.224682 -87.133362 32,525 77 532 640
2020-02-20 19:49:23 GMT 39.220917 -87.154900 32,450 77 531 640
2020-02-20 19:49:16 GMT 39.219002 -87.165588 32,425 77 530 576
2020-02-20 19:49:12 GMT 39.217094 -87.176697 32,350 77 529 640
2020-02-20 19:49:09 GMT 39.215744 -87.184456 32,350 77 529 576
2020-02-20 19:49:05 GMT 39.212997 -87.201355 32,125 78 529 640
2020-02-20 19:49:02 GMT 39.211533 -87.210609 32,275 78 529 640
2020-02-20 19:48:58 GMT 39.209610 -87.222969 32,225 78 528 576
2020-02-20 19:48:55 GMT 39.208763 -87.228516 32,175 78 526 704
2020-02-20 19:48:52 GMT 39.207600 -87.235901 32,200 78 527 576
2020-02-20 19:48:49 GMT 39.205765 -87.247566 32,125 78 526 768
2020-02-20 19:48:44 GMT 39.203064 -87.264526 32,075 78 525 896
2020-02-20 19:48:41 GMT 39.201359 -87.275146 32,025 78 525 896
2020-02-20 19:48:38 GMT 39.200382 -87.281311 31,975 78 525 1088
2020-02-20 19:48:35 GMT 39.198944 -87.290497 31,900 78 525 896
2020-02-20 19:48:32 GMT 39.197495 -87.299438 31,900 78 525 1024
2020-02-20 19:48:27 GMT 39.195465 -87.312592 31,800 78 525 1024
2020-02-20 19:48:24 GMT 39.193588 -87.324654 31,775 78 525 1088
2020-02-20 19:48:21 GMT 39.192032 -87.334679 31,725 78 524 1152
2020-02-20 19:48:17 GMT 39.190567 -87.344231 31,650 78 525 1344
2020-02-20 19:48:14 GMT 39.188976 -87.354919 31,575 79 525 1344
2020-02-20 19:48:11 GMT 39.187534 -87.364441 31,525 79 526 1344
2020-02-20 19:48:07 GMT 39.185673 -87.376770 30,750 79 531 1408
2020-02-20 19:48:04 GMT 39.181297 -87.406616 31,275 79 527 1408
2020-02-20 19:47:58 GMT 39.181297 -87.406616 31,200 79 528 1408
2020-02-20 19:47:54 GMT 39.179527 -87.418701 31,125 79 529 1408
2020-02-20 19:47:51 GMT 39.178410 -87.426392 31,000 79 529 1408
2020-02-20 19:47:47 GMT 39.176651 -87.438156 30,925 79 530 1408
2020-02-20 19:47:44 GMT 39.175106 -87.448669 30,825 79 530 1408
2020-02-20 19:47:41 GMT 39.173473 -87.459839 30,800 79 530 1408
2020-02-20 19:47:35 GMT 39.171242 -87.474731 30,625 79 531 1408
2020-02-20 19:47:32 GMT 39.169750 -87.484619 30,625 78 531 1280
2020-02-20 19:47:29 GMT 39.167999 -87.496071 30,550 78 531 1408
2020-02-20 19:47:26 GMT 39.166912 -87.503235 30,450 78 532 1216
2020-02-20 19:47:23 GMT 39.165005 -87.515686 30,400 78 532 1216
2020-02-20 19:47:20 GMT 39.163837 -87.523132 30,350 78 532 1216
2020-02-20 19:47:16 GMT 39.159805 -87.549515 30,225 78 533 1152
2020-02-20 19:47:12 GMT 39.159805 -87.549515 30,200 78 533 1152
2020-02-20 19:47:09 GMT 39.158905 -87.555237 30,100 78 533 1216
2020-02-20 19:47:01 GMT 39.153503 -87.590210 29,950 78 533 1152
2020-02-20 19:46:58 GMT 39.153503 -87.590210 29,875 78 533 1152
2020-02-20 19:46:55 GMT 39.151550 -87.602600 29,875 78 532 960
2020-02-20 19:46:51 GMT 39.148315 -87.623131 29,775 78 532 1024
2020-02-20 19:46:47 GMT 39.148315 -87.623131 29,750 78 532 1024
2020-02-20 19:46:43 GMT 39.144894 -87.644836 29,600 78 531 832
2020-02-20 19:46:36 GMT 39.143051 -87.656570 29,600 78 531 832
2020-02-20 19:46:31 GMT 39.139893 -87.676155 29,500 78 530 832
2020-02-20 19:46:26 GMT 39.134232 -87.707764 29,375 75 528 832
2020-02-20 19:46:20 GMT 39.134232 -87.707764 29,375 74 528 832
2020-02-20 19:46:16 GMT 39.132019 -87.718010 29,250 73 527 832
2020-02-20 19:46:12 GMT 39.128784 -87.731873 29,275 72 526 832
2020-02-20 19:46:09 GMT 39.126892 -87.739388 29,225 70 525 576
2020-02-20 19:46:05 GMT 39.123322 -87.752518 29,200 70 524 576
2020-02-20 19:46:00 GMT 39.118637 -87.769592 29,125 70 522 640
2020-02-20 19:45:55 GMT 39.115425 -87.781311 29,100 70 521 640
2020-02-20 19:45:52 GMT 39.112701 -87.791214 29,050 70 520 704
2020-02-20 19:45:49 GMT 39.110306 -87.799988 29,025 70 519 704
2020-02-20 19:45:46 GMT 39.107574 -87.809898 28,975 70 519 704
2020-02-20 19:45:42 GMT 39.105331 -87.818024 28,925 70 518 768
2020-02-20 19:45:39 GMT 39.101807 -87.830795 28,900 70 517 704
2020-02-20 19:45:33 GMT 39.096851 -87.848755 28,825 70 515 576
2020-02-20 19:45:28 GMT 39.093685 -87.860291 28,800 70 514 576
2020-02-20 19:45:25 GMT 39.090843 -87.870667 28,750 70 513 640
2020-02-20 19:45:22 GMT 39.088936 -87.877563 28,600 70 512 768
2020-02-20 19:45:18 GMT 39.085281 -87.890747 28,675 70 511 832
2020-02-20 19:45:15 GMT 39.082932 -87.899353 28,625 70 510 896
2020-02-20 19:45:12 GMT 39.080093 -87.909607 28,575 70 510 832
2020-02-20 19:45:08 GMT 39.077087 -87.920479 28,525 70 509 832
2020-02-20 19:45:04 GMT 39.074249 -87.930748 28,475 70 508 768
2020-02-20 19:45:01 GMT 39.072327 -87.937553 28,450 70 508 832
2020-02-20 19:44:57 GMT 39.069386 -87.948303 28,375 70 506 896
2020-02-20 19:44:54 GMT 39.066147 -87.960068 28,325 70 506 832
2020-02-20 19:44:51 GMT 39.064030 -87.967651 28,300 70 506 768
2020-02-20 19:44:47 GMT 39.060585 -87.980103 28,250 70 505 640
2020-02-20 19:44:43 GMT 39.058071 -87.989136 28,225 70 502 832
2020-02-20 19:44:40 GMT 39.055885 -87.997009 28,175 70 502 832
2020-02-20 19:44:35 GMT 39.052486 -88.009399 28,125 70 501 896
2020-02-20 19:44:32 GMT 39.049042 -88.021729 28,050 70 501 960
2020-02-20 19:44:29 GMT 39.046852 -88.029602 28,000 70 501 1024
2020-02-20 19:44:25 GMT 39.043736 -88.040833 27,925 70 500 1152
2020-02-20 19:44:19 GMT 39.039684 -88.055359 27,775 70 500 1152
2020-02-20 19:44:16 GMT 39.036613 -88.066589 27,750 70 500 1088
2020-02-20 19:44:12 GMT 39.033493 -88.077759 27,675 70 498 1024
2020-02-20 19:44:08 GMT 39.031540 -88.084740 27,400 70 498 1024
2020-02-20 19:44:05 GMT 39.028381 -88.096199 27,575 70 498 1024
2020-02-20 19:44:02 GMT 39.026371 -88.103455 27,500 70 497 1088
2020-02-20 19:43:59 GMT 39.023342 -88.114319 27,450 70 497 1152
2020-02-20 19:43:54 GMT 39.017303 -88.136024 27,350 70 496 960
2020-02-20 19:43:51 GMT 39.017303 -88.136024 27,325 70 496 960
2020-02-20 19:43:44 GMT 39.012451 -88.153442 27,225 70 495 832
2020-02-20 19:43:40 GMT 39.009331 -88.164490 27,175 70 495 832
2020-02-20 19:43:36 GMT 39.006729 -88.173882 27,125 70 494 896
2020-02-20 19:43:33 GMT 39.004120 -88.183289 27,075 70 493 960
2020-02-20 19:43:30 GMT 39.001190 -88.193764 27,050 70 492 896
2020-02-20 19:43:27 GMT 38.999229 -88.200684 26,950 70 491 832
2020-02-20 19:43:24 GMT 38.996658 -88.210068 26,925 70 490 768
2020-02-20 19:43:21 GMT 38.993969 -88.219543 26,875 70 490 768
2020-02-20 19:43:17 GMT 38.991074 -88.229950 26,825 70 489 768
2020-02-20 19:43:13 GMT 38.988007 -88.240875 26,775 70 488 832
2020-02-20 19:43:08 GMT 38.984985 -88.251801 26,725 70 487 832
2020-02-20 19:43:05 GMT 38.982834 -88.259384 26,700 70 486 832
2020-02-20 19:43:02 GMT 38.980843 -88.266479 26,650 70 485 832
2020-02-20 19:42:59 GMT 38.977661 -88.277832 26,575 70 484 896
2020-02-20 19:42:56 GMT 38.975071 -88.287048 26,525 70 484 896
2020-02-20 19:42:52 GMT 38.972370 -88.296753 26,500 70 483 960
2020-02-20 19:42:49 GMT 38.970554 -88.303284 26,450 70 483 1088
2020-02-20 19:42:45 GMT 38.967453 -88.314316 26,375 70 482 1152
2020-02-20 19:42:41 GMT 38.964340 -88.325363 26,300 70 482 1152
2020-02-20 19:42:38 GMT 38.962555 -88.331810 26,250 70 482 1088
2020-02-20 19:42:35 GMT 38.959057 -88.344177 26,175 70 482 960
2020-02-20 19:42:32 GMT 38.957199 -88.350914 26,150 70 481 896
2020-02-20 19:42:29 GMT 38.954727 -88.359756 26,100 70 480 832
2020-02-20 19:42:24 GMT 38.951752 -88.370499 26,050 70 479 832
2020-02-20 19:42:20 GMT 38.948025 -88.383911 25,975 70 478 960
2020-02-20 19:42:17 GMT 38.945976 -88.391357 25,950 70 478 960
2020-02-20 19:42:13 GMT 38.944016 -88.398323 25,600 73 474 768
2020-02-20 19:42:10 GMT 38.941273 -88.408203 25,825 70 477 960
2020-02-20 19:42:06 GMT 38.938339 -88.418564 25,775 70 476 960
2020-02-20 19:42:00 GMT 38.933311 -88.437256 25,650 71 475 896
2020-02-20 19:41:56 GMT 38.930893 -88.446899 25,600 72 475 832
2020-02-20 19:41:51 GMT 38.927444 -88.461433 25,525 73 474 768
2020-02-20 19:41:48 GMT 38.925632 -88.469543 25,500 74 474 704
2020-02-20 19:41:45 GMT 38.924606 -88.474396 25,475 75 472 640
2020-02-20 19:41:40 GMT 38.921310 -88.490692 25,400 76 471 704
2020-02-20 19:41:37 GMT 38.919708 -88.499413 25,375 77 470 704
2020-02-20 19:41:34 GMT 38.919022 -88.503235 25,350 77 470 704
2020-02-20 19:41:31 GMT 38.917603 -88.511414 25,325 77 470 704
2020-02-20 19:41:28 GMT 38.916275 -88.519653 25,275 79 469 768
2020-02-20 19:41:25 GMT 38.915039 -88.527832 25,250 79 468 832
2020-02-20 19:41:22 GMT 38.911339 -88.556702 25,150 81 467 768
2020-02-20 19:41:16 GMT 38.910828 -88.561096 25,000 81 463 768
2020-02-20 19:41:09 GMT 38.908314 -88.581726 25,025 81 464 768
2020-02-20 19:41:06 GMT 38.907009 -88.592529 24,950 81 462 768
2020-02-20 19:41:03 GMT 38.905884 -88.601929 24,925 81 462 832
2020-02-20 19:40:59 GMT 38.905884 -88.601929 24,900 81 461 768
2020-02-20 19:40:56 GMT 38.904778 -88.611084 24,900 81 461 768
2020-02-20 19:40:53 GMT 38.903915 -88.618111 24,825 81 460 768
2020-02-20 19:40:50 GMT 38.903099 -88.625061 24,800 81 459 704
2020-02-20 19:40:46 GMT 38.901627 -88.637276 24,750 81 458 704
2020-02-20 19:40:43 GMT 38.900665 -88.644981 24,700 81 457 704
2020-02-20 19:40:40 GMT 38.899700 -88.653015 24,675 81 456 768
2020-02-20 19:40:35 GMT 38.897964 -88.667374 24,575 81 454 832
2020-02-20 19:40:28 GMT 38.895721 -88.685577 24,500 81 453 832
2020-02-20 19:40:24 GMT 38.894440 -88.696213 24,450 81 452 832
2020-02-20 19:40:19 GMT 38.891834 -88.717651 24,375 81 450 832
2020-02-20 19:40:15 GMT 38.891834 -88.717651 24,350 81 449 832
2020-02-20 19:40:11 GMT 38.890438 -88.729248 24,275 81 448 896
2020-02-20 19:40:08 GMT 38.889320 -88.738647 24,225 81 447 960
2020-02-20 19:40:05 GMT 38.888809 -88.742546 24,200 81 447 960
2020-02-20 19:40:02 GMT 38.887573 -88.752991 24,150 81 446 960
2020-02-20 19:39:57 GMT 38.886292 -88.763443 24,075 81 444 704
2020-02-20 19:39:54 GMT 38.885010 -88.773827 24,050 81 443 704
2020-02-20 19:39:51 GMT 38.883827 -88.783447 24,000 81 442 768
2020-02-20 19:39:48 GMT 38.883224 -88.788338 23,950 81 441 1088
2020-02-20 19:39:45 GMT 38.882290 -88.796082 23,925 81 441 1088
2020-02-20 19:39:41 GMT 38.881126 -88.805359 23,875 81 440 1216
2020-02-20 19:39:37 GMT 38.879425 -88.819267 23,750 81 439 1024
2020-02-20 19:39:34 GMT 38.878475 -88.827026 23,725 81 439 960
2020-02-20 19:39:30 GMT 38.877411 -88.835747 23,675 81 438 832
2020-02-20 19:39:27 GMT 38.876266 -88.844940 23,625 81 437 896
2020-02-20 19:39:24 GMT 38.874619 -88.858315 23,550 81 435 1088
2020-02-20 19:39:21 GMT 38.874619 -88.858315 23,550 81 435 1088
2020-02-20 19:39:14 GMT 38.871445 -88.884277 23,375 80 434 1216
2020-02-20 19:39:11 GMT 38.871445 -88.884277 23,325 81 434 1280
2020-02-20 19:39:08 GMT 38.870701 -88.890381 23,275 81 434 1280
2020-02-20 19:39:04 GMT 38.869125 -88.902977 23,175 81 433 1344
2020-02-20 19:39:00 GMT 38.867207 -88.918762 23,100 80 433 1280
2020-02-20 19:38:57 GMT 38.867207 -88.918762 23,050 80 432 1216
2020-02-20 19:38:53 GMT 38.865875 -88.929314 22,950 81 432 1216
2020-02-20 19:38:50 GMT 38.864777 -88.938446 22,950 81 432 1280
2020-02-20 19:38:45 GMT 38.863205 -88.951050 22,725 81 431 1344
2020-02-20 19:38:41 GMT 38.862259 -88.958626 22,725 81 431 1408
2020-02-20 19:38:38 GMT 38.861023 -88.968719 22,600 80 430 1408
2020-02-20 19:38:31 GMT 38.858780 -88.986748 22,450 80 429 1216
2020-02-20 19:38:27 GMT 38.857803 -88.994263 22,400 80 429 1216
2020-02-20 19:38:24 GMT 38.856686 -89.003235 22,325 80 428 1216
2020-02-20 19:38:20 GMT 38.855431 -89.013306 22,275 80 428 1216
2020-02-20 19:38:17 GMT 38.854523 -89.020905 22,175 80 427 1216
2020-02-20 19:38:13 GMT 38.853474 -89.029236 22,075 80 426 1280
2020-02-20 19:38:10 GMT 38.851334 -89.046326 22,000 80 426 1280
2020-02-20 19:38:06 GMT 38.850174 -89.055771 21,950 80 425 1280
2020-02-20 19:38:03 GMT 38.850174 -89.055771 21,750 80 425 1344
2020-02-20 19:38:00 GMT 38.849167 -89.063713 21,825 80 424 1344
2020-02-20 19:37:57 GMT 38.847565 -89.076614 21,700 81 424 1344
2020-02-20 19:37:50 GMT 38.846466 -89.085449 21,625 81 423 1408
2020-02-20 19:37:47 GMT 38.845459 -89.093452 21,550 80 423 1408
2020-02-20 19:37:44 GMT 38.844536 -89.100952 21,475 80 422 1408
2020-02-20 19:37:40 GMT 38.843327 -89.110840 21,425 80 422 1408
2020-02-20 19:37:37 GMT 38.842583 -89.116760 21,350 80 421 1408
2020-02-20 19:37:34 GMT 38.841522 -89.125153 21,225 80 421 1344
2020-02-20 19:37:31 GMT 38.840378 -89.133987 21,175 80 420 1344
2020-02-20 19:37:28 GMT 38.838390 -89.150024 21,075 80 420 1344
2020-02-20 19:37:25 GMT 38.838390 -89.150024 21,025 80 419 1344
2020-02-20 19:37:22 GMT 38.837368 -89.157898 20,950 80 419 1408
2020-02-20 19:37:18 GMT 38.836391 -89.165894 20,875 80 419 1472
2020-02-20 19:37:15 GMT 38.835709 -89.171310 20,825 80 418 1472
2020-02-20 19:37:11 GMT 38.834015 -89.184509 20,700 80 418 1472
2020-02-20 19:37:07 GMT 38.832870 -89.193581 20,550 80 417 1472
2020-02-20 19:37:03 GMT 38.831863 -89.201584 20,525 80 417 1472
2020-02-20 19:36:59 GMT 38.829361 -89.221558 20,375 80 416 1472
2020-02-20 19:36:55 GMT 38.829361 -89.221558 20,325 80 416 1408
2020-02-20 19:36:52 GMT 38.828617 -89.227417 20,275 80 416 1472
2020-02-20 19:36:48 GMT 38.827194 -89.238419 20,175 80 415 1408
2020-02-20 19:36:45 GMT 38.825542 -89.251709 20,025 80 414 1408
2020-02-20 19:36:39 GMT 38.824566 -89.259460 19,925 80 414 1344
2020-02-20 19:36:36 GMT 38.823544 -89.267212 19,925 80 414 1344
2020-02-20 19:36:32 GMT 38.822296 -89.277351 19,800 80 412 1280
2020-02-20 19:36:28 GMT 38.819817 -89.296814 19,675 80 411 1216
2020-02-20 19:36:24 GMT 38.819817 -89.296814 19,625 80 410 1216
2020-02-20 19:36:17 GMT 38.817722 -89.313354 19,450 80 408 1280
2020-02-20 19:36:14 GMT 38.816650 -89.321716 19,425 80 407 1280
2020-02-20 19:36:11 GMT 38.815933 -89.327148 19,375 80 407 1280
2020-02-20 19:36:08 GMT 38.814697 -89.336914 19,275 80 406 1216
2020-02-20 19:36:04 GMT 38.812881 -89.351379 19,200 80 404 1152
2020-02-20 19:36:01 GMT 38.812881 -89.351379 19,175 80 404 1152
2020-02-20 19:35:56 GMT 38.811493 -89.362198 19,075 80 402 1216
2020-02-20 19:35:53 GMT 38.809616 -89.377060 18,850 80 398 1152
2020-02-20 19:35:47 GMT 38.807831 -89.391098 18,875 80 399 1152
2020-02-20 19:35:40 GMT 38.806595 -89.400528 18,750 80 397 1280
2020-02-20 19:35:37 GMT 38.805450 -89.409782 18,650 80 395 1536
2020-02-20 19:35:34 GMT 38.804688 -89.415588 18,600 80 395 1664
2020-02-20 19:35:30 GMT 38.803574 -89.424530 18,550 80 395 1664
2020-02-20 19:35:26 GMT 38.802383 -89.433784 18,350 80 394 1920
2020-02-20 19:35:23 GMT 38.801697 -89.439339 18,150 80 394 1856
2020-02-20 19:35:19 GMT 38.800591 -89.448120 18,175 80 395 1728
2020-02-20 19:35:15 GMT 38.799194 -89.458984 18,050 80 394 1728
2020-02-20 19:35:09 GMT 38.797565 -89.472107 17,875 81 394 1792
2020-02-20 19:35:06 GMT 38.796570 -89.480835 17,725 83 393 1856
2020-02-20 19:35:02 GMT 38.795750 -89.489441 17,675 83 394 1856
2020-02-20 19:34:59 GMT 38.794327 -89.507767 17,275 86 393 1792
2020-02-20 19:34:53 GMT 38.794327 -89.507767 17,400 85 394 1792
2020-02-20 19:34:50 GMT 38.793549 -89.522629 17,300 86 393 1792
2020-02-20 19:34:47 GMT 38.793549 -89.522629 17,225 87 393 1792
2020-02-20 19:34:44 GMT 38.793098 -89.537109 17,050 88 393 1792
2020-02-20 19:34:38 GMT 38.792957 -89.545471 16,925 89 393 1856
2020-02-20 19:34:33 GMT 38.793003 -89.555725 16,775 90 392 1920
2020-02-20 19:34:30 GMT 38.793098 -89.564087 16,675 91 392 1984
2020-02-20 19:34:27 GMT 38.793144 -89.569580 16,600 90 392 1984
2020-02-20 19:34:23 GMT 38.793274 -89.580070 16,450 90 392 1984
2020-02-20 19:34:19 GMT 38.793377 -89.587219 16,350 90 392 1920
2020-02-20 19:34:16 GMT 38.793457 -89.594223 16,250 90 391 1856
2020-02-20 19:34:13 GMT 38.793594 -89.604370 16,125 90 391 1728
2020-02-20 19:34:09 GMT 38.793701 -89.612244 16,025 91 390 1600
2020-02-20 19:34:06 GMT 38.793751 -89.617798 15,950 91 389 1536
2020-02-20 19:34:03 GMT 38.793888 -89.627014 15,700 90 384 1152
2020-02-20 19:33:59 GMT 38.793961 -89.633865 15,800 90 387 1280
2020-02-20 19:33:56 GMT 38.794075 -89.641663 15,775 90 386 1216
2020-02-20 19:33:52 GMT 38.794167 -89.652527 15,650 90 383 1152
2020-02-20 19:33:49 GMT 38.794212 -89.656982 15,625 90 382 1216
2020-02-20 19:33:46 GMT 38.794353 -89.665161 15,525 90 379 1472
2020-02-20 19:33:39 GMT 38.794601 -89.687126 15,300 90 377 1536
2020-02-20 19:33:32 GMT 38.794682 -89.697266 15,125 90 374 1536
2020-02-20 19:33:29 GMT 38.794785 -89.703850 15,075 90 374 1472
2020-02-20 19:33:25 GMT 38.794865 -89.712280 14,975 90 372 1472
2020-02-20 19:33:20 GMT 38.794968 -89.721581 14,900 90 370 1408
2020-02-20 19:33:17 GMT 38.795151 -89.734718 14,750 90 367 1472
2020-02-20 19:33:11 GMT 38.795284 -89.749023 14,600 90 365 1472
2020-02-20 19:33:08 GMT 38.795284 -89.749023 14,400 90 361 1408
2020-02-20 19:33:04 GMT 38.795380 -89.757225 14,500 90 363 1408
2020-02-20 19:32:59 GMT 38.795517 -89.766174 14,400 90 362 1408
2020-02-20 19:32:56 GMT 38.795612 -89.774719 14,300 90 359 1344
2020-02-20 19:32:52 GMT 38.795658 -89.780701 14,250 90 358 1344
2020-02-20 19:32:49 GMT 38.795750 -89.788269 14,050 90 355 1344
2020-02-20 19:32:45 GMT 38.795837 -89.796272 14,100 90 354 1408
2020-02-20 19:32:42 GMT 38.795883 -89.801292 14,025 90 353 1472
2020-02-20 19:32:39 GMT 38.795929 -89.808632 13,925 90 351 1664
2020-02-20 19:32:36 GMT 38.796021 -89.815498 13,825 90 350 1728
2020-02-20 19:32:33 GMT 38.796112 -89.822784 13,725 90 349 1728
2020-02-20 19:32:29 GMT 38.796295 -89.839447 13,525 90 347 1792
2020-02-20 19:32:25 GMT 38.796295 -89.839447 13,500 90 347 1792
2020-02-20 19:32:22 GMT 38.796341 -89.844337 13,425 90 346 1920
2020-02-20 19:32:19 GMT 38.796387 -89.851685 13,300 90 345 1920
2020-02-20 19:32:15 GMT 38.796494 -89.858459 13,225 90 344 1856
2020-02-20 19:32:12 GMT 38.796570 -89.866371 13,100 90 343 1792
2020-02-20 19:32:06 GMT 38.796661 -89.877602 12,925 90 341 1856
2020-02-20 19:32:02 GMT 38.796726 -89.884399 12,850 90 340 1920
2020-02-20 19:31:58 GMT 38.796822 -89.894226 12,650 90 339 2048
2020-02-20 19:31:55 GMT 38.796963 -89.907837 12,475 90 338 2368
2020-02-20 19:31:51 GMT 38.796963 -89.907837 12,400 90 338 2560
2020-02-20 19:31:45 GMT 38.796650 -89.921272 10,900 90 335 1984
2020-02-20 19:31:42 GMT 38.796700 -89.927208 10,900 90 335 1984
2020-02-20 19:31:39 GMT 38.796761 -89.933151 10,900 90 335 1984
2020-02-20 19:31:36 GMT 38.796810 -89.939087 10,900 90 335 1984
2020-02-20 19:31:33 GMT 38.796860 -89.945030 10,900 90 335 1984
2020-02-20 19:31:30 GMT 38.796909 -89.950974 10,900 90 335 1984
2020-02-20 19:31:27 GMT 38.797440 -89.957191 11,425 90 338 2048
2020-02-20 19:31:24 GMT 38.797009 -89.962852 10,900 90 335 1984
2020-02-20 19:31:21 GMT 38.797112 -89.974731 10,900 90 335 1984
2020-02-20 19:31:18 GMT 38.797112 -89.974731 10,900 90 335 2144
2020-02-20 19:31:15 GMT 38.797279 -89.981010 10,900 90 330 2144
2020-02-20 19:31:12 GMT 38.797321 -89.986862 10,800 89 329 2144
2020-02-20 19:31:09 GMT 38.797569 -89.992767 10,800 89 329 2144
2020-02-20 19:31:06 GMT 38.797852 -89.998451 10,800 89 329 2144
2020-02-20 19:31:03 GMT 38.797569 -90.004494 10,700 89 328 2144
2020-02-20 19:31:00 GMT 38.797569 -90.010483 10,500 90 325 2144
2020-02-20 19:30:57 GMT 38.797668 -90.016090 10,200 89 329 2144
2020-02-20 19:30:54 GMT 38.797680 -90.021919 10,200 89 329 2144
2020-02-20 19:30:51 GMT 38.797699 -90.028069 10,200 90 319 2144
2020-02-20 19:30:48 GMT 38.797619 -90.034126 10,200 90 319 2144
2020-02-20 19:30:45 GMT 38.798218 -90.039368 10,100 90 313 2144
2020-02-20 19:30:42 GMT 38.797779 -90.051224 10,000 90 310 2144
2020-02-20 19:30:39 GMT 38.797821 -90.056641 9,900 90 305 2144
2020-02-20 19:30:33 GMT 38.797901 -90.062180 9,900 90 303 2144
2020-02-20 19:30:30 GMT 38.797932 -90.067574 9,800 90 302 2144
2020-02-20 19:30:27 GMT 38.797871 -90.073029 9,800 90 302 2144
2020-02-20 19:30:24 GMT 38.798019 -90.078339 9,600 90 303 2144
2020-02-20 19:30:21 GMT 38.798050 -90.083710 9,600 90 303 2144
2020-02-20 19:30:18 GMT 38.798092 -90.089233 9,200 90 300 2144
2020-02-20 19:30:15 GMT 38.798061 -90.094582 9,200 90 299 2080
2020-02-20 19:30:12 GMT 38.798111 -90.099892 9,200 90 299 2080
2020-02-20 19:30:09 GMT 38.798180 -90.105309 9,100 90 298 2080
2020-02-20 19:30:06 GMT 38.798248 -90.110603 8,900 90 298 2080
2020-02-20 19:30:03 GMT 38.798290 -90.115883 8,900 90 298 2080
2020-02-20 19:30:00 GMT 38.798382 -90.121262 8,700 90 296 2080
2020-02-20 19:29:57 GMT 38.798561 -90.131866 8,600 90 298 2496
2020-02-20 19:29:54 GMT 38.798691 -90.137131 8,300 89 294 2080
2020-02-20 19:29:48 GMT 38.798630 -90.147728 8,200 90 295 2432
2020-02-20 19:29:45 GMT 38.798630 -90.147728 8,100 90 291 2080
2020-02-20 19:29:42 GMT 38.798550 -90.153023 7,700 90 288 2080
2020-02-20 19:29:39 GMT 38.798691 -90.158249 7,700 90 287 2080
2020-02-20 19:29:36 GMT 38.798710 -90.163353 7,700 90 287 2080
2020-02-20 19:29:33 GMT 38.798801 -90.168701 7,600 90 283 2080
2020-02-20 19:29:30 GMT 38.798820 -90.173729 7,600 90 283 2080
2020-02-20 19:29:27 GMT 38.798801 -90.178833 7,400 90 282 2080
2020-02-20 19:29:24 GMT 38.798981 -90.183929 7,300 89 281 2080
2020-02-20 19:29:21 GMT 38.798981 -90.188919 7,000 89 279 2080
2020-02-20 19:29:18 GMT 38.799030 -90.199150 7,000 89 276 2208
2020-02-20 19:29:15 GMT 38.799030 -90.199150 7,000 89 276 2208
2020-02-20 19:29:12 GMT 38.799019 -90.204048 7,000 89 276 2208
2020-02-20 19:29:09 GMT 38.798988 -90.209137 6,800 90 273 2208
2020-02-20 19:29:06 GMT 38.798950 -90.214172 6,400 90 270 2208
2020-02-20 19:29:03 GMT 38.798969 -90.218964 6,400 90 268 2208
2020-02-20 19:29:00 GMT 38.799049 -90.223892 6,400 90 268 2208
2020-02-20 19:28:57 GMT 38.799049 -90.228790 6,200 90 266 2208
2020-02-20 19:28:54 GMT 38.799568 -90.233093 6,300 90 272 2176
2020-02-20 19:28:51 GMT 38.799068 -90.238274 6,100 90 265 2208
2020-02-20 19:28:48 GMT 38.799091 -90.243309 5,900 90 261 2208
2020-02-20 19:28:45 GMT 38.799122 -90.247940 5,900 90 261 2208
2020-02-20 19:28:42 GMT 38.799171 -90.252678 5,600 90 259 2208
2020-02-20 19:28:39 GMT 38.799198 -90.256859 5,600 90 259 2208
2020-02-20 19:28:36 GMT 38.799240 -90.261597 5,600 90 267 2208
2020-02-20 19:28:33 GMT 38.799820 -90.266235 5,300 90 254 2208
2020-02-20 19:28:30 GMT 38.799892 -90.275208 4,900 90 248 2208
2020-02-20 19:28:27 GMT 38.799438 -90.280769 4,900 90 248 2208
2020-02-20 19:28:24 GMT 38.799450 -90.285118 4,900 89 245 2208
2020-02-20 19:28:21 GMT 38.799450 -90.285118 4,800 89 239 2208
2020-02-20 19:28:18 GMT 38.799641 -90.289810 4,800 89 239 2208
2020-02-20 19:28:15 GMT 38.799438 -90.294342 4,500 90 233 448
2020-02-20 19:28:12 GMT 38.799461 -90.298477 4,500 90 233 448
2020-02-20 19:28:09 GMT 38.799599 -90.302429 4,500 89 242 448
2020-02-20 19:28:06 GMT 38.799599 -90.306664 4,425 89 246 448
2020-02-20 19:28:03 GMT 38.799381 -90.311241 4,300 92 240 448
2020-02-20 19:28:00 GMT 38.799500 -90.315376 4,075 94 243 448
2020-02-20 19:27:57 GMT 38.800072 -90.319359 4,075 93 243 448
2020-02-20 19:27:54 GMT 38.800228 -90.323837 4,075 89 253 448
2020-02-20 19:27:51 GMT 38.800079 -90.332298 3,900 86 234 -192
2020-02-20 19:27:48 GMT 38.799759 -90.336533 3,900 92 233 128
2020-02-20 19:27:42 GMT 38.799938 -90.340584 3,850 91 222 -192
2020-02-20 19:27:39 GMT 38.799911 -90.344612 3,725 92 210 896
2020-02-20 19:27:36 GMT 38.799938 -90.348412 3,725 93 206 896
2020-02-20 19:27:33 GMT 38.800240 -90.352013 3,500 92 210 896
2020-02-20 19:27:30 GMT 38.800320 -90.355728 3,500 92 210 896
2020-02-20 19:27:27 GMT 38.800301 -90.359398 3,425 93 209 896
2020-02-20 19:27:24 GMT 38.800430 -90.363091 3,275 95 212 896
2020-02-20 19:27:21 GMT 38.800571 -90.366814 3,150 93 211 896
2020-02-20 19:27:18 GMT 38.800720 -90.370438 3,000 91 214 896
2020-02-20 19:27:15 GMT 38.800579 -90.374138 3,000 83 211 896
2020-02-20 19:27:12 GMT 38.800079 -90.377678 2,975 77 205 1824
2020-02-20 19:27:09 GMT 38.799320 -90.380959 2,875 67 197 1824
2020-02-20 19:27:06 GMT 38.798180 -90.384117 2,875 61 194 1824
2020-02-20 19:27:03 GMT 38.795109 -90.389130 2,800 43 178 1824
2020-02-20 19:27:00 GMT 38.793098 -90.390991 2,750 32 172 1824
2020-02-20 19:26:57 GMT 38.793098 -90.390991 2,700 26 168 1824
2020-02-20 19:26:54 GMT 38.791111 -90.392410 2,575 19 164 1824
2020-02-20 19:26:51 GMT 38.789001 -90.393417 2,425 6 161 1824
2020-02-20 19:26:48 GMT 38.787048 -90.393776 2,450 5 159 2944
2020-02-20 19:26:45 GMT 38.784611 -90.393822 2,100 349 165 1824
2020-02-20 19:26:42 GMT 38.782379 -90.393478 2,100 345 169 1824
2020-02-20 19:26:39 GMT 38.780109 -90.392769 1,975 341 167 1824
2020-02-20 19:26:36 GMT 38.777889 -90.391830 1,850 339 163 1824
2020-02-20 19:26:33 GMT 38.775780 -90.390831 1,800 338 162 1824
2020-02-20 19:26:30 GMT 38.771648 -90.388908 1,625 341 153 1824
2020-02-20 19:26:24 GMT 38.769650 -90.388077 1,625 342 152 1824
2020-02-20 19:26:21 GMT 38.765732 -90.386543 1,400 344 147 1824
2020-02-20 19:26:15 GMT 38.761951 -90.385269 1,100 345 133 0
2020-02-20 19:26:12 GMT 38.760139 -90.384560 1,100 340 138 0
2020-02-20 19:26:09 GMT 38.758419 -90.383568 1,100 334 134 0
2020-02-20 19:26:03 GMT 38.755268 -90.380928 950 325 141 0
2020-02-20 19:25:57 GMT 38.752701 -90.377533 750 306 132 0
2020-02-20 19:25:51 GMT 38.751690 -90.375526 600 300 129 0
2020-02-20 19:25:48 GMT 38.750751 -90.373466 175 299 137 0
2020-02-20 19:25:45 GMT 38.748878 -90.369202 -25 300 144 0
2020-02-20 19:25:42 GMT 38.748878 -90.369202 -25 300 152 0
2020-02-20 19:25:39 GMT 38.747849 -90.366959 -125 301 156 0
2020-02-20 19:25:36 GMT 38.746738 -90.364662 -150 302 150 0
2020-02-20 19:25:33 GMT 38.745602 -90.362396 -150 301 146 0
2020-02-20 19:25:30 GMT 38.744549 -90.360260 -150 302 145 0
2020-02-20 19:25:27 GMT 38.743511 -90.358131 -125 301 127 32
2020-02-20 19:25:24 GMT 38.742611 -90.356300 -125 300 124 32
2020-02-20 19:25:21 GMT 38.741741 -90.354446 -125 301 117 0
2020-02-20 19:25:18 GMT 38.740959 -90.352913 -125 302 103 -288
2020-02-20 19:25:15 GMT 38.740261 -90.351448 -125 302 96 -288
2020-02-20 19:25:12 GMT 38.739670 -90.350166 -100 303 74 -32
2020-02-20 19:25:09 GMT 38.738708 -90.348289 0 299 45 192
2020-02-20 19:25:06 GMT 38.738708 -90.348289 0 299 34 0
2020-02-20 19:25:03 GMT 38.738461 -90.347603 0 313 21 0
2020-02-20 19:25:00 GMT 38.738220 -90.347321 0 302 12 0
2020-02-20 19:24:57 GMT 38.738071 -90.346970 0 310 9 0
2020-02-20 19:24:54 GMT 38.738071 -90.346970 0 314 8 0
2020-02-20 19:24:51 GMT 38.737968 -90.346870 0 313 8 0
2020-02-20 19:24:48 GMT 38.737919 -90.346748 0 359 7 0
2020-02-20 19:24:45 GMT 38.737831 -90.346680 0 25 7 0
2020-02-20 19:24:42 GMT 38.737770 -90.346703 0 26 10 0
2020-02-20 19:24:39 GMT 38.737671 -90.346802 0 25 9 0
2020-02-20 19:24:36 GMT 38.737530 -90.346817 0 40 7 0
2020-02-20 19:24:33 GMT 38.737492 -90.346962 0 17 7 0
2020-02-20 19:24:30 GMT 38.737381 -90.346977 0 35 13 0
2020-02-20 19:24:27 GMT 38.737251 -90.347092 0 56 7 0
2020-02-20 19:24:24 GMT 38.737141 -90.347252 0 51 5 0
2020-02-20 19:24:18 GMT 38.737099 -90.347267 0 55 1 0
2020-02-20 19:24:15 GMT 38.737099 -90.347267 0 54 3 0
2020-02-20 19:24:11 GMT 38.737141 -90.347290 0 49 3 0
2020-02-20 19:24:08 GMT 38.737160 -90.347313 0 88 5 0
2020-02-20 19:24:05 GMT 38.737091 -90.347397 0 71 6 0
2020-02-20 19:24:02 GMT 38.737049 -90.347519 0 86 6 0
2020-02-20 19:23:59 GMT 38.737000 -90.347557 0 104 8 0
2020-02-20 19:23:56 GMT 38.737030 -90.347656 0 123 5 0
2020-02-20 19:23:53 GMT 38.737061 -90.347763 0 120 9 0
2020-02-20 19:23:50 GMT 38.737122 -90.347900 0 123 9 0
2020-02-20 19:23:47 GMT 38.737190 -90.348022 0 121 10 0
2020-02-20 19:23:44 GMT 38.737251 -90.348129 0 120 18 0
2020-02-20 19:23:41 GMT 38.737381 -90.348427 0 121 19 0
2020-02-20 19:23:38 GMT 38.737511 -90.348679 0 122 22 0
2020-02-20 19:23:35 GMT 38.737659 -90.349068 0 124 24 0
2020-02-20 19:23:32 GMT 38.737850 -90.349426 0 125 25 0
2020-02-20 19:23:29 GMT 38.738060 -90.349792 0 122 26 0
2020-02-20 19:23:26 GMT 38.738369 -90.350510 0 122 24 0
2020-02-20 19:23:20 GMT 38.738750 -90.351257 0 121 23 0
2020-02-20 19:23:17 GMT 38.738949 -90.351624 0 123 28 0
2020-02-20 19:23:14 GMT 38.738949 -90.351624 0 120 27 0
2020-02-20 19:23:11 GMT 38.739159 -90.352043 0 122 26 0
2020-02-20 19:23:08 GMT 38.739368 -90.352417 0 118 26 0
2020-02-20 19:23:05 GMT 38.739540 -90.352852 0 124 27 0
2020-02-20 19:23:02 GMT 38.739761 -90.353249 0 119 26 0
2020-02-20 19:22:59 GMT 38.739960 -90.353653 0 119 24 0
2020-02-20 19:22:56 GMT 38.740120 -90.354027 0 123 25 0
2020-02-20 19:22:53 GMT 38.740330 -90.354424 0 118 26 0
2020-02-20 19:22:50 GMT 38.740490 -90.354820 0 119 27 0
2020-02-20 19:22:47 GMT 38.740681 -90.355247 0 126 27 0
2020-02-20 19:22:44 GMT 38.740891 -90.355629 0 120 25 0
2020-02-20 19:22:41 GMT 38.741089 -90.355988 0 120 27 0
2020-02-20 19:22:38 GMT 38.741291 -90.356392 0 125 25 0
2020-02-20 19:22:35 GMT 38.741451 -90.356812 0 128 28 0
2020-02-20 19:22:32 GMT 38.741741 -90.357193 0 117 27 0
2020-02-20 19:22:29 GMT 38.741901 -90.357582 0 118 28 0
2020-02-20 19:22:25 GMT 38.742130 -90.358177 0 123 27 0
2020-02-20 19:22:22 GMT 38.742519 -90.358948 0 122 26 0
2020-02-20 19:22:19 GMT 38.742722 -90.359322 0 122 23 0
2020-02-20 19:22:13 GMT 38.743080 -90.360100 0 119 24 0
2020-02-20 19:22:10 GMT 38.743080 -90.360100 0 122 25 0
2020-02-20 19:22:07 GMT 38.743271 -90.360481 0 122 24 0
2020-02-20 19:22:04 GMT 38.743439 -90.360840 0 123 23 0
2020-02-20 19:21:58 GMT 38.743778 -90.361450 0 119 20 0
2020-02-20 19:21:55 GMT 38.743912 -90.361801 0 119 16 0
2020-02-20 19:21:52 GMT 38.744011 -90.361992 0 121 14 0
2020-02-20 19:21:48 GMT 38.744141 -90.362282 0 127 12 0
2020-02-20 19:21:45 GMT 38.744228 -90.362450 0 108 10 0
2020-02-20 19:21:42 GMT 38.744331 -90.362617 0 104 9 0
2020-02-20 19:21:39 GMT 38.744350 -90.362740 0 109 9 -128
2020-02-20 19:21:36 GMT 38.744419 -90.362930 0 78 9 -128
2020-02-20 19:21:33 GMT 38.744389 -90.363091 0 69 10 -128
2020-02-20 19:21:30 GMT 38.744370 -90.363258 0 25 8 -128
2020-02-20 19:21:27 GMT 38.744282 -90.363342 0 18 9 -128
2020-02-20 19:21:24 GMT 38.744129 -90.363380 0 8 7 -128
2020-02-20 19:21:21 GMT 38.744061 -90.363419 0 21 8 -128
2020-02-20 19:21:18 GMT 38.743999 -90.363403 0 19 9 -128
We lost coverage of the aircraft here for a total of 38 minutes
2020-02-20 18:42:54 GMT 38.743370 -90.363731 0 196 8 0
2020-02-20 18:42:51 GMT 38.743320 -90.363670 0 193 8 0
2020-02-20 18:42:48 GMT 38.743320 -90.363670 0 189 12 0
2020-02-20 18:42:45 GMT 38.743462 -90.363571 0 184 12 0
2020-02-20 18:42:42 GMT 38.743629 -90.363472 0 183 11 0
2020-02-20 18:42:39 GMT 38.743740 -90.363441 0 183 11 0
2020-02-20 18:42:36 GMT 38.743881 -90.363411 0 179 14 0
2020-02-20 18:42:33 GMT 38.744091 -90.363419 0 194 13 0
2020-02-20 18:42:30 GMT 38.744480 -90.363327 0 196 13 0
2020-02-20 18:42:27 GMT 38.744480 -90.363327 0 201 14 0
2020-02-20 18:42:24 GMT 38.744640 -90.363220 0 195 15 0
2020-02-20 18:42:21 GMT 38.744862 -90.363167 0 190 15 0
2020-02-20 18:42:18 GMT 38.745041 -90.363121 0 187 17 0
2020-02-20 18:42:15 GMT 38.745258 -90.363068 0 182 16 0
2020-02-20 18:42:12 GMT 38.745461 -90.363052 0 176 17 0
2020-02-20 18:42:09 GMT 38.745701 -90.363060 0 182 13 0
2020-02-20 18:42:06 GMT 38.745918 -90.363083 0 185 13 0
2020-02-20 18:42:02 GMT 38.746181 -90.363060 0 185 13 0
2020-02-20 18:41:59 GMT 38.746330 -90.363029 0 200 15 0
2020-02-20 18:41:56 GMT 38.746552 -90.362968 0 212 14 0
2020-02-20 18:41:53 GMT 38.746670 -90.362762 0 213 13 0
2020-02-20 18:41:50 GMT 38.746868 -90.362679 0 207 16 0
2020-02-20 18:41:47 GMT 38.747040 -90.362534 0 222 17 0
2020-02-20 18:41:44 GMT 38.747211 -90.362312 0 236 18 0
2020-02-20 18:41:41 GMT 38.747360 -90.362068 0 248 18 0
2020-02-20 18:41:38 GMT 38.747459 -90.361763 0 265 26 0
2020-02-20 18:41:35 GMT 38.747509 -90.361359 0 271 30 -32
2020-02-20 18:41:32 GMT 38.747501 -90.360809 0 268 32 -32
2020-02-20 18:41:29 GMT 38.747509 -90.360291 0 275 36 -32
2020-02-20 18:41:26 GMT 38.747501 -90.359657 0 268 38 -32
2020-02-20 18:41:23 GMT 38.747440 -90.358994 0 275 38 -32
2020-02-20 18:41:19 GMT 38.747360 -90.358109 0 285 39 -32
2020-02-20 18:41:16 GMT 38.747219 -90.357422 0 297 40 32
2020-02-20 18:41:13 GMT 38.746990 -90.356728 -150 299 36 32
2020-02-20 18:41:10 GMT 38.746689 -90.356133 -150 296 40 32
2020-02-20 18:41:07 GMT 38.746471 -90.355530 -150 301 48 32
2020-02-20 18:41:04 GMT 38.746109 -90.354797 -150 302 54 0
2020-02-20 18:41:01 GMT 38.745689 -90.353951 -150 300 61 0
2020-02-20 18:40:58 GMT 38.745232 -90.352966 -150 303 70 32
2020-02-20 18:40:55 GMT 38.744709 -90.351936 -150 301 75 -256
2020-02-20 18:40:52 GMT 38.744160 -90.350800 -125 300 82 -256
2020-02-20 18:40:49 GMT 38.743519 -90.349457 -125 302 98 64
2020-02-20 18:40:46 GMT 38.742802 -90.348000 -125 303 113 64
2020-02-20 18:40:43 GMT 38.741982 -90.346413 -125 301 119 -128
2020-02-20 18:40:40 GMT 38.741131 -90.344627 -125 301 124 -128
2020-02-20 18:40:37 GMT 38.740200 -90.342758 -100 302 128 -128
2020-02-20 18:40:34 GMT 38.739262 -90.340843 -75 302 127 -128
2020-02-20 18:40:31 GMT 38.738209 -90.338890 25 304 127 -128
2020-02-20 18:40:28 GMT 38.737320 -90.337044 100 300 131 -128
2020-02-20 18:40:25 GMT 38.736469 -90.335121 100 305 128 -128
2020-02-20 18:40:22 GMT 38.735481 -90.333214 150 300 121 -128
2020-02-20 18:40:19 GMT 38.734509 -90.331367 150 301 127 -128
2020-02-20 18:40:16 GMT 38.733570 -90.329491 200 302 125 -128
2020-02-20 18:40:13 GMT 38.732651 -90.327568 250 302 129 -128
2020-02-20 18:40:10 GMT 38.731750 -90.325821 250 301 132 -128
2020-02-20 18:40:07 GMT 38.730751 -90.323738 300 301 131 -128
2020-02-20 18:40:04 GMT 38.729832 -90.321823 350 301 120 64
2020-02-20 18:40:01 GMT 38.728958 -90.320099 400 303 125 -32
2020-02-20 18:39:58 GMT 38.728081 -90.318199 450 302 132 -32
2020-02-20 18:39:55 GMT 38.727039 -90.316231 450 300 128 -32
2020-02-20 18:39:52 GMT 38.726101 -90.314209 450 302 130 -32
2020-02-20 18:39:49 GMT 38.725330 -90.312317 500 302 124 -640
2020-02-20 18:39:46 GMT 38.724350 -90.310593 500 304 125 -640
2020-02-20 18:39:43 GMT 38.723358 -90.308708 600 303 122 -640
2020-02-20 18:39:40 GMT 38.721600 -90.304993 625 303 123 -640
2020-02-20 18:39:37 GMT 38.720612 -90.303078 700 303 123 -640
2020-02-20 18:39:34 GMT 38.720612 -90.303078 700 301 121 -640
2020-02-20 18:39:31 GMT 38.719681 -90.301270 800 299 122 -640
2020-02-20 18:39:28 GMT 38.718891 -90.299332 800 306 123 -640
2020-02-20 18:39:25 GMT 38.717812 -90.297638 775 301 122 -640
2020-02-20 18:39:22 GMT 38.716919 -90.295776 825 301 126 -640
2020-02-20 18:39:19 GMT 38.715981 -90.293831 850 303 123 -640
2020-02-20 18:39:16 GMT 38.715050 -90.291969 900 301 120 -640
2020-02-20 18:39:13 GMT 38.713989 -90.289764 900 303 126 -768
2020-02-20 18:39:10 GMT 38.713165 -90.288208 925 302 126 -704
2020-02-20 18:39:02 GMT 38.710739 -90.283257 1,025 303 129 -640
2020-02-20 18:38:59 GMT 38.709488 -90.280701 1,075 303 132 -896
2020-02-20 18:38:51 GMT 38.706696 -90.274841 1,225 302 140 -1152
2020-02-20 18:38:48 GMT 38.706345 -90.274124 1,225 303 141 -832
2020-02-20 18:38:39 GMT 38.702774 -90.266838 1,325 303 148 -1088
2020-02-20 18:38:32 GMT 38.699890 -90.260986 1,500 303 160 -1344
2020-02-20 18:38:28 GMT 38.698608 -90.258415 1,550 303 161 -960
2020-02-20 18:38:21 GMT 38.694359 -90.249817 1,725 303 162 -1536
2020-02-20 18:38:11 GMT 38.691513 -90.244209 1,925 303 158 -1152
2020-02-20 18:38:08 GMT 38.690357 -90.241821 1,925 303 158 -1152
2020-02-20 18:38:00 GMT 38.687145 -90.235474 2,125 303 157 -1472
2020-02-20 18:37:57 GMT 38.686169 -90.233582 2,200 304 157 -1472
2020-02-20 18:37:50 GMT 38.683411 -90.228088 2,375 303 157 -1472
2020-02-20 18:37:47 GMT 38.681976 -90.225159 2,425 302 159 -1088
2020-02-20 18:37:40 GMT 38.679417 -90.219971 2,550 303 161 -896
2020-02-20 18:37:36 GMT 38.677917 -90.216919 2,575 303 161 -896
2020-02-20 18:37:29 GMT 38.674850 -90.210709 2,700 303 163 -896
2020-02-20 18:37:25 GMT 38.673752 -90.208443 2,750 302 164 -768
2020-02-20 18:37:19 GMT 38.670914 -90.202766 2,775 303 170 64
2020-02-20 18:37:15 GMT 38.669270 -90.199524 2,775 303 173 -64
2020-02-20 18:37:08 GMT 38.666103 -90.193115 2,775 303 182 -64
2020-02-20 18:37:04 GMT 38.664780 -90.190468 2,775 303 184 -64
2020-02-20 18:36:58 GMT 38.661667 -90.184082 2,800 302 184 64
2020-02-20 18:36:55 GMT 38.660095 -90.180969 2,800 303 186 -320
2020-02-20 18:36:48 GMT 38.656723 -90.174049 2,875 303 186 -128
2020-02-20 18:36:44 GMT 38.655258 -90.171066 2,875 303 186 64
2020-02-20 18:36:37 GMT 38.651859 -90.164124 2,875 302 188 -64
2020-02-20 18:36:34 GMT 38.650368 -90.161072 2,875 302 189 -64
2020-02-20 18:36:25 GMT 38.644920 -90.149902 2,900 302 199 -128
2020-02-20 18:36:16 GMT 38.642212 -90.144318 2,875 303 206 -64
2020-02-20 18:36:13 GMT 38.640198 -90.140198 2,875 303 206 -128
2020-02-20 18:36:05 GMT 38.636536 -90.132729 2,925 303 204 -192
2020-02-20 18:36:02 GMT 38.635006 -90.129700 2,900 303 206 192
2020-02-20 18:35:55 GMT 38.631516 -90.122681 2,950 303 206 -704
2020-02-20 18:35:51 GMT 38.629532 -90.118820 2,975 304 205 -1216
2020-02-20 18:35:45 GMT 38.625778 -90.111534 3,100 303 203 -1216
2020-02-20 18:35:42 GMT 38.624130 -90.108315 3,175 303 204 -1152
2020-02-20 18:35:34 GMT 38.620468 -90.100967 3,300 303 203 -1280
2020-02-20 18:35:30 GMT 38.618992 -90.097900 3,375 302 203 -1472
2020-02-20 18:35:24 GMT 38.615295 -90.090340 3,550 302 203 -1216
2020-02-20 18:35:21 GMT 38.613693 -90.087112 3,600 302 203 -1088
2020-02-20 18:35:13 GMT 38.610054 -90.079529 3,750 301 204 -1344
2020-02-20 18:35:10 GMT 38.608658 -90.076370 3,850 300 204 -1664
2020-02-20 18:35:00 GMT 38.603909 -90.065125 4,125 297 204 -1344
2020-02-20 18:34:53 GMT 38.601070 -90.057739 4,275 297 204 -576
2020-02-20 18:34:49 GMT 38.599720 -90.054321 4,275 297 207 -192
2020-02-20 18:34:41 GMT 38.596573 -90.045616 4,275 293 208 64
2020-02-20 18:34:38 GMT 38.595482 -90.042175 4,275 290 209 192
2020-02-20 18:34:32 GMT 38.593529 -90.033569 4,275 282 211 64
2020-02-20 18:34:27 GMT 38.592831 -90.028137 4,275 279 212 128
2020-02-20 18:34:21 GMT 38.592453 -90.020958 4,275 270 215 -128
2020-02-20 18:34:16 GMT 38.592499 -90.015282 4,275 268 218 -128
2020-02-20 18:34:11 GMT 38.593185 -90.006927 4,275 261 227 -192
2020-02-20 18:34:08 GMT 38.593716 -90.002991 4,300 259 231 -192
2020-02-20 18:34:00 GMT 38.596939 -89.987518 4,300 251 244 -128
2020-02-20 18:33:47 GMT 38.601883 -89.974800 4,325 236 259 -576
2020-02-20 18:33:39 GMT 38.609116 -89.965370 4,475 217 268 -1600
2020-02-20 18:33:36 GMT 38.610939 -89.963684 4,525 212 268 -1984
2020-02-20 18:33:29 GMT 38.619049 -89.958145 4,750 207 271 -1920
2020-02-20 18:33:25 GMT 38.622902 -89.955688 4,850 207 271 -1728
2020-02-20 18:33:19 GMT 38.630768 -89.950798 5,025 207 271 -1472
2020-02-20 18:33:16 GMT 38.634430 -89.948471 5,075 207 272 -1472
2020-02-20 18:33:07 GMT 38.642670 -89.943336 5,300 206 275 -1728
2020-02-20 18:33:04 GMT 38.646133 -89.941223 5,400 206 275 -1856
2020-02-20 18:32:58 GMT 38.654839 -89.935974 5,600 206 275 -1984
2020-02-20 18:32:55 GMT 38.658234 -89.933907 5,850 206 277 -1536
2020-02-20 18:32:46 GMT 38.667206 -89.928528 5,875 206 279 -1088
2020-02-20 18:32:43 GMT 38.670502 -89.926559 5,925 206 279 -1152
2020-02-20 18:32:34 GMT 38.682724 -89.919395 6,125 205 278 -1088
2020-02-20 18:32:27 GMT 38.690914 -89.914612 6,250 205 278 -1088
2020-02-20 18:32:23 GMT 38.694687 -89.912415 6,300 205 278 -1088
2020-02-20 18:32:19 GMT 38.699806 -89.909363 6,400 205 277 -1088
2020-02-20 18:32:16 GMT 38.702866 -89.907570 6,450 205 276 -1088
2020-02-20 18:32:13 GMT 38.707489 -89.904823 6,500 205 276 -1088
2020-02-20 18:32:06 GMT 38.715633 -89.900024 6,625 205 276 -1152
2020-02-20 18:32:02 GMT 38.719116 -89.897957 6,700 205 276 -1152
2020-02-20 18:31:59 GMT 38.721909 -89.896286 6,725 205 276 -1152
2020-02-20 18:31:54 GMT 38.731659 -89.890495 6,875 205 276 -1024
2020-02-20 18:31:48 GMT 38.734909 -89.888580 6,925 205 276 -960
2020-02-20 18:31:45 GMT 38.739796 -89.885742 7,000 205 276 -960
2020-02-20 18:31:42 GMT 38.743984 -89.883301 7,050 205 275 -960
2020-02-20 18:31:36 GMT 38.750244 -89.879684 7,150 205 271 -896
2020-02-20 18:31:33 GMT 38.758804 -89.874733 7,225 205 266 -832
2020-02-20 18:31:28 GMT 38.758804 -89.874733 7,250 205 264 -832
2020-02-20 18:31:24 GMT 38.762604 -89.872498 7,800 205 263 -832
2020-02-20 18:31:21 GMT 38.767075 -89.869934 7,350 205 263 -896
2020-02-20 18:31:18 GMT 38.769928 -89.868286 7,375 205 265 -896
2020-02-20 18:31:12 GMT 38.775787 -89.864761 7,450 206 269 -896
2020-02-20 18:31:08 GMT 38.786953 -89.856873 7,600 216 272 -832
2020-02-20 18:31:03 GMT 38.786953 -89.856873 7,600 215 272 -832
2020-02-20 18:31:00 GMT 38.792912 -89.850830 7,675 220 273 -832
2020-02-20 18:30:56 GMT 38.792912 -89.850830 7,700 225 272 -768
2020-02-20 18:30:52 GMT 38.799225 -89.842964 7,775 225 272 -768
2020-02-20 18:30:49 GMT 38.803894 -89.837059 7,850 225 272 -768
2020-02-20 18:30:41 GMT 38.806877 -89.833313 7,850 225 272 -704
2020-02-20 18:30:37 GMT 38.811401 -89.827560 7,950 225 272 -832
2020-02-20 18:30:32 GMT 38.818222 -89.818962 8,000 225 272 -768
2020-02-20 18:30:29 GMT 38.818222 -89.818962 8,025 225 272 -704
2020-02-20 18:30:26 GMT 38.820236 -89.816467 8,050 225 272 -640
2020-02-20 18:30:20 GMT 38.825588 -89.809631 8,100 225 272 -576
2020-02-20 18:30:16 GMT 38.829872 -89.804321 8,175 225 273 -1280
2020-02-20 18:30:12 GMT 38.833923 -89.799194 8,275 225 274 -1408
2020-02-20 18:30:08 GMT 38.836899 -89.795441 8,350 225 274 -1408
2020-02-20 18:30:04 GMT 38.840149 -89.791321 8,425 225 274 -1472
2020-02-20 18:30:01 GMT 38.842758 -89.788094 8,500 225 273 -1472
2020-02-20 18:29:58 GMT 38.844955 -89.785286 8,575 225 274 -1472
2020-02-20 18:29:55 GMT 38.848526 -89.780807 8,650 225 275 -1408
2020-02-20 18:29:50 GMT 38.853287 -89.774780 8,775 225 275 -1344
2020-02-20 18:29:47 GMT 38.856037 -89.771362 8,850 225 275 -1408
2020-02-20 18:29:42 GMT 38.863251 -89.762207 9,000 225 275 -1472
2020-02-20 18:29:38 GMT 38.863251 -89.762207 9,050 225 275 -1536
2020-02-20 18:29:32 GMT 38.869022 -89.754883 9,225 225 275 -1216
2020-02-20 18:29:28 GMT 38.872375 -89.750671 9,250 225 275 -832
2020-02-20 18:29:25 GMT 38.874710 -89.747734 9,275 225 275 -128
2020-02-20 18:29:18 GMT 38.882309 -89.738121 9,275 225 275 0
2020-02-20 18:29:15 GMT 38.888077 -89.730835 9,275 225 275 0
2020-02-20 18:29:11 GMT 38.888077 -89.730835 9,275 225 275 0
2020-02-20 18:29:08 GMT 38.890228 -89.728149 9,275 225 274 -64
2020-02-20 18:29:05 GMT 38.893570 -89.723969 9,275 225 274 64
2020-02-20 18:29:02 GMT 38.896408 -89.720329 9,275 225 274 0
2020-02-20 18:28:59 GMT 38.903149 -89.711853 9,275 225 274 64
2020-02-20 18:28:55 GMT 38.903149 -89.711853 9,275 225 274 64
2020-02-20 18:28:51 GMT 38.905472 -89.708862 9,275 225 274 0
2020-02-20 18:28:48 GMT 38.908920 -89.704529 9,275 225 275 -64
2020-02-20 18:28:45 GMT 38.911106 -89.701782 9,275 225 275 -64
2020-02-20 18:28:41 GMT 38.915112 -89.696716 9,275 225 275 -64
2020-02-20 18:28:38 GMT 38.918743 -89.692139 9,275 225 275 64
2020-02-20 18:28:35 GMT 38.924332 -89.685036 9,275 225 275 64
2020-02-20 18:28:32 GMT 38.924332 -89.685036 9,275 225 275 0
2020-02-20 18:28:26 GMT 38.928146 -89.680237 9,275 225 275 0
2020-02-20 18:28:23 GMT 38.931404 -89.676147 9,275 225 273 0
2020-02-20 18:28:20 GMT 38.933716 -89.673218 9,275 225 275 64
2020-02-20 18:28:17 GMT 38.937920 -89.667908 9,275 225 275 64
2020-02-20 18:28:14 GMT 38.939209 -89.666290 9,275 225 274 64
2020-02-20 18:28:11 GMT 38.947449 -89.655899 9,275 225 274 0
2020-02-20 18:28:06 GMT 38.947449 -89.655899 9,275 225 274 0
2020-02-20 18:28:03 GMT 38.950584 -89.651917 9,275 225 274 64
2020-02-20 18:27:58 GMT 38.956356 -89.644592 9,275 225 273 64
2020-02-20 18:27:55 GMT 38.956356 -89.644592 9,275 225 273 0
2020-02-20 18:27:52 GMT 38.959568 -89.640564 9,275 225 273 0
2020-02-20 18:27:48 GMT 38.966084 -89.632324 9,275 225 273 64
2020-02-20 18:27:45 GMT 38.969193 -89.628433 9,275 225 273 0
2020-02-20 18:27:42 GMT 38.969193 -89.628433 9,275 225 273 0
2020-02-20 18:27:38 GMT 38.972229 -89.624634 9,275 225 273 -64
2020-02-20 18:27:35 GMT 38.975006 -89.621094 9,275 225 273 -128
2020-02-20 18:27:31 GMT 38.978374 -89.616760 9,275 225 272 -128
2020-02-20 18:27:28 GMT 38.981216 -89.613037 9,275 226 272 64
2020-02-20 18:27:24 GMT 38.985168 -89.607658 9,250 228 269 576
2020-02-20 18:27:21 GMT 38.987591 -89.604187 9,200 231 268 896
2020-02-20 18:27:17 GMT 38.990250 -89.599892 9,175 232 269 640
2020-02-20 18:27:13 GMT 38.992714 -89.595520 9,150 235 268 64
2020-02-20 18:27:10 GMT 38.997231 -89.585510 9,250 243 267 -1280
2020-02-20 18:27:06 GMT 38.997231 -89.585510 9,275 244 267 -1280
2020-02-20 18:27:02 GMT 39.001282 -89.572372 9,400 252 266 -960
2020-02-20 18:26:57 GMT 39.001282 -89.572372 9,500 254 267 -1408
2020-02-20 18:26:53 GMT 39.002769 -89.565857 9,500 254 270 -1408
2020-02-20 18:26:47 GMT 39.006546 -89.549263 9,725 254 279 -1472
2020-02-20 18:26:43 GMT 39.006546 -89.549263 9,775 254 281 -1472
2020-02-20 18:26:39 GMT 39.007889 -89.543335 9,825 254 281 -1536
2020-02-20 18:26:35 GMT 39.009098 -89.538025 9,950 254 286 -1344
2020-02-20 18:26:32 GMT 39.011940 -89.525696 10,075 254 290 -1792
2020-02-20 18:26:29 GMT 39.011940 -89.525696 10,150 254 291 -1792
2020-02-20 18:26:25 GMT 39.013058 -89.520813 10,200 254 292 -1600
2020-02-20 18:26:22 GMT 39.014328 -89.515106 10,325 254 295 -1600
2020-02-20 18:26:19 GMT 39.015106 -89.511765 10,375 254 296 -1600
2020-02-20 18:26:14 GMT 39.017120 -89.502930 10,525 254 300 -1664
2020-02-20 18:26:10 GMT 39.019199 -89.493713 10,625 254 302 -1664
2020-02-20 18:26:06 GMT 39.020599 -89.487701 10,750 254 305 -1664
2020-02-20 18:26:02 GMT 39.022156 -89.480896 10,900 254 308 -1664
2020-02-20 18:25:59 GMT 39.023254 -89.475883 10,900 254 308 -1664
2020-02-20 18:25:54 GMT 39.025162 -89.467651 11,075 254 312 -1664
2020-02-20 18:25:51 GMT 39.026825 -89.460236 11,150 254 313 -1664
2020-02-20 18:25:47 GMT 39.028187 -89.454102 11,300 254 314 -1664
2020-02-20 18:25:44 GMT 39.029251 -89.449432 11,375 254 314 -1664
2020-02-20 18:25:38 GMT 39.031860 -89.437904 11,550 254 316 -1728
2020-02-20 18:25:34 GMT 39.033401 -89.431091 11,650 254 318 -1728
2020-02-20 18:25:31 GMT 39.034889 -89.424500 11,725 254 318 -1728
2020-02-20 18:25:28 GMT 39.035820 -89.420227 11,825 254 319 -1728
2020-02-20 18:25:24 GMT 39.037495 -89.412903 11,950 254 321 -1664
2020-02-20 18:25:21 GMT 39.040237 -89.400711 12,050 254 322 -1728
2020-02-20 18:25:18 GMT 39.040237 -89.400711 12,125 254 322 -1728
2020-02-20 18:25:12 GMT 39.042114 -89.392586 12,350 254 325 -1792
2020-02-20 18:25:09 GMT 39.043690 -89.385559 12,375 254 325 -1728
2020-02-20 18:25:06 GMT 39.044952 -89.379990 12,525 254 325 -1728
2020-02-20 18:25:01 GMT 39.047424 -89.369003 12,625 254 325 -1792
2020-02-20 18:24:57 GMT 39.048981 -89.362137 12,675 254 325 -1792
2020-02-20 18:24:53 GMT 39.051636 -89.350250 12,850 254 325 -1792
2020-02-20 18:24:50 GMT 39.052643 -89.345779 12,975 254 325 -1728
2020-02-20 18:24:44 GMT 39.055344 -89.333893 13,150 254 325 -1728
2020-02-20 18:24:38 GMT 39.056908 -89.326843 13,275 254 324 -1728
2020-02-20 18:24:32 GMT 39.059280 -89.316277 13,475 254 322 -1664
2020-02-20 18:24:28 GMT 39.060974 -89.308815 13,575 254 320 -1728
2020-02-20 18:24:25 GMT 39.061981 -89.304398 13,575 254 320 -1728
2020-02-20 18:24:21 GMT 39.063847 -89.296021 13,775 254 318 -1600
2020-02-20 18:24:17 GMT 39.065659 -89.288025 13,875 254 317 -1664
2020-02-20 18:24:12 GMT 39.067429 -89.280090 14,000 254 316 -1600
2020-02-20 18:24:09 GMT 39.069012 -89.273010 14,100 254 316 -1600
2020-02-20 18:24:06 GMT 39.069626 -89.270302 14,125 254 315 -1664
2020-02-20 18:24:03 GMT 39.071480 -89.262146 14,200 254 315 -1664
2020-02-20 18:24:00 GMT 39.072235 -89.258781 14,300 254 315 -1792
2020-02-20 18:23:56 GMT 39.073948 -89.251282 14,450 254 315 -1984
2020-02-20 18:23:53 GMT 39.074844 -89.247314 14,525 254 315 -2048
2020-02-20 18:23:49 GMT 39.076767 -89.238838 14,625 254 315 -2496
2020-02-20 18:23:45 GMT 39.078369 -89.231812 14,825 254 315 -2496
2020-02-20 18:23:42 GMT 39.080017 -89.224449 15,025 254 314 -2496
2020-02-20 18:23:39 GMT 39.080605 -89.221924 15,075 254 314 -2496
2020-02-20 18:23:34 GMT 39.082672 -89.212807 15,350 255 314 -2496
2020-02-20 18:23:31 GMT 39.084049 -89.206665 15,425 255 313 -2432
2020-02-20 18:23:28 GMT 39.085052 -89.201996 15,550 255 313 -2432
2020-02-20 18:23:24 GMT 39.088165 -89.187851 15,850 254 313 -2496
2020-02-20 18:23:21 GMT 39.089031 -89.183960 15,950 254 313 -2496
2020-02-20 18:23:15 GMT 39.090637 -89.176979 16,125 254 313 -2496
2020-02-20 18:23:08 GMT 39.093155 -89.166290 16,325 253 313 -2368
2020-02-20 18:23:04 GMT 39.095360 -89.157349 16,550 253 315 -2368
2020-02-20 18:23:01 GMT 39.096130 -89.154289 16,625 252 314 -2368
2020-02-20 18:22:58 GMT 39.097919 -89.147400 16,800 251 316 -2368
2020-02-20 18:22:55 GMT 39.099785 -89.140442 16,950 251 316 -2304
2020-02-20 18:22:52 GMT 39.100994 -89.136047 17,025 251 317 -2240
2020-02-20 18:22:48 GMT 39.102947 -89.129089 17,125 251 318 -2176
2020-02-20 18:22:45 GMT 39.104160 -89.124634 17,250 251 319 -1984
2020-02-20 18:22:41 GMT 39.106068 -89.117615 17,325 251 320 -1856
2020-02-20 18:22:36 GMT 39.108486 -89.108826 17,500 251 321 -1728
2020-02-20 18:22:32 GMT 39.110596 -89.101273 17,675 251 323 -1728
2020-02-20 18:22:29 GMT 39.112381 -89.094704 17,725 251 323 -1728
2020-02-20 18:22:26 GMT 39.113281 -89.091492 17,775 251 323 -1728
2020-02-20 18:22:23 GMT 39.114990 -89.085327 17,950 251 323 -1728
2020-02-20 18:22:20 GMT 39.116447 -89.079834 17,950 251 323 -1728
2020-02-20 18:22:15 GMT 39.118637 -89.071899 18,775 251 319 -1600
2020-02-20 18:22:11 GMT 39.121078 -89.062996 18,200 251 315 -1600
2020-02-20 18:22:08 GMT 39.122688 -89.056946 18,325 251 313 -1728
2020-02-20 18:22:05 GMT 39.123665 -89.053467 18,375 251 313 -1664
2020-02-20 18:22:02 GMT 39.125759 -89.045837 18,525 251 312 -1600
2020-02-20 18:21:56 GMT 39.128540 -89.035652 18,650 251 311 -1600
2020-02-20 18:21:51 GMT 39.131111 -89.026123 18,800 251 310 -1664
2020-02-20 18:21:47 GMT 39.132751 -89.020187 18,900 251 310 -1600
2020-02-20 18:21:44 GMT 39.133667 -89.016724 18,950 251 309 -1600
2020-02-20 18:21:39 GMT 39.136642 -89.005798 19,100 251 309 -1600
2020-02-20 18:21:34 GMT 39.138245 -89.000069 19,200 251 309 -1664
2020-02-20 18:21:30 GMT 39.140900 -88.990334 19,350 251 309 -1600
2020-02-20 18:21:27 GMT 39.141960 -88.986511 19,400 251 310 -1600
2020-02-20 18:21:24 GMT 39.143555 -88.980598 19,500 251 310 -1664
2020-02-20 18:21:18 GMT 39.146439 -88.970093 19,675 251 312 -1664
2020-02-20 18:21:14 GMT 39.148060 -88.964111 19,725 251 312 -1664
2020-02-20 18:21:11 GMT 39.149780 -88.957825 19,850 251 313 -1664
2020-02-20 18:21:07 GMT 39.151505 -88.951477 19,950 251 313 -1664
2020-02-20 18:21:04 GMT 39.153351 -88.944778 20,050 251 314 -1664
2020-02-20 18:20:57 GMT 39.157974 -88.927818 20,325 251 315 -1664
2020-02-20 18:20:54 GMT 39.160263 -88.919395 20,350 251 315 -1664
2020-02-20 18:20:50 GMT 39.160263 -88.919395 20,450 251 315 -1664
2020-02-20 18:20:46 GMT 39.161636 -88.914322 20,500 251 315 -1664
2020-02-20 18:20:43 GMT 39.163376 -88.907997 20,625 251 315 -1600
2020-02-20 18:20:39 GMT 39.165005 -88.901978 20,725 251 314 -1536
2020-02-20 18:20:36 GMT 39.166538 -88.896301 20,800 251 314 -1472
2020-02-20 18:20:32 GMT 39.168217 -88.890076 20,900 251 315 -1984
2020-02-20 18:20:29 GMT 39.169922 -88.883934 21,050 251 315 -2432
2020-02-20 18:20:26 GMT 39.171520 -88.877991 21,150 251 316 -2432
2020-02-20 18:20:22 GMT 39.173244 -88.871643 21,300 251 317 -2368
2020-02-20 18:20:17 GMT 39.176037 -88.861450 21,450 251 319 -2368
2020-02-20 18:20:12 GMT 39.178482 -88.852585 21,725 251 322 -2432
2020-02-20 18:20:09 GMT 39.179573 -88.848450 21,825 251 323 -2432
2020-02-20 18:20:05 GMT 39.181870 -88.840103 22,000 251 325 -2496
2020-02-20 18:20:01 GMT 39.183159 -88.835327 22,150 251 326 -2496
2020-02-20 18:19:58 GMT 39.185440 -88.826973 22,300 251 327 -2432
2020-02-20 18:19:54 GMT 39.189674 -88.811157 22,675 251 326 -2496
2020-02-20 18:19:49 GMT 39.189674 -88.811157 22,575 251 326 -2496
2020-02-20 18:19:46 GMT 39.191391 -88.804878 22,750 251 325 -2432
2020-02-20 18:19:43 GMT 39.192169 -88.802010 23,025 251 324 -2496
2020-02-20 18:19:39 GMT 39.194183 -88.794670 23,025 251 324 -2432
2020-02-20 18:19:36 GMT 39.197216 -88.783447 23,225 251 323 -2496
2020-02-20 18:19:29 GMT 39.199493 -88.775024 23,450 251 323 -2496
2020-02-20 18:19:25 GMT 39.201546 -88.767395 23,625 251 325 -2368
2020-02-20 18:19:21 GMT 39.203735 -88.759399 23,775 251 326 -2368
2020-02-20 18:19:18 GMT 39.205318 -88.753479 23,925 251 327 -2688
2020-02-20 18:19:14 GMT 39.206947 -88.747620 24,150 251 329 -2688
2020-02-20 18:19:11 GMT 39.208344 -88.742432 24,150 251 329 -2688
2020-02-20 18:19:08 GMT 39.209610 -88.737709 24,300 251 331 -2176
2020-02-20 18:19:05 GMT 39.211670 -88.730186 24,400 251 332 -2368
2020-02-20 18:19:02 GMT 39.212906 -88.725647 24,475 251 333 -2752
2020-02-20 18:18:59 GMT 39.215000 -88.717834 24,750 251 334 -2880
2020-02-20 18:18:55 GMT 39.218258 -88.705688 24,925 251 336 -2240
2020-02-20 18:18:52 GMT 39.218258 -88.705688 25,000 251 336 -2432
2020-02-20 18:18:48 GMT 39.220001 -88.699257 25,150 251 337 -2688
2020-02-20 18:18:44 GMT 39.223480 -88.686356 25,400 251 338 -2560
2020-02-20 18:18:38 GMT 39.225540 -88.678833 25,725 251 336 -2432
2020-02-20 18:18:34 GMT 39.227600 -88.671188 25,775 251 337 -2432
2020-02-20 18:18:31 GMT 39.229065 -88.665878 25,900 251 336 -2496
2020-02-20 18:18:27 GMT 39.230667 -88.659790 26,025 251 336 -2560
2020-02-20 18:18:23 GMT 39.232830 -88.651855 26,225 251 335 -2560
2020-02-20 18:18:19 GMT 39.234695 -88.644859 26,375 251 334 -2432
2020-02-20 18:18:14 GMT 39.237671 -88.633728 26,700 251 334 -2560
2020-02-20 18:18:11 GMT 39.238815 -88.629639 26,675 251 334 -2560
2020-02-20 18:18:07 GMT 39.241196 -88.620735 26,900 251 334 -2560
2020-02-20 18:18:04 GMT 39.244080 -88.610046 27,100 251 334 -2496
2020-02-20 18:18:01 GMT 39.244080 -88.610046 27,225 251 334 -2496
2020-02-20 18:17:58 GMT 39.245911 -88.603302 27,300 251 335 -2560
2020-02-20 18:17:52 GMT 39.250099 -88.587769 27,550 251 336 -2560
2020-02-20 18:17:49 GMT 39.250099 -88.587769 27,700 251 336 -2560
2020-02-20 18:17:46 GMT 39.251732 -88.581726 27,775 251 337 -2496
2020-02-20 18:17:42 GMT 39.254059 -88.573090 27,975 252 338 -2560
2020-02-20 18:17:39 GMT 39.255478 -88.567657 28,100 251 338 -2560
2020-02-20 18:17:35 GMT 39.257126 -88.561630 28,250 251 338 -2624
2020-02-20 18:17:31 GMT 39.259186 -88.553986 28,375 251 339 -2624
2020-02-20 18:17:28 GMT 39.263947 -88.536369 28,725 251 339 -1856
2020-02-20 18:17:23 GMT 39.263947 -88.536369 28,700 251 339 -1856
2020-02-20 18:17:20 GMT 39.264771 -88.533264 28,775 251 340 -1856
2020-02-20 18:17:16 GMT 39.266907 -88.525330 28,875 251 340 -1856
2020-02-20 18:17:12 GMT 39.268661 -88.518700 29,200 251 341 -1920
2020-02-20 18:17:09 GMT 39.271004 -88.510010 29,150 251 343 -1856
2020-02-20 18:17:05 GMT 39.272259 -88.505371 29,225 251 343 -1856
2020-02-20 18:17:01 GMT 39.274429 -88.497261 29,300 251 344 -1856
2020-02-20 18:16:58 GMT 39.276352 -88.490219 29,475 251 345 -1920
2020-02-20 18:16:54 GMT 39.278870 -88.480904 29,575 251 345 -1920
2020-02-20 18:16:50 GMT 39.280872 -88.473389 29,750 251 346 -1920
2020-02-20 18:16:46 GMT 39.282669 -88.466751 29,850 251 346 -1792
2020-02-20 18:16:42 GMT 39.285141 -88.457375 30,000 252 345 -576
2020-02-20 18:16:37 GMT 39.287201 -88.449615 30,000 252 344 -256
2020-02-20 18:16:33 GMT 39.289490 -88.441017 30,000 252 344 -64
2020-02-20 18:16:29 GMT 39.291550 -88.433250 30,000 252 344 0
2020-02-20 18:16:26 GMT 39.293198 -88.427048 30,000 252 344 0
2020-02-20 18:16:22 GMT 39.297073 -88.412720 30,000 252 344 64
2020-02-20 18:16:19 GMT 39.298096 -88.408875 30,000 252 344 -64
2020-02-20 18:16:13 GMT 39.299652 -88.402985 30,000 252 344 -64
2020-02-20 18:16:10 GMT 39.301399 -88.396423 30,000 252 344 0
2020-02-20 18:16:05 GMT 39.304001 -88.386742 30,000 252 344 0
2020-02-20 18:16:02 GMT 39.305779 -88.380127 30,000 252 344 64
2020-02-20 18:15:58 GMT 39.309456 -88.366272 30,000 252 344 0
2020-02-20 18:15:54 GMT 39.309456 -88.366272 30,000 252 344 0
2020-02-20 18:15:50 GMT 39.312057 -88.356529 30,000 252 344 0
2020-02-20 18:15:47 GMT 39.313065 -88.352707 30,000 252 344 0
2020-02-20 18:15:44 GMT 39.314346 -88.348053 30,000 252 344 0
2020-02-20 18:15:41 GMT 39.318394 -88.332825 30,000 252 344 0
2020-02-20 18:15:37 GMT 39.318394 -88.332825 30,000 252 344 -64
2020-02-20 18:15:34 GMT 39.320389 -88.325424 30,000 252 344 -64
2020-02-20 18:15:27 GMT 39.323914 -88.312164 30,000 252 344 0
2020-02-20 18:15:23 GMT 39.325657 -88.305664 30,000 252 344 64
2020-02-20 18:15:20 GMT 39.327564 -88.298584 30,000 252 344 64
2020-02-20 18:15:16 GMT 39.329193 -88.292480 30,000 252 344 -64
2020-02-20 18:15:13 GMT 39.331192 -88.284943 30,000 252 344 0
2020-02-20 18:15:08 GMT 39.333069 -88.277954 30,000 251 345 -64
2020-02-20 18:15:05 GMT 39.334641 -88.272156 30,000 251 345 -64
2020-02-20 18:15:02 GMT 39.337006 -88.263206 30,000 251 345 0
2020-02-20 18:14:58 GMT 39.340118 -88.251678 30,000 251 345 0
2020-02-20 18:14:52 GMT 39.342182 -88.244141 30,000 253 346 0
2020-02-20 18:14:49 GMT 39.343735 -88.238304 30,000 252 345 0
2020-02-20 18:14:45 GMT 39.345486 -88.231628 30,000 252 345 0
2020-02-20 18:14:41 GMT 39.347488 -88.223816 30,000 253 346 0
2020-02-20 18:14:37 GMT 39.351746 -88.206902 30,000 253 346 -64
2020-02-20 18:14:33 GMT 39.351746 -88.206902 30,000 253 346 0
2020-02-20 18:14:28 GMT 39.354191 -88.197083 30,000 253 346 0
2020-02-20 18:14:24 GMT 39.355637 -88.191139 30,000 253 346 0
2020-02-20 18:14:21 GMT 39.357494 -88.183716 30,000 253 346 0
2020-02-20 18:14:16 GMT 39.361130 -88.169106 30,000 253 346 64
2020-02-20 18:14:10 GMT 39.362991 -88.161621 30,000 253 346 0
2020-02-20 18:14:07 GMT 39.363922 -88.157715 30,000 253 346 -128
2020-02-20 18:14:04 GMT 39.365799 -88.150238 30,000 253 346 -128
2020-02-20 18:14:01 GMT 39.368820 -88.137817 30,000 253 346 0
2020-02-20 18:13:58 GMT 39.368820 -88.137817 30,000 253 346 0
2020-02-20 18:13:54 GMT 39.370529 -88.130920 30,000 253 346 0
2020-02-20 18:13:51 GMT 39.371933 -88.125038 30,000 253 345 64
2020-02-20 18:13:48 GMT 39.372894 -88.121101 30,000 253 344 -64
2020-02-20 18:13:45 GMT 39.375000 -88.112503 30,000 253 344 -64
2020-02-20 18:13:42 GMT 39.375778 -88.109337 30,000 253 344 0
2020-02-20 18:13:39 GMT 39.377701 -88.101517 30,000 253 344 0
2020-02-20 18:13:36 GMT 39.379440 -88.094650 30,000 252 342 0
2020-02-20 18:13:33 GMT 39.380859 -88.089096 30,425 255 339 -576
2020-02-20 18:13:28 GMT 39.382782 -88.081329 30,000 253 341 64
2020-02-20 18:13:22 GMT 39.385757 -88.068916 30,000 254 340 0
2020-02-20 18:13:18 GMT 39.387104 -88.063110 30,000 254 339 -128
2020-02-20 18:13:12 GMT 39.390316 -88.048279 30,050 255 339 -704
2020-02-20 18:13:08 GMT 39.391853 -88.040405 30,100 257 339 -1344
2020-02-20 18:13:02 GMT 39.394913 -88.022881 30,375 259 339 -1792
2020-02-20 18:12:56 GMT 39.395416 -88.019531 30,425 259 340 -1792
2020-02-20 18:12:53 GMT 39.396652 -88.011536 30,575 260 342 -1792
2020-02-20 18:12:47 GMT 39.398602 -87.998413 30,775 260 345 -1856
2020-02-20 18:12:44 GMT 39.399441 -87.992798 30,850 260 346 -1856
2020-02-20 18:12:41 GMT 39.400360 -87.986519 31,025 260 350 -1856
2020-02-20 18:12:36 GMT 39.401627 -87.977905 31,075 260 348 -1856
2020-02-20 18:12:30 GMT 39.404892 -87.955589 31,325 260 350 -1856
2020-02-20 18:12:26 GMT 39.404892 -87.955589 31,425 260 350 -1856
2020-02-20 18:12:22 GMT 39.406036 -87.948006 31,525 260 350 -1856
2020-02-20 18:12:19 GMT 39.406631 -87.943886 32,725 260 350 -1856
2020-02-20 18:12:15 GMT 39.408237 -87.932922 31,750 260 351 -1856
2020-02-20 18:12:10 GMT 39.409729 -87.922974 31,900 260 351 -1920
2020-02-20 18:12:07 GMT 39.410522 -87.917610 32,025 260 352 -1856
2020-02-20 18:12:01 GMT 39.412491 -87.904358 32,200 260 353 -1856
2020-02-20 18:11:54 GMT 39.414276 -87.892059 32,450 260 353 -1920
2020-02-20 18:11:49 GMT 39.416058 -87.879883 32,550 260 354 -1856
2020-02-20 18:11:46 GMT 39.417038 -87.873291 32,650 260 354 -1856
2020-02-20 18:11:42 GMT 39.417938 -87.867043 32,700 260 354 -1856
2020-02-20 18:11:39 GMT 39.420063 -87.852417 32,875 260 355 -1856
2020-02-20 18:11:36 GMT 39.420063 -87.852417 32,975 260 356 -1856
2020-02-20 18:11:33 GMT 39.422241 -87.837784 33,150 260 357 -1920
2020-02-20 18:11:29 GMT 39.422241 -87.837784 33,200 260 358 -1920
2020-02-20 18:11:25 GMT 39.423367 -87.830017 33,425 260 359 -1920
2020-02-20 18:11:18 GMT 39.425602 -87.814636 33,550 260 360 -1920
2020-02-20 18:11:13 GMT 39.427094 -87.804504 33,775 260 362 -1792
2020-02-20 18:11:07 GMT 39.429092 -87.790955 33,875 260 360 0
2020-02-20 18:11:02 GMT 39.431236 -87.776550 33,975 260 361 -960
2020-02-20 18:10:55 GMT 39.432770 -87.765953 34,000 260 360 -64
2020-02-20 18:10:50 GMT 39.434006 -87.757477 34,000 260 361 -64
2020-02-20 18:10:47 GMT 39.435238 -87.748779 34,000 260 360 64
2020-02-20 18:10:43 GMT 39.436123 -87.742859 34,000 260 360 0
2020-02-20 18:10:40 GMT 39.437073 -87.736336 34,000 260 356 0
2020-02-20 18:10:37 GMT 39.438400 -87.727081 34,000 260 360 0
2020-02-20 18:10:33 GMT 39.439426 -87.719971 34,000 260 360 0
2020-02-20 18:10:29 GMT 39.440460 -87.712692 34,000 260 360 64
2020-02-20 18:10:26 GMT 39.441616 -87.704712 34,000 260 359 0
2020-02-20 18:10:21 GMT 39.443108 -87.694580 34,000 260 359 0
2020-02-20 18:10:15 GMT 39.444691 -87.683716 34,000 260 359 0
2020-02-20 18:10:12 GMT 39.445805 -87.676208 34,000 260 359 -64
2020-02-20 18:10:09 GMT 39.447529 -87.664368 34,000 260 356 0
2020-02-20 18:10:06 GMT 39.447529 -87.664368 34,000 260 358 0
2020-02-20 18:10:03 GMT 39.448654 -87.656273 34,000 260 358 64
2020-02-20 18:10:00 GMT 39.449577 -87.650024 34,000 260 358 0
2020-02-20 18:09:56 GMT 39.450485 -87.643730 34,000 260 358 0
2020-02-20 18:09:53 GMT 39.451530 -87.636536 34,000 260 358 0
2020-02-20 18:09:50 GMT 39.452370 -87.630676 34,000 260 358 0
2020-02-20 18:09:47 GMT 39.454147 -87.618416 34,000 260 358 64
2020-02-20 18:09:41 GMT 39.455070 -87.612122 34,000 260 357 -64
2020-02-20 18:09:38 GMT 39.456280 -87.603943 34,000 260 357 0
2020-02-20 18:09:33 GMT 39.457539 -87.595398 34,000 260 357 0
2020-02-20 18:09:30 GMT 39.458450 -87.589096 34,000 260 357 0
2020-02-20 18:09:27 GMT 39.459366 -87.582527 34,000 260 357 0
2020-02-20 18:09:24 GMT 39.460602 -87.573990 34,000 260 356 0
2020-02-20 18:09:20 GMT 39.461636 -87.566895 34,000 260 356 0
2020-02-20 18:09:15 GMT 39.462982 -87.557678 34,000 260 356 0
2020-02-20 18:09:09 GMT 39.464752 -87.545105 34,000 260 356 0
2020-02-20 18:09:06 GMT 39.465729 -87.538170 34,000 260 356 -64
2020-02-20 18:09:03 GMT 39.466827 -87.530403 34,000 260 356 -64
2020-02-20 18:09:00 GMT 39.467499 -87.525818 34,000 260 356 64
2020-02-20 18:08:57 GMT 39.468338 -87.519958 34,000 260 356 64
2020-02-20 18:08:53 GMT 39.469849 -87.509445 34,000 260 356 0
2020-02-20 18:08:49 GMT 39.470581 -87.504433 34,000 260 356 0
2020-02-20 18:08:45 GMT 39.472275 -87.492729 34,000 260 356 -64
2020-02-20 18:08:42 GMT 39.473038 -87.487244 34,000 260 356 0
2020-02-20 18:08:38 GMT 39.475571 -87.469383 34,000 260 356 0
2020-02-20 18:08:34 GMT 39.475571 -87.469383 34,000 260 355 64
2020-02-20 18:08:31 GMT 39.476212 -87.465080 34,000 260 355 64
2020-02-20 18:08:28 GMT 39.477367 -87.457153 34,000 260 355 0
2020-02-20 18:08:24 GMT 39.478531 -87.448792 34,000 260 355 -64
2020-02-20 18:08:21 GMT 39.480301 -87.436218 34,000 260 355 64
2020-02-20 18:08:17 GMT 39.480301 -87.436218 34,000 260 353 -960
2020-02-20 18:08:13 GMT 39.481743 -87.426208 34,000 260 355 0
2020-02-20 18:08:09 GMT 39.482849 -87.418274 34,000 260 355 -64
2020-02-20 18:08:06 GMT 39.483444 -87.414093 34,000 260 355 -64
2020-02-20 18:08:02 GMT 39.484772 -87.404480 34,000 260 355 0
2020-02-20 18:07:59 GMT 39.485607 -87.398621 34,000 260 354 64
2020-02-20 18:07:56 GMT 39.486465 -87.392418 34,000 260 355 0
2020-02-20 18:07:53 GMT 39.487377 -87.386108 34,000 260 355 -64
2020-02-20 18:07:50 GMT 39.488525 -87.378151 34,000 260 354 -64
2020-02-20 18:07:47 GMT 39.490215 -87.366943 34,000 260 354 64
2020-02-20 18:07:44 GMT 39.490215 -87.366943 34,000 260 354 0
2020-02-20 18:07:41 GMT 39.491055 -87.361267 34,000 260 354 0
2020-02-20 18:07:37 GMT 39.492313 -87.352844 34,000 260 354 0
2020-02-20 18:07:34 GMT 39.493332 -87.345787 34,000 260 354 64
2020-02-20 18:07:29 GMT 39.494980 -87.334145 34,000 260 352 0
2020-02-20 18:07:21 GMT 39.497387 -87.317200 34,000 260 351 0
2020-02-20 18:07:17 GMT 39.498459 -87.309753 34,000 260 351 0
2020-02-20 18:07:14 GMT 39.499390 -87.303162 34,000 260 351 64
2020-02-20 18:07:11 GMT 39.499992 -87.299011 34,000 260 351 64
2020-02-20 18:07:07 GMT 39.502029 -87.284584 34,775 260 354 -960
2020-02-20 18:07:01 GMT 39.502972 -87.277649 34,000 260 350 64
2020-02-20 18:06:58 GMT 39.503769 -87.272224 34,000 260 350 -64
2020-02-20 18:06:54 GMT 39.505234 -87.261597 34,000 260 350 -128
2020-02-20 18:06:51 GMT 39.506058 -87.255867 34,000 260 351 -384
2020-02-20 18:06:46 GMT 39.507534 -87.245483 34,050 260 352 -832
2020-02-20 18:06:40 GMT 39.508987 -87.235031 34,150 260 352 -960
2020-02-20 18:06:37 GMT 39.510040 -87.227562 34,200 260 352 -960
2020-02-20 18:06:33 GMT 39.511322 -87.218552 34,200 260 352 -960
2020-02-20 18:06:29 GMT 39.512558 -87.210129 34,275 260 353 -960
2020-02-20 18:06:26 GMT 39.513538 -87.203186 34,375 260 354 -960
2020-02-20 18:06:21 GMT 39.514984 -87.193054 34,450 260 354 -960
2020-02-20 18:06:18 GMT 39.515404 -87.189880 34,475 260 354 -960
2020-02-20 18:06:15 GMT 39.517544 -87.174866 34,575 260 355 -960
2020-02-20 18:06:12 GMT 39.517544 -87.174866 34,575 260 355 -960
2020-02-20 18:06:09 GMT 39.518288 -87.169678 34,625 260 355 -960
2020-02-20 18:06:06 GMT 39.519775 -87.158936 34,700 260 355 -960
2020-02-20 18:06:00 GMT 39.520844 -87.150955 34,775 260 354 -960
2020-02-20 18:05:56 GMT 39.521965 -87.143127 34,825 260 354 -960
2020-02-20 18:05:53 GMT 39.522812 -87.136810 34,875 260 354 -960
2020-02-20 18:05:50 GMT 39.523922 -87.128784 34,950 260 353 -960
2020-02-20 18:05:47 GMT 39.524387 -87.125427 35,075 260 353 -960
2020-02-20 18:05:44 GMT 39.525688 -87.116272 35,050 260 353 -960
2020-02-20 18:05:39 GMT 39.526932 -87.107552 35,100 260 353 -960
2020-02-20 18:05:36 GMT 39.528076 -87.099251 35,175 260 353 -960
2020-02-20 18:05:33 GMT 39.528576 -87.095520 35,200 260 353 -960
2020-02-20 18:05:29 GMT 39.529907 -87.085999 35,275 260 353 -960
2020-02-20 18:05:22 GMT 39.531696 -87.073059 35,350 260 354 -960
2020-02-20 18:05:18 GMT 39.532928 -87.064262 35,450 260 354 -960
2020-02-20 18:05:15 GMT 39.534622 -87.051964 35,525 260 355 -960
2020-02-20 18:05:08 GMT 39.535950 -87.042587 35,600 260 355 -960
2020-02-20 18:05:05 GMT 39.536957 -87.035461 36,000 260 355 -960
2020-02-20 18:05:02 GMT 39.537689 -87.030167 35,700 260 356 -960
2020-02-20 18:04:56 GMT 39.539703 -87.016174 35,800 260 356 -960
2020-02-20 18:04:53 GMT 39.540169 -87.012817 35,825 260 356 -960
2020-02-20 18:04:47 GMT 39.542030 -86.999390 35,925 260 356 -832
2020-02-20 18:04:44 GMT 39.543053 -86.991882 36,000 261 354 -64
2020-02-20 18:04:41 GMT 39.543751 -86.986816 36,000 260 355 -320
2020-02-20 18:04:36 GMT 39.545380 -86.975098 36,000 260 354 0
2020-02-20 18:04:33 GMT 39.546406 -86.967590 36,000 260 354 64
2020-02-20 18:04:29 GMT 39.547241 -86.961792 36,000 260 354 64
2020-02-20 18:04:23 GMT 39.549755 -86.943420 36,000 260 354 -64
2020-02-20 18:04:20 GMT 39.549755 -86.943420 36,000 260 354 -64
2020-02-20 18:04:16 GMT 39.551239 -86.933022 36,000 260 354 0
2020-02-20 18:04:11 GMT 39.552612 -86.922989 36,000 260 354 64
2020-02-20 18:04:08 GMT 39.553299 -86.918037 36,000 260 354 0
2020-02-20 18:04:05 GMT 39.554134 -86.911743 36,000 260 354 64
2020-02-20 18:04:02 GMT 39.555298 -86.903442 36,000 261 355 0
2020-02-20 18:03:59 GMT 39.557190 -86.889671 36,000 260 354 -64
2020-02-20 18:03:55 GMT 39.557190 -86.889671 36,000 260 354 0
2020-02-20 18:03:51 GMT 39.558243 -86.882149 36,000 260 354 64
2020-02-20 18:03:48 GMT 39.559021 -86.876358 36,000 260 354 64
2020-02-20 18:03:45 GMT 39.559708 -86.871346 36,000 260 354 0
2020-02-20 18:03:42 GMT 39.560852 -86.862923 36,000 261 354 0
2020-02-20 18:03:39 GMT 39.561722 -86.856628 36,000 261 355 0
2020-02-20 18:03:36 GMT 39.564148 -86.838562 36,000 260 355 64
2020-02-20 18:03:31 GMT 39.564148 -86.838562 36,000 260 355 64
2020-02-20 18:03:27 GMT 39.565025 -86.832336 36,000 260 355 0
2020-02-20 18:03:24 GMT 39.566116 -86.824356 36,000 260 355 -64
2020-02-20 18:03:21 GMT 39.568146 -86.809753 36,000 260 355 -64
2020-02-20 18:03:17 GMT 39.568146 -86.809753 36,000 260 355 -64
2020-02-20 18:03:13 GMT 39.569031 -86.803162 36,000 260 355 0
2020-02-20 18:03:09 GMT 39.570099 -86.795532 36,000 260 355 64
2020-02-20 18:03:06 GMT 39.571198 -86.787575 36,000 260 355 64
2020-02-20 18:03:03 GMT 39.572056 -86.781250 36,000 260 356 0
2020-02-20 18:03:00 GMT 39.572800 -86.776047 36,000 260 356 0
2020-02-20 18:02:57 GMT 39.573624 -86.769958 36,000 260 356 -64
2020-02-20 18:02:54 GMT 39.574615 -86.762817 36,000 260 356 0
2020-02-20 18:02:50 GMT 39.575912 -86.753181 36,000 260 356 0
2020-02-20 18:02:47 GMT 39.576828 -86.746490 36,000 260 356 0
2020-02-20 18:02:41 GMT 39.578526 -86.734314 36,000 260 356 64
2020-02-20 18:02:37 GMT 39.579666 -86.725716 36,000 260 356 0
2020-02-20 18:02:33 GMT 39.581459 -86.712646 36,000 261 356 -64
2020-02-20 18:02:30 GMT 39.582550 -86.704521 36,000 261 356 0
2020-02-20 18:02:26 GMT 39.582550 -86.704521 36,000 260 356 64
2020-02-20 18:02:23 GMT 39.583508 -86.697327 36,000 260 356 64
2020-02-20 18:02:20 GMT 39.584534 -86.690002 36,000 260 356 64
2020-02-20 18:02:17 GMT 39.585369 -86.683899 36,000 260 356 0
2020-02-20 18:02:14 GMT 39.585892 -86.680161 36,000 260 356 0
2020-02-20 18:02:11 GMT 39.587975 -86.664673 36,000 260 356 -64
2020-02-20 18:02:07 GMT 39.588676 -86.659668 36,000 260 356 0
2020-02-20 18:02:01 GMT 39.590698 -86.644875 36,000 260 355 64
2020-02-20 18:01:55 GMT 39.591747 -86.637024 36,000 261 355 0
2020-02-20 18:01:50 GMT 39.593002 -86.627869 36,000 261 355 0
2020-02-20 18:01:46 GMT 39.594120 -86.619385 36,000 261 355 64
2020-02-20 18:01:42 GMT 39.596420 -86.602303 36,000 261 355 0
2020-02-20 18:01:38 GMT 39.596420 -86.602303 36,000 261 355 -64
2020-02-20 18:01:35 GMT 39.597107 -86.597160 36,000 261 355 -64
2020-02-20 18:01:32 GMT 39.598343 -86.588028 36,000 260 355 0
2020-02-20 18:01:26 GMT 39.599754 -86.577576 36,000 261 355 64
2020-02-20 18:01:23 GMT 39.600452 -86.572449 36,000 261 355 64
2020-02-20 18:01:19 GMT 39.601757 -86.562500 36,000 261 356 -64
2020-02-20 18:01:14 GMT 39.603058 -86.553162 36,000 261 356 0
2020-02-20 18:01:10 GMT 39.604202 -86.544502 36,000 261 356 64
2020-02-20 18:01:04 GMT 39.605804 -86.532738 36,000 260 356 0
2020-02-20 18:01:01 GMT 39.606857 -86.525040 36,000 260 356 -64
2020-02-20 18:00:58 GMT 39.607727 -86.518288 36,000 261 356 -64
2020-02-20 18:00:55 GMT 39.608601 -86.512024 36,000 261 356 -64
2020-02-20 18:00:52 GMT 39.609249 -86.507019 36,000 261 356 0
2020-02-20 18:00:49 GMT 39.610043 -86.501038 36,000 261 356 64
2020-02-20 18:00:45 GMT 39.611115 -86.493095 36,000 261 356 0
2020-02-20 18:00:42 GMT 39.612259 -86.484795 36,000 261 356 0
2020-02-20 18:00:37 GMT 39.613579 -86.475037 36,000 261 356 -64
2020-02-20 18:00:33 GMT 39.614639 -86.467178 36,000 261 356 -64
2020-02-20 18:00:30 GMT 39.615326 -86.461983 36,000 261 356 64
2020-02-20 18:00:27 GMT 39.616280 -86.454834 36,000 261 356 64
2020-02-20 18:00:24 GMT 39.617111 -86.448547 36,000 261 356 -64
2020-02-20 18:00:21 GMT 39.618118 -86.440964 36,000 261 356 -64
2020-02-20 18:00:17 GMT 39.619259 -86.432312 36,000 261 356 -64
2020-02-20 18:00:14 GMT 39.620098 -86.426270 36,000 261 356 -64
2020-02-20 18:00:10 GMT 39.621002 -86.419235 36,000 261 355 -64
2020-02-20 18:00:06 GMT 39.622425 -86.408691 36,000 261 356 0
2020-02-20 18:00:01 GMT 39.623383 -86.401558 36,000 261 355 64
2020-02-20 17:59:57 GMT 39.624619 -86.392487 36,000 261 355 64
2020-02-20 17:59:54 GMT 39.625305 -86.387291 36,000 261 355 -64
2020-02-20 17:59:51 GMT 39.626266 -86.379944 36,000 261 355 64
2020-02-20 17:59:48 GMT 39.626987 -86.374512 36,000 261 355 -64
2020-02-20 17:59:45 GMT 39.628189 -86.365555 36,000 261 355 -64
2020-02-20 17:59:42 GMT 39.629105 -86.358925 36,000 261 355 -64
2020-02-20 17:59:38 GMT 39.629745 -86.353790 36,000 261 355 0
2020-02-20 17:59:35 GMT 39.631596 -86.340088 36,000 261 355 64
2020-02-20 17:59:32 GMT 39.631596 -86.340088 36,000 261 354 0
2020-02-20 17:59:29 GMT 39.632629 -86.332123 36,000 261 355 0
2020-02-20 17:59:25 GMT 39.635414 -86.311462 36,000 261 355 -64
2020-02-20 17:59:20 GMT 39.635414 -86.311462 36,000 261 355 -64
2020-02-20 17:59:17 GMT 39.635788 -86.308533 36,000 261 355 -64
2020-02-20 17:59:14 GMT 39.636623 -86.302246 36,000 261 355 0
2020-02-20 17:59:11 GMT 39.638531 -86.288025 36,000 261 355 64
2020-02-20 17:59:05 GMT 39.639278 -86.282166 36,000 261 355 0
2020-02-20 17:59:02 GMT 39.639931 -86.277100 36,000 261 355 -64
2020-02-20 17:58:59 GMT 39.640778 -86.270859 36,000 261 354 0
2020-02-20 17:58:56 GMT 39.641605 -86.264587 36,000 261 355 -64
2020-02-20 17:58:53 GMT 39.642654 -86.256645 36,000 261 354 0
2020-02-20 17:58:50 GMT 39.643467 -86.250366 36,000 261 354 0
2020-02-20 17:58:47 GMT 39.644257 -86.244507 36,000 261 354 64
2020-02-20 17:58:44 GMT 39.645187 -86.237183 36,000 261 354 0
2020-02-20 17:58:41 GMT 39.645584 -86.234200 36,000 261 354 64
2020-02-20 17:58:38 GMT 39.646538 -86.226929 36,000 261 354 64
2020-02-20 17:58:35 GMT 39.647232 -86.221657 36,000 261 354 64
2020-02-20 17:58:32 GMT 39.648376 -86.213303 36,000 261 354 -64
2020-02-20 17:58:28 GMT 39.649284 -86.206177 36,000 261 354 -64
2020-02-20 17:58:25 GMT 39.650024 -86.200638 36,000 261 354 0
2020-02-20 17:58:22 GMT 39.651287 -86.191040 36,000 261 353 0
2020-02-20 17:58:19 GMT 39.651985 -86.185913 36,000 261 353 0
2020-02-20 17:58:16 GMT 39.652908 -86.178909 36,000 261 353 0
2020-02-20 17:58:12 GMT 39.655060 -86.162247 36,000 261 353 0
2020-02-20 17:58:08 GMT 39.655060 -86.162247 36,000 261 354 0
2020-02-20 17:58:05 GMT 39.655708 -86.157532 36,000 261 353 -64
2020-02-20 17:58:01 GMT 39.657852 -86.141350 36,000 261 352 0
2020-02-20 17:57:58 GMT 39.658401 -86.137230 36,000 261 352 0
2020-02-20 17:57:52 GMT 39.659500 -86.128815 36,000 261 352 0
2020-02-20 17:57:47 GMT 39.660831 -86.118347 36,000 261 352 64
2020-02-20 17:57:44 GMT 39.662750 -86.103790 36,000 261 352 0
2020-02-20 17:57:39 GMT 39.662750 -86.103790 36,000 261 352 -64
2020-02-20 17:57:35 GMT 39.663849 -86.095436 36,000 261 352 -64
2020-02-20 17:57:31 GMT 39.665176 -86.085403 36,000 261 352 0
2020-02-20 17:57:26 GMT 39.666466 -86.075195 36,000 261 352 0
2020-02-20 17:57:23 GMT 39.667164 -86.070007 36,000 261 352 0
2020-02-20 17:57:19 GMT 39.669250 -86.053757 36,000 261 351 -64
2020-02-20 17:57:13 GMT 39.670609 -86.043396 36,000 261 351 0
2020-02-20 17:57:06 GMT 39.671631 -86.035484 36,000 261 349 64
2020-02-20 17:57:03 GMT 39.672775 -86.026535 36,000 261 350 64
2020-02-20 17:56:57 GMT 39.674103 -86.016380 36,000 261 350 0
2020-02-20 17:56:54 GMT 39.675030 -86.009521 36,000 261 350 -64
2020-02-20 17:56:51 GMT 39.675842 -86.003189 36,000 261 350 0
2020-02-20 17:56:45 GMT 39.677498 -85.990356 36,000 261 349 64
2020-02-20 17:56:42 GMT 39.678177 -85.984978 36,000 261 349 0
2020-02-20 17:56:36 GMT 39.679729 -85.973145 36,000 261 349 -64
2020-02-20 17:56:33 GMT 39.680420 -85.967598 36,000 261 349 0
2020-02-20 17:56:30 GMT 39.682755 -85.949570 36,000 261 349 0
2020-02-20 17:56:24 GMT 39.683533 -85.943657 36,000 261 349 64
2020-02-20 17:56:18 GMT 39.684807 -85.933472 36,000 261 349 0
2020-02-20 17:56:13 GMT 39.685829 -85.925903 36,000 261 349 -64
2020-02-20 17:56:10 GMT 39.686760 -85.918457 36,000 261 349 0
2020-02-20 17:56:06 GMT 39.687969 -85.909363 36,000 261 349 64
2020-02-20 17:56:03 GMT 39.688751 -85.903175 36,000 261 350 -64
2020-02-20 17:56:00 GMT 39.689255 -85.899178 36,000 261 350 -64
2020-02-20 17:55:57 GMT 39.690392 -85.890320 36,000 261 350 0
2020-02-20 17:55:53 GMT 39.692001 -85.877502 36,000 261 350 0
2020-02-20 17:55:50 GMT 39.693054 -85.869202 36,000 261 351 0
2020-02-20 17:55:42 GMT 39.694069 -85.861206 36,000 261 351 0
2020-02-20 17:55:39 GMT 39.695045 -85.853760 36,000 261 351 0
2020-02-20 17:55:36 GMT 39.695930 -85.847107 36,000 261 351 0
2020-02-20 17:55:30 GMT 39.697357 -85.835884 36,000 261 351 -64
2020-02-20 17:55:22 GMT 39.699646 -85.818390 36,000 261 352 64
2020-02-20 17:55:19 GMT 39.700378 -85.812660 36,000 261 352 64
2020-02-20 17:55:15 GMT 39.701378 -85.804688 36,000 261 352 0
2020-02-20 17:55:11 GMT 39.702587 -85.795471 36,000 261 352 0
2020-02-20 17:55:08 GMT 39.703098 -85.791321 36,000 261 352 0
2020-02-20 17:55:04 GMT 39.704224 -85.782562 36,000 261 352 0
2020-02-20 17:55:01 GMT 39.705276 -85.774323 36,000 261 352 0
2020-02-20 17:54:58 GMT 39.706219 -85.767151 36,000 261 352 0
2020-02-20 17:54:53 GMT 39.707016 -85.760887 36,000 261 352 -64
2020-02-20 17:54:50 GMT 39.707802 -85.754639 36,000 261 352 0
2020-02-20 17:54:47 GMT 39.709259 -85.743393 36,000 261 352 64
2020-02-20 17:54:43 GMT 39.709900 -85.738380 36,000 261 352 0
2020-02-20 17:54:40 GMT 39.711731 -85.724228 36,000 261 352 0
2020-02-20 17:54:33 GMT 39.712597 -85.717163 36,000 261 352 0
2020-02-20 17:54:30 GMT 39.713425 -85.710854 36,000 261 352 0
2020-02-20 17:54:27 GMT 39.714317 -85.703796 36,000 261 352 0
2020-02-20 17:54:23 GMT 39.715996 -85.690430 36,000 261 352 64
2020-02-20 17:54:19 GMT 39.716446 -85.686790 36,000 261 352 0
2020-02-20 17:54:16 GMT 39.717087 -85.681656 36,000 261 352 0
2020-02-20 17:54:13 GMT 39.717766 -85.676270 36,000 261 352 0
2020-02-20 17:54:07 GMT 39.719330 -85.664162 36,000 261 352 0
2020-02-20 17:54:03 GMT 39.720474 -85.654968 36,000 261 353 64
2020-02-20 17:54:00 GMT 39.721344 -85.648277 36,000 261 353 64
2020-02-20 17:53:56 GMT 39.722488 -85.639206 36,000 261 353 0
2020-02-20 17:53:53 GMT 39.723072 -85.634705 36,000 261 353 0
2020-02-20 17:53:48 GMT 39.724594 -85.622368 36,000 261 353 0
2020-02-20 17:53:42 GMT 39.725819 -85.612915 36,000 261 353 0
2020-02-20 17:53:39 GMT 39.726608 -85.606544 36,000 261 353 0
2020-02-20 17:53:36 GMT 39.727661 -85.598183 36,000 261 353 0
2020-02-20 17:53:33 GMT 39.729767 -85.581467 36,000 261 353 0
2020-02-20 17:53:30 GMT 39.729767 -85.581467 36,000 261 352 0
2020-02-20 17:53:27 GMT 39.730053 -85.579407 36,000 261 352 0
2020-02-20 17:53:24 GMT 39.731461 -85.568092 36,000 261 352 0
2020-02-20 17:53:18 GMT 39.732334 -85.561157 36,000 261 352 0
2020-02-20 17:53:14 GMT 39.733475 -85.552330 36,000 261 352 0
2020-02-20 17:53:10 GMT 39.734711 -85.542358 36,000 261 352 -64
2020-02-20 17:53:04 GMT 39.736816 -85.525642 36,000 261 353 0
2020-02-20 17:52:58 GMT 39.738247 -85.514343 36,000 261 353 -64
2020-02-20 17:52:54 GMT 39.739243 -85.506355 36,000 261 353 0
2020-02-20 17:52:48 GMT 39.740341 -85.497154 36,000 261 353 0
2020-02-20 17:52:45 GMT 39.741226 -85.490173 36,000 261 353 64
2020-02-20 17:52:42 GMT 39.741783 -85.485840 36,000 261 353 64
2020-02-20 17:52:39 GMT 39.744049 -85.467842 36,000 261 353 -64
2020-02-20 17:52:34 GMT 39.744049 -85.467842 36,000 261 353 -64
2020-02-20 17:52:27 GMT 39.745743 -85.454224 36,000 261 353 0
2020-02-20 17:52:24 GMT 39.746658 -85.446945 36,000 261 352 0
2020-02-20 17:52:21 GMT 39.747253 -85.441925 36,000 261 352 0
2020-02-20 17:52:16 GMT 39.748535 -85.431953 36,000 261 353 0
2020-02-20 17:52:11 GMT 39.750397 -85.416687 36,000 261 353 -64
2020-02-20 17:52:04 GMT 39.752838 -85.397026 36,000 261 352 64
2020-02-20 17:52:01 GMT 39.753700 -85.389954 36,000 261 352 0
2020-02-20 17:51:57 GMT 39.753700 -85.389954 36,000 261 352 0
2020-02-20 17:51:54 GMT 39.754440 -85.384369 36,000 261 352 0
2020-02-20 17:51:49 GMT 39.756310 -85.369019 36,000 261 352 0
2020-02-20 17:51:43 GMT 39.757324 -85.360962 36,000 261 352 0
2020-02-20 17:51:39 GMT 39.758240 -85.353500 36,000 261 352 0
2020-02-20 17:51:36 GMT 39.759148 -85.346375 36,000 261 351 64
2020-02-20 17:51:31 GMT 39.760254 -85.337677 36,000 261 351 64
2020-02-20 17:51:28 GMT 39.760918 -85.332275 36,000 261 351 64
2020-02-20 17:51:25 GMT 39.761765 -85.325317 36,000 261 351 0
2020-02-20 17:51:18 GMT 39.764420 -85.303520 36,000 261 349 0
2020-02-20 17:51:15 GMT 39.765564 -85.294388 36,000 261 349 0
2020-02-20 17:51:11 GMT 39.765564 -85.294388 36,000 261 351 0
2020-02-20 17:51:08 GMT 39.766068 -85.290207 36,000 261 351 0
2020-02-20 17:51:04 GMT 39.767387 -85.279846 36,000 261 350 0
2020-02-20 17:51:01 GMT 39.767902 -85.275696 36,000 261 350 64
2020-02-20 17:50:58 GMT 39.768951 -85.267159 36,000 261 350 64
2020-02-20 17:50:53 GMT 39.770096 -85.257851 36,000 261 350 64
2020-02-20 17:50:50 GMT 39.770782 -85.251999 36,000 261 350 64
2020-02-20 17:50:47 GMT 39.771484 -85.246643 36,000 261 350 64
2020-02-20 17:50:42 GMT 39.772705 -85.236237 36,000 262 350 -64
2020-02-20 17:50:39 GMT 39.773438 -85.230438 36,000 261 350 -64
2020-02-20 17:50:36 GMT 39.774464 -85.221741 36,000 261 350 -64
2020-02-20 17:50:32 GMT 39.775490 -85.213440 36,000 261 350 0
2020-02-20 17:50:26 GMT 39.776871 -85.202377 36,000 261 350 64
2020-02-20 17:50:19 GMT 39.778793 -85.186493 36,000 261 350 0
2020-02-20 17:50:16 GMT 39.780472 -85.173035 36,000 261 350 0
2020-02-20 17:50:11 GMT 39.780472 -85.173035 36,000 261 350 0
2020-02-20 17:50:07 GMT 39.781631 -85.163391 36,000 261 350 0
2020-02-20 17:50:04 GMT 39.782410 -85.156822 36,000 261 350 -64
2020-02-20 17:49:58 GMT 39.784882 -85.136757 36,000 261 349 0
2020-02-20 17:49:55 GMT 39.784882 -85.136757 36,000 261 349 0
2020-02-20 17:49:50 GMT 39.785934 -85.128456 36,000 261 349 0
2020-02-20 17:49:47 GMT 39.786713 -85.121887 36,000 262 349 0
2020-02-20 17:49:44 GMT 39.787720 -85.113533 36,000 262 349 0
2020-02-20 17:49:40 GMT 39.788662 -85.105652 36,000 262 349 0
2020-02-20 17:49:37 GMT 39.789413 -85.099442 36,000 262 349 0
2020-02-20 17:49:34 GMT 39.790199 -85.093201 36,000 261 349 64
2020-02-20 17:49:26 GMT 39.792805 -85.071716 36,000 261 349 0
2020-02-20 17:49:23 GMT 39.792805 -85.071716 36,000 261 349 0
2020-02-20 17:49:15 GMT 39.794861 -85.054718 36,000 261 349 0
2020-02-20 17:49:12 GMT 39.796249 -85.043518 36,000 262 349 0
2020-02-20 17:49:09 GMT 39.797974 -85.029045 36,000 262 349 0
2020-02-20 17:49:02 GMT 39.797974 -85.029045 36,000 262 350 0
2020-02-20 17:48:57 GMT 39.799484 -85.016563 36,000 262 350 64
2020-02-20 17:48:54 GMT 39.799850 -85.013397 36,000 262 350 0
2020-02-20 17:48:51 GMT 39.800720 -85.006226 36,000 262 350 0
2020-02-20 17:48:48 GMT 39.801498 -84.999969 36,000 261 350 0
2020-02-20 17:48:45 GMT 39.802505 -84.991669 36,000 262 350 0
2020-02-20 17:48:41 GMT 39.804771 -84.973022 36,000 262 350 0
2020-02-20 17:48:36 GMT 39.805984 -84.962646 36,000 262 350 0
2020-02-20 17:48:31 GMT 39.805984 -84.962646 36,000 262 350 0
2020-02-20 17:48:23 GMT 39.807983 -84.946411 36,000 262 350 0
2020-02-20 17:48:19 GMT 39.808823 -84.939362 36,000 261 350 0
2020-02-20 17:48:11 GMT 39.810608 -84.924614 36,000 262 350 0
2020-02-20 17:48:08 GMT 39.811428 -84.917358 36,000 262 350 0
2020-02-20 17:48:03 GMT 39.814133 -84.894699 36,000 262 350 0
2020-02-20 17:47:58 GMT 39.814133 -84.894699 36,000 262 350 -64
2020-02-20 17:47:52 GMT 39.815708 -84.881653 36,000 262 350 0
2020-02-20 17:47:47 GMT 39.816925 -84.871475 36,000 262 350 0
2020-02-20 17:47:42 GMT 39.818115 -84.861320 36,000 262 350 0
2020-02-20 17:47:38 GMT 39.818893 -84.854698 36,000 262 350 0
2020-02-20 17:47:34 GMT 39.819901 -84.846397 36,000 262 350 0
2020-02-20 17:47:31 GMT 39.820908 -84.838158 36,000 262 350 64
2020-02-20 17:47:28 GMT 39.821621 -84.831909 36,000 262 350 0
2020-02-20 17:47:25 GMT 39.822372 -84.825676 36,000 262 350 0
2020-02-20 17:47:20 GMT 39.823334 -84.817436 36,000 262 349 0
2020-02-20 17:47:10 GMT 39.826183 -84.793823 36,000 262 349 0
2020-02-20 17:47:07 GMT 39.826694 -84.789673 36,000 262 349 0
2020-02-20 17:47:04 GMT 39.827255 -84.784668 36,000 262 349 -64
2020-02-20 17:47:01 GMT 39.829304 -84.767273 36,000 262 349 0
2020-02-20 17:46:57 GMT 39.829304 -84.767273 36,000 262 349 0
2020-02-20 17:46:53 GMT 39.830093 -84.760681 36,000 262 349 0
2020-02-20 17:46:49 GMT 39.831074 -84.752380 36,000 262 349 0
2020-02-20 17:46:46 GMT 39.831894 -84.745369 36,000 262 349 64
2020-02-20 17:46:38 GMT 39.833679 -84.730446 36,000 262 349 0
2020-02-20 17:46:35 GMT 39.834423 -84.724243 36,000 262 349 0
2020-02-20 17:46:29 GMT 39.836006 -84.710999 36,000 262 349 0
2020-02-20 17:46:25 GMT 39.836983 -84.702698 36,000 262 349 0
2020-02-20 17:46:21 GMT 39.837799 -84.695694 36,000 262 349 0
2020-02-20 17:46:18 GMT 39.838520 -84.689514 36,000 262 349 64
2020-02-20 17:46:14 GMT 39.839539 -84.680885 36,000 262 349 0
2020-02-20 17:46:11 GMT 39.840546 -84.672646 36,000 262 349 0
2020-02-20 17:46:08 GMT 39.841141 -84.667450 36,000 262 349 0
2020-02-20 17:46:04 GMT 39.842243 -84.658081 36,000 262 349 0
2020-02-20 17:46:00 GMT 39.843037 -84.651306 36,000 262 349 0
2020-02-20 17:45:56 GMT 39.843979 -84.643448 36,000 262 348 0
2020-02-20 17:45:53 GMT 39.844711 -84.637207 36,000 262 349 0
2020-02-20 17:45:46 GMT 39.846359 -84.622849 36,000 262 349 0
2020-02-20 17:45:41 GMT 39.847736 -84.610840 36,000 262 349 0
2020-02-20 17:45:35 GMT 39.848949 -84.600708 36,000 262 349 0
2020-02-20 17:45:31 GMT 39.849972 -84.591736 36,000 262 350 -64
2020-02-20 17:45:27 GMT 39.851089 -84.582458 36,000 262 350 0
2020-02-20 17:45:20 GMT 39.852859 -84.567505 36,000 262 350 0
2020-02-20 17:45:16 GMT 39.853928 -84.558411 36,000 262 350 0
2020-02-20 17:45:10 GMT 39.855278 -84.546875 36,000 262 349 0
2020-02-20 17:45:05 GMT 39.856384 -84.537224 36,000 262 348 0
2020-02-20 17:44:59 GMT 39.858074 -84.522766 36,000 262 348 0
2020-02-20 17:44:55 GMT 39.858902 -84.515671 36,000 262 348 0
2020-02-20 17:44:48 GMT 39.860306 -84.503662 36,000 262 348 0
2020-02-20 17:44:42 GMT 39.861786 -84.490837 36,000 262 348 0
2020-02-20 17:44:39 GMT 39.863846 -84.472801 36,000 262 347 0
2020-02-20 17:44:33 GMT 39.863846 -84.472801 36,000 262 347 0
2020-02-20 17:44:28 GMT 39.865311 -84.460266 36,000 262 347 0
2020-02-20 17:44:18 GMT 39.867783 -84.438950 36,000 262 348 0
2020-02-20 17:44:13 GMT 39.869064 -84.428024 36,000 262 347 0
2020-02-20 17:44:08 GMT 39.870026 -84.419785 36,000 262 347 0
2020-02-20 17:44:05 GMT 39.870987 -84.411545 36,000 262 347 -64
2020-02-20 17:44:00 GMT 39.871803 -84.404480 36,000 262 347 -64
2020-02-20 17:43:56 GMT 39.873016 -84.393799 36,000 262 347 0
2020-02-20 17:43:52 GMT 39.873901 -84.386353 36,000 262 347 64
2020-02-20 17:43:48 GMT 39.875427 -84.372734 36,000 262 347 0
2020-02-20 17:43:42 GMT 39.876205 -84.366104 36,000 262 347 0
2020-02-20 17:43:35 GMT 39.877991 -84.350456 36,000 262 347 0
2020-02-20 17:43:30 GMT 39.879318 -84.339111 36,000 262 347 0
2020-02-20 17:43:26 GMT 39.880783 -84.326515 36,000 262 347 0
2020-02-20 17:43:20 GMT 39.881607 -84.319229 36,000 262 347 0
2020-02-20 17:43:16 GMT 39.882385 -84.312424 36,000 262 347 0
2020-02-20 17:43:13 GMT 39.883209 -84.305023 36,000 262 347 0
2020-02-20 17:43:09 GMT 39.884003 -84.297974 36,000 262 347 0
2020-02-20 17:43:04 GMT 39.885315 -84.286873 36,000 262 347 0
2020-02-20 17:43:01 GMT 39.886005 -84.280640 36,000 262 347 0
2020-02-20 17:42:58 GMT 39.886471 -84.276550 36,000 262 347 0
2020-02-20 17:42:53 GMT 39.887695 -84.265556 36,000 262 347 0
2020-02-20 17:42:50 GMT 39.888474 -84.258751 36,000 262 347 0
2020-02-20 17:42:46 GMT 39.890240 -84.243469 36,000 262 347 0
2020-02-20 17:42:43 GMT 39.890240 -84.243469 36,000 262 347 0
2020-02-20 17:42:40 GMT 39.891266 -84.234375 36,000 262 347 64
2020-02-20 17:42:36 GMT 39.891815 -84.229851 36,000 262 347 0
2020-02-20 17:42:32 GMT 39.892799 -84.221313 36,000 262 347 0
2020-02-20 17:42:28 GMT 39.893826 -84.212280 36,000 262 347 64
2020-02-20 17:42:25 GMT 39.895294 -84.199280 36,000 262 347 0
2020-02-20 17:42:22 GMT 39.895294 -84.199280 36,000 262 347 -64
2020-02-20 17:42:17 GMT 39.896851 -84.185188 36,000 262 347 0
2020-02-20 17:42:11 GMT 39.897640 -84.178162 36,000 262 347 0
2020-02-20 17:42:05 GMT 39.900146 -84.156288 36,000 262 347 0
2020-02-20 17:42:01 GMT 39.900146 -84.156288 36,000 262 348 64
2020-02-20 17:41:58 GMT 39.900669 -84.151733 36,000 262 348 0
2020-02-20 17:41:54 GMT 39.901657 -84.143036 36,000 262 348 0
2020-02-20 17:41:50 GMT 39.902618 -84.134735 36,000 262 348 0
2020-02-20 17:41:47 GMT 39.903370 -84.127686 36,000 262 348 0
2020-02-20 17:41:43 GMT 39.905090 -84.112343 36,000 262 348 0
2020-02-20 17:41:40 GMT 39.905090 -84.112343 36,000 262 348 0
2020-02-20 17:41:36 GMT 39.905975 -84.104492 36,000 262 348 0
2020-02-20 17:41:32 GMT 39.907463 -84.091248 36,000 262 348 0
2020-02-20 17:41:25 GMT 39.908581 -84.081299 36,000 262 348 0
2020-02-20 17:41:21 GMT 39.910442 -84.064697 36,000 262 348 0
2020-02-20 17:41:17 GMT 39.911636 -84.054306 36,000 262 348 0
2020-02-20 17:41:12 GMT 39.911636 -84.054306 36,000 262 348 0
2020-02-20 17:41:08 GMT 39.912460 -84.046844 36,000 262 348 0
2020-02-20 17:41:04 GMT 39.913330 -84.039383 36,000 262 348 0
2020-02-20 17:41:00 GMT 39.914448 -84.029114 36,000 262 348 0
2020-02-20 17:40:57 GMT 39.914959 -84.024841 36,000 262 348 0
2020-02-20 17:40:53 GMT 39.915710 -84.017822 36,000 262 348 0
2020-02-20 17:40:47 GMT 39.917404 -84.002838 36,000 262 348 0
2020-02-20 17:40:44 GMT 39.918171 -83.995850 36,000 262 348 0
2020-02-20 17:40:39 GMT 39.919327 -83.985580 36,000 262 348 0
2020-02-20 17:40:36 GMT 39.919785 -83.981461 36,000 262 348 0
2020-02-20 17:40:33 GMT 39.920425 -83.975494 36,000 262 348 0
2020-02-20 17:40:30 GMT 39.921337 -83.967590 36,000 262 348 0
2020-02-20 17:40:26 GMT 39.922165 -83.959846 36,000 262 348 0
2020-02-20 17:40:23 GMT 39.922760 -83.954773 36,000 262 348 0
2020-02-20 17:40:19 GMT 39.923897 -83.944412 36,000 262 348 0
2020-02-20 17:40:16 GMT 39.925186 -83.932434 36,000 262 348 0
2020-02-20 17:40:08 GMT 39.926193 -83.923401 36,000 263 347 0
2020-02-20 17:40:05 GMT 39.927063 -83.915382 36,000 262 348 64
2020-02-20 17:40:00 GMT 39.927933 -83.907532 36,000 262 347 -64
2020-02-20 17:39:57 GMT 39.928783 -83.899651 36,000 262 347 -64
2020-02-20 17:39:51 GMT 39.929855 -83.889793 36,000 262 347 64
2020-02-20 17:39:46 GMT 39.931183 -83.877930 36,000 263 347 0
2020-02-20 17:39:42 GMT 39.932045 -83.870003 36,000 263 347 0
2020-02-20 17:39:36 GMT 39.933472 -83.856262 36,000 263 347 0
2020-02-20 17:39:32 GMT 39.934250 -83.848877 36,000 263 347 -64
2020-02-20 17:39:28 GMT 39.935303 -83.838547 36,000 263 347 -64
2020-02-20 17:39:25 GMT 39.935768 -83.834358 36,000 263 347 -64
2020-02-20 17:39:21 GMT 39.937630 -83.817757 36,000 263 347 0
2020-02-20 17:39:17 GMT 39.937630 -83.817757 36,000 262 347 64
2020-02-20 17:39:14 GMT 39.938190 -83.812759 36,000 262 347 64
2020-02-20 17:39:11 GMT 39.939167 -83.804520 36,000 263 347 0
2020-02-20 17:39:05 GMT 39.940331 -83.793098 36,000 264 347 0
2020-02-20 17:39:02 GMT 39.941635 -83.778801 36,000 265 346 0
2020-02-20 17:38:55 GMT 39.942287 -83.770500 36,000 265 346 64
2020-02-20 17:38:51 GMT 39.942719 -83.764282 36,000 266 347 64
2020-02-20 17:38:44 GMT 39.943684 -83.748093 36,000 267 346 -64
2020-02-20 17:38:41 GMT 39.943962 -83.741348 36,000 268 347 0
2020-02-20 17:38:38 GMT 39.944504 -83.726807 36,000 268 347 0
2020-02-20 17:38:34 GMT 39.944504 -83.726807 36,000 268 347 -64
2020-02-20 17:38:31 GMT 39.944706 -83.721504 36,000 268 346 -64
2020-02-20 17:38:27 GMT 39.945030 -83.713074 36,000 268 346 -64
2020-02-20 17:38:23 GMT 39.945374 -83.703613 36,000 268 346 64
2020-02-20 17:38:20 GMT 39.945591 -83.697403 36,000 268 346 64
2020-02-20 17:38:15 GMT 39.945915 -83.688919 36,000 268 346 0
2020-02-20 17:38:12 GMT 39.946152 -83.682739 36,000 268 346 0
2020-02-20 17:38:07 GMT 39.946522 -83.673126 36,000 268 346 0
2020-02-20 17:38:02 GMT 39.946987 -83.660011 36,000 268 345 0
2020-02-20 17:37:58 GMT 39.947220 -83.654083 36,000 268 345 0
2020-02-20 17:37:54 GMT 39.947872 -83.637482 36,000 268 345 0
2020-02-20 17:37:47 GMT 39.948151 -83.629990 36,000 268 345 0
2020-02-20 17:37:42 GMT 39.948669 -83.615540 36,000 268 344 -64
2020-02-20 17:37:36 GMT 39.948895 -83.609390 36,000 268 344 0
2020-02-20 17:37:33 GMT 39.949448 -83.594116 36,000 268 342 0
2020-02-20 17:37:29 GMT 39.949448 -83.594116 36,000 268 344 -64
2020-02-20 17:37:26 GMT 39.949734 -83.586235 36,000 268 344 -64
2020-02-20 17:37:22 GMT 39.949951 -83.580017 36,000 268 344 -64
2020-02-20 17:37:19 GMT 39.950180 -83.573364 36,000 268 344 0
2020-02-20 17:37:13 GMT 39.950993 -83.550774 36,000 268 343 0
2020-02-20 17:37:08 GMT 39.950993 -83.550774 36,000 268 343 0
2020-02-20 17:37:05 GMT 39.951317 -83.542412 36,000 268 343 0
2020-02-20 17:37:02 GMT 39.951454 -83.538414 36,000 268 343 -64
2020-02-20 17:36:59 GMT 39.951736 -83.530052 36,000 268 343 -64
2020-02-20 17:36:55 GMT 39.952057 -83.521545 36,000 268 343 -64
2020-02-20 17:36:51 GMT 39.952339 -83.513695 36,000 268 342 64
2020-02-20 17:36:47 GMT 39.952606 -83.507507 36,000 268 342 0
2020-02-20 17:36:44 GMT 39.952805 -83.501335 36,000 268 342 0
2020-02-20 17:36:41 GMT 39.953037 -83.495468 36,000 268 342 0
2020-02-20 17:36:38 GMT 39.953293 -83.487671 36,000 268 342 0
2020-02-20 17:36:34 GMT 39.953644 -83.479050 36,000 268 342 0
2020-02-20 17:36:29 GMT 39.954155 -83.464386 36,000 268 342 0
2020-02-20 17:36:21 GMT 39.954575 -83.451538 36,000 268 342 64
2020-02-20 17:36:18 GMT 39.954712 -83.447388 36,000 268 342 64
2020-02-20 17:36:15 GMT 39.954903 -83.442909 36,000 268 342 0
2020-02-20 17:36:08 GMT 39.955490 -83.426025 36,000 268 342 0
2020-02-20 17:36:02 GMT 39.955925 -83.413261 36,000 268 342 0
2020-02-20 17:35:58 GMT 39.956203 -83.405891 36,000 268 342 0
2020-02-20 17:35:55 GMT 39.956360 -83.401306 36,000 268 342 0
2020-02-20 17:35:52 GMT 39.956772 -83.388977 36,000 268 342 -64
2020-02-20 17:35:46 GMT 39.957088 -83.379486 36,000 268 342 0
2020-02-20 17:35:43 GMT 39.957184 -83.377563 36,000 268 342 0
2020-02-20 17:35:39 GMT 39.957508 -83.367317 36,000 268 342 0
2020-02-20 17:35:36 GMT 39.957733 -83.361023 36,000 268 342 0
2020-02-20 17:35:33 GMT 39.958008 -83.352966 36,000 268 342 0
2020-02-20 17:35:30 GMT 39.958145 -83.348877 36,000 268 342 0
2020-02-20 17:35:27 GMT 39.958466 -83.340637 36,000 268 342 0
2020-02-20 17:35:24 GMT 39.958904 -83.326866 36,000 268 342 0
2020-02-20 17:35:20 GMT 39.958904 -83.326866 36,000 268 342 0
2020-02-20 17:35:17 GMT 39.959370 -83.312881 36,000 268 342 0
2020-02-20 17:35:13 GMT 39.959370 -83.312881 36,000 268 342 0
2020-02-20 17:35:08 GMT 39.959702 -83.303650 36,000 268 342 0
2020-02-20 17:35:05 GMT 39.959930 -83.297462 36,000 268 342 0
2020-02-20 17:34:58 GMT 39.960487 -83.281670 36,000 268 342 0
2020-02-20 17:34:55 GMT 39.960846 -83.271545 36,000 268 342 0
2020-02-20 17:34:49 GMT 39.961094 -83.264381 36,000 268 342 -64
2020-02-20 17:34:45 GMT 39.961372 -83.256142 36,000 268 342 0
2020-02-20 17:34:42 GMT 39.961559 -83.251213 36,000 268 342 0
2020-02-20 17:34:38 GMT 39.961929 -83.240540 36,000 268 342 0
2020-02-20 17:34:35 GMT 39.962082 -83.236023 36,000 268 342 0
2020-02-20 17:34:31 GMT 39.962357 -83.229431 36,000 268 342 0
2020-02-20 17:34:27 GMT 39.962952 -83.212158 36,000 268 342 64
2020-02-20 17:34:24 GMT 39.962952 -83.212158 36,000 268 342 0
2020-02-20 17:34:15 GMT 39.963501 -83.190186 36,000 269 342 0
2020-02-20 17:34:12 GMT 39.963795 -83.174744 36,000 269 342 64
2020-02-20 17:34:06 GMT 39.963795 -83.174744 36,000 269 342 0
2020-02-20 17:34:03 GMT 39.963913 -83.169434 36,000 269 342 0
2020-02-20 17:34:00 GMT 39.964005 -83.162964 36,000 269 342 0
2020-02-20 17:33:57 GMT 39.964096 -83.157104 36,000 269 342 -64
2020-02-20 17:33:52 GMT 39.964279 -83.148010 36,000 269 342 0
2020-02-20 17:33:44 GMT 39.964645 -83.125793 36,000 269 342 0
2020-02-20 17:33:34 GMT 39.964966 -83.108582 36,000 269 342 0
2020-02-20 17:33:31 GMT 39.965004 -83.104141 36,000 269 342 0
2020-02-20 17:33:26 GMT 39.965240 -83.088196 36,000 269 342 0
2020-02-20 17:33:20 GMT 39.965332 -83.083069 36,000 269 342 0
2020-02-20 17:33:14 GMT 39.965515 -83.068298 36,000 269 342 0
2020-02-20 17:33:11 GMT 39.965607 -83.061325 36,000 269 341 0
2020-02-20 17:33:05 GMT 39.965836 -83.049377 36,000 268 341 0
2020-02-20 17:33:02 GMT 39.966019 -83.042847 36,000 268 341 0
2020-02-20 17:32:59 GMT 39.966213 -83.037537 36,000 268 341 0
2020-02-20 17:32:53 GMT 39.966587 -83.025177 36,000 268 342 64
2020-02-20 17:32:50 GMT 39.966843 -83.018188 36,000 268 342 0
2020-02-20 17:32:47 GMT 39.967007 -83.012947 36,000 268 342 -64
2020-02-20 17:32:42 GMT 39.967239 -83.004646 36,000 268 342 0
2020-02-20 17:32:39 GMT 39.967468 -82.998085 36,000 268 342 0
2020-02-20 17:32:36 GMT 39.967758 -82.989502 36,000 268 342 0
2020-02-20 17:32:33 GMT 39.967888 -82.985107 36,000 268 342 0
2020-02-20 17:32:29 GMT 39.968216 -82.975052 36,000 268 342 0
2020-02-20 17:32:26 GMT 39.968636 -82.961823 36,000 268 343 0
2020-02-20 17:32:22 GMT 39.968636 -82.961823 36,000 268 343 0
2020-02-20 17:32:19 GMT 39.968811 -82.955627 36,000 268 343 0
2020-02-20 17:32:15 GMT 39.969147 -82.946404 36,000 268 343 0
2020-02-20 17:32:11 GMT 39.969589 -82.931885 36,000 268 343 64
2020-02-20 17:32:07 GMT 39.969589 -82.931885 36,000 268 343 64
2020-02-20 17:32:00 GMT 39.970413 -82.906982 36,000 268 343 0
2020-02-20 17:31:50 GMT 39.970734 -82.897095 36,000 268 343 64
2020-02-20 17:31:47 GMT 39.970917 -82.890907 36,000 268 343 0
2020-02-20 17:31:43 GMT 39.971191 -82.881470 36,000 268 343 0
2020-02-20 17:31:39 GMT 39.971382 -82.875244 36,000 268 343 0
2020-02-20 17:31:35 GMT 39.971752 -82.863693 36,000 268 343 0
2020-02-20 17:31:30 GMT 39.972080 -82.853142 36,000 268 343 0
2020-02-20 17:31:26 GMT 39.972263 -82.847214 36,000 268 343 64
2020-02-20 17:31:21 GMT 39.972637 -82.834854 36,000 268 343 0
2020-02-20 17:31:18 GMT 39.972778 -82.830734 36,000 268 343 0
2020-02-20 17:31:15 GMT 39.972977 -82.823730 36,000 268 343 0
2020-02-20 17:31:08 GMT 39.973480 -82.808044 36,000 268 343 -64
2020-02-20 17:31:04 GMT 39.973709 -82.799805 36,000 268 343 -64
2020-02-20 17:30:57 GMT 39.974167 -82.785095 36,000 268 344 0
2020-02-20 17:30:53 GMT 39.974350 -82.779297 36,000 268 344 0
2020-02-20 17:30:50 GMT 39.974716 -82.766785 36,000 268 344 0
2020-02-20 17:30:44 GMT 39.974945 -82.759338 36,000 268 344 0
2020-02-20 17:30:40 GMT 39.975220 -82.750244 36,000 268 344 0
2020-02-20 17:30:37 GMT 39.975384 -82.744034 36,000 268 344 0
2020-02-20 17:30:34 GMT 39.975571 -82.738220 36,000 268 344 0
2020-02-20 17:30:29 GMT 39.975861 -82.727905 36,000 268 344 -64
2020-02-20 17:30:26 GMT 39.975998 -82.723755 36,000 268 344 0
2020-02-20 17:30:22 GMT 39.976269 -82.715065 36,000 268 344 0
2020-02-20 17:30:17 GMT 39.976639 -82.703064 36,000 268 345 0
2020-02-20 17:30:12 GMT 39.976959 -82.693115 36,000 268 345 0
2020-02-20 17:30:08 GMT 39.977108 -82.687721 36,000 268 345 0
2020-02-20 17:30:04 GMT 39.977341 -82.678612 36,000 268 345 0
2020-02-20 17:30:00 GMT 39.977665 -82.667809 36,000 268 345 0
2020-02-20 17:29:56 GMT 39.977898 -82.660507 36,000 268 345 -64
2020-02-20 17:29:53 GMT 39.978039 -82.654579 36,000 268 344 0
2020-02-20 17:29:50 GMT 39.978271 -82.647148 36,000 268 344 64
2020-02-20 17:29:45 GMT 39.978687 -82.632416 36,000 268 344 0
2020-02-20 17:29:37 GMT 39.979019 -82.621033 36,000 268 344 0
2020-02-20 17:29:34 GMT 39.979156 -82.616623 36,000 268 344 0
2020-02-20 17:29:31 GMT 39.979435 -82.607384 36,000 268 344 -64
2020-02-20 17:29:26 GMT 39.979668 -82.599899 36,000 268 344 0
2020-02-20 17:29:23 GMT 39.979843 -82.592834 36,000 268 344 0
2020-02-20 17:29:20 GMT 39.980072 -82.584656 36,000 268 344 0
2020-02-20 17:29:16 GMT 39.980347 -82.576355 36,000 268 344 0
2020-02-20 17:29:13 GMT 39.980438 -82.572205 36,000 268 344 0
2020-02-20 17:29:10 GMT 39.980667 -82.564697 36,000 268 344 0
2020-02-20 17:29:07 GMT 39.981033 -82.551453 36,000 268 344 0
2020-02-20 17:29:01 GMT 39.981400 -82.538269 36,000 269 344 -64
2020-02-20 17:28:57 GMT 39.981400 -82.538269 36,000 269 344 0
2020-02-20 17:28:54 GMT 39.981529 -82.532913 36,000 269 344 0
2020-02-20 17:28:49 GMT 39.981812 -82.523376 36,000 268 343 0
2020-02-20 17:28:45 GMT 39.982269 -82.506042 36,000 268 343 0
2020-02-20 17:28:42 GMT 39.982269 -82.506042 36,000 268 343 0
2020-02-20 17:28:38 GMT 39.982498 -82.497925 36,000 268 343 0
2020-02-20 17:28:35 GMT 39.982693 -82.491653 36,000 268 343 0
2020-02-20 17:28:29 GMT 39.983253 -82.471809 36,000 268 343 0
2020-02-20 17:28:25 GMT 39.983253 -82.471809 36,000 268 343 0
2020-02-20 17:28:21 GMT 39.983482 -82.462944 36,000 268 343 64
2020-02-20 17:28:15 GMT 39.983826 -82.451660 36,000 268 343 0
2020-02-20 17:28:12 GMT 39.983963 -82.446655 36,000 268 343 -64
2020-02-20 17:28:09 GMT 39.984146 -82.439270 36,000 268 343 -64
2020-02-20 17:28:06 GMT 39.984283 -82.434326 36,000 268 343 -64
2020-02-20 17:28:02 GMT 39.984554 -82.425674 36,000 268 343 0
2020-02-20 17:27:58 GMT 39.984787 -82.417435 36,000 268 343 0
2020-02-20 17:27:55 GMT 39.984924 -82.411255 36,000 268 343 0
2020-02-20 17:27:52 GMT 39.985161 -82.403389 36,000 268 343 0
2020-02-20 17:27:47 GMT 39.985382 -82.393921 36,000 268 343 0
2020-02-20 17:27:43 GMT 39.985611 -82.384888 36,000 269 343 0
2020-02-20 17:27:36 GMT 39.985950 -82.372246 36,000 269 343 0
2020-02-20 17:27:32 GMT 39.986183 -82.362190 36,000 269 342 0
2020-02-20 17:27:25 GMT 39.986511 -82.349022 36,000 269 342 0
2020-02-20 17:27:21 GMT 39.986744 -82.340096 36,000 268 342 0
2020-02-20 17:27:17 GMT 39.986984 -82.331360 36,000 268 342 64
2020-02-20 17:27:13 GMT 39.987167 -82.324036 36,000 268 342 64
2020-02-20 17:27:08 GMT 39.987488 -82.313232 36,000 268 342 0
2020-02-20 17:27:03 GMT 39.987946 -82.296021 36,000 268 342 0
2020-02-20 17:26:59 GMT 39.987946 -82.296021 36,000 268 342 0
2020-02-20 17:26:55 GMT 39.988232 -82.285728 36,000 268 342 0
2020-02-20 17:26:52 GMT 39.988327 -82.281670 36,000 268 342 64
2020-02-20 17:26:49 GMT 39.988697 -82.267494 36,000 268 342 64
2020-02-20 17:26:45 GMT 39.988697 -82.267494 36,000 269 342 64
2020-02-20 17:26:42 GMT 39.988907 -82.258850 36,000 269 342 0
2020-02-20 17:26:37 GMT 39.989136 -82.249817 36,000 269 342 0
2020-02-20 17:26:31 GMT 39.989456 -82.237488 36,000 268 342 0
2020-02-20 17:26:28 GMT 39.989677 -82.230484 36,000 268 342 64
2020-02-20 17:26:23 GMT 39.989910 -82.221489 36,000 268 342 -64
2020-02-20 17:26:19 GMT 39.990093 -82.214005 36,000 268 342 0
2020-02-20 17:26:16 GMT 39.990234 -82.207512 36,000 268 342 0
2020-02-20 17:26:13 GMT 39.990417 -82.201233 36,000 268 342 0
2020-02-20 17:26:09 GMT 39.990654 -82.192589 36,000 268 342 0
2020-02-20 17:26:05 GMT 39.990829 -82.185608 36,000 269 342 0
2020-02-20 17:26:02 GMT 39.990978 -82.180229 36,000 268 342 -64
2020-02-20 17:25:56 GMT 39.991489 -82.158257 36,000 269 342 0
2020-02-20 17:25:48 GMT 39.991699 -82.150391 36,000 269 342 0
2020-02-20 17:25:45 GMT 39.991882 -82.143005 36,000 269 342 0
2020-02-20 17:25:42 GMT 39.991959 -82.138474 36,000 269 341 64
2020-02-20 17:25:37 GMT 39.992191 -82.128487 36,000 269 341 -64
2020-02-20 17:25:31 GMT 39.992523 -82.115784 36,000 269 341 -64
2020-02-20 17:25:28 GMT 39.992706 -82.107544 36,000 269 341 0
2020-02-20 17:25:22 GMT 39.993027 -82.096458 36,000 269 341 0
2020-02-20 17:25:16 GMT 39.993259 -82.085846 36,000 269 341 0
2020-02-20 17:25:12 GMT 39.993542 -82.073738 36,000 269 341 0
2020-02-20 17:25:07 GMT 39.993771 -82.064499 36,000 269 341 64
2020-02-20 17:25:04 GMT 39.993896 -82.059326 36,000 269 341 64
2020-02-20 17:24:59 GMT 39.994171 -82.048645 36,000 269 341 -64
2020-02-20 17:24:54 GMT 39.994377 -82.039284 36,000 268 341 0
2020-02-20 17:24:51 GMT 39.994583 -82.031311 36,000 269 341 0
2020-02-20 17:24:47 GMT 39.994766 -82.023987 36,000 269 341 -64
2020-02-20 17:24:44 GMT 39.994949 -82.016724 36,000 269 341 -64
2020-02-20 17:24:40 GMT 39.995075 -82.010445 36,000 269 341 -64
2020-02-20 17:24:36 GMT 39.995308 -82.001457 36,000 269 341 0
2020-02-20 17:24:32 GMT 39.995453 -81.995300 36,000 269 341 0
2020-02-20 17:24:29 GMT 39.995586 -81.988342 36,000 269 341 64
2020-02-20 17:24:26 GMT 39.995956 -81.972351 36,000 269 341 0
2020-02-20 17:24:22 GMT 39.995956 -81.972351 36,000 269 341 0
2020-02-20 17:24:19 GMT 39.996048 -81.968262 36,000 269 340 0
2020-02-20 17:24:15 GMT 39.996239 -81.960503 36,000 269 340 0
2020-02-20 17:24:08 GMT 39.996613 -81.944901 36,000 269 340 64
2020-02-20 17:24:04 GMT 39.996799 -81.937531 36,000 269 340 0
2020-02-20 17:24:01 GMT 39.996964 -81.930603 36,000 269 340 0
2020-02-20 17:23:57 GMT 39.997101 -81.924072 36,000 269 339 0
2020-02-20 17:23:52 GMT 39.997452 -81.909752 36,000 269 340 0
2020-02-20 17:23:48 GMT 39.997604 -81.903015 36,000 269 340 64
2020-02-20 17:23:43 GMT 39.997787 -81.894592 36,000 269 340 64
2020-02-20 17:23:40 GMT 39.997913 -81.887657 36,000 269 340 0
2020-02-20 17:23:37 GMT 39.998108 -81.880737 36,000 269 339 -64
2020-02-20 17:23:34 GMT 39.998241 -81.874611 36,000 269 339 64
2020-02-20 17:23:27 GMT 39.998520 -81.862373 36,000 269 339 0
2020-02-20 17:23:23 GMT 39.998703 -81.853821 36,000 269 339 -64
2020-02-20 17:23:16 GMT 39.999207 -81.832642 36,000 269 338 64
2020-02-20 17:23:12 GMT 39.999496 -81.820869 36,000 269 338 64
2020-02-20 17:23:08 GMT 39.999496 -81.820869 36,000 269 338 0
2020-02-20 17:23:05 GMT 39.999729 -81.808693 36,000 269 337 0
2020-02-20 17:22:59 GMT 39.999847 -81.804199 36,000 269 337 0
2020-02-20 17:22:51 GMT 40.000214 -81.788147 36,000 269 337 -64
2020-02-20 17:22:46 GMT 40.000626 -81.768555 36,000 269 336 64
2020-02-20 17:22:42 GMT 40.000626 -81.768555 36,000 269 336 -64
2020-02-20 17:22:38 GMT 40.000988 -81.751205 36,000 269 335 -64
2020-02-20 17:22:33 GMT 40.000988 -81.751205 36,000 269 335 -64
2020-02-20 17:22:27 GMT 40.001221 -81.740715 36,000 269 335 0
2020-02-20 17:22:20 GMT 40.001499 -81.726173 36,000 269 334 64
2020-02-20 17:22:15 GMT 40.001907 -81.706482 36,000 269 334 0
2020-02-20 17:22:11 GMT 40.001907 -81.706482 36,000 269 334 0
2020-02-20 17:22:06 GMT 40.002060 -81.698830 36,000 269 333 64
2020-02-20 17:21:59 GMT 40.002384 -81.684410 36,000 269 333 64
2020-02-20 17:21:56 GMT 40.002502 -81.678406 36,000 269 333 0
2020-02-20 17:21:50 GMT 40.002777 -81.664795 36,000 269 332 -64
2020-02-20 17:21:44 GMT 40.002960 -81.655212 36,000 269 332 -64
2020-02-20 17:21:40 GMT 40.003326 -81.638428 36,000 269 332 -64
2020-02-20 17:21:29 GMT 40.003647 -81.623291 36,000 269 331 0
2020-02-20 17:21:26 GMT 40.003784 -81.616089 36,000 269 331 -64
2020-02-20 17:21:18 GMT 40.004059 -81.601929 36,000 269 330 64
2020-02-20 17:21:15 GMT 40.004196 -81.596252 36,000 269 330 64
2020-02-20 17:21:06 GMT 40.004517 -81.578125 36,000 269 330 64
2020-02-20 17:20:57 GMT 40.004883 -81.559753 36,000 269 329 64
2020-02-20 17:20:44 GMT 40.005409 -81.533974 36,000 269 329 64
2020-02-20 17:20:34 GMT 40.005753 -81.516113 36,000 269 328 0
2020-02-20 17:20:25 GMT 40.006165 -81.495605 36,000 269 328 0
2020-02-20 17:20:20 GMT 40.006390 -81.486656 36,000 269 328 -64
2020-02-20 17:20:13 GMT 40.006714 -81.471252 36,000 269 327 -64
2020-02-20 17:20:06 GMT 40.006947 -81.457565 36,000 269 327 0
2020-02-20 17:20:03 GMT 40.007034 -81.453125 36,000 269 327 0
2020-02-20 17:19:54 GMT 40.007553 -81.430725 36,000 269 326 -64
2020-02-20 17:19:42 GMT 40.007923 -81.412689 36,000 269 326 64
2020-02-20 17:19:34 GMT 40.008224 -81.397400 36,000 269 326 0
2020-02-20 17:19:31 GMT 40.008362 -81.389709 36,000 269 326 64
2020-02-20 17:19:21 GMT 40.008762 -81.369743 36,000 269 325 0
2020-02-20 17:19:14 GMT 40.008995 -81.356384 36,000 269 325 -128
2020-02-20 17:19:10 GMT 40.009556 -81.329041 36,000 269 323 0
2020-02-20 17:19:00 GMT 40.009556 -81.329041 36,000 269 324 64
2020-02-20 17:18:53 GMT 40.009785 -81.315742 36,000 269 324 64
2020-02-20 17:18:49 GMT 40.009964 -81.308411 36,000 269 324 0
2020-02-20 17:18:41 GMT 40.010204 -81.294769 36,000 269 323 64
2020-02-20 17:18:36 GMT 40.010422 -81.285156 36,000 269 323 0
2020-02-20 17:18:28 GMT 40.010742 -81.266418 36,000 269 323 64
2020-02-20 17:18:20 GMT 40.011108 -81.246155 36,000 269 322 0
2020-02-20 17:18:17 GMT 40.011108 -81.246155 36,000 269 322 -64
2020-02-20 17:18:09 GMT 40.011368 -81.231789 36,000 269 322 64
2020-02-20 17:18:06 GMT 40.011463 -81.225548 36,000 269 322 0
2020-02-20 17:18:01 GMT 40.011612 -81.213684 36,000 269 322 0
2020-02-20 17:17:56 GMT 40.011749 -81.205017 36,000 269 322 0
2020-02-20 17:17:49 GMT 40.011929 -81.193024 36,000 269 322 64
2020-02-20 17:17:45 GMT 40.012066 -81.183723 36,000 269 322 -64
2020-02-20 17:17:39 GMT 40.012207 -81.174072 36,000 269 322 0
2020-02-20 17:17:33 GMT 40.012394 -81.162811 36,000 269 322 64
2020-02-20 17:17:24 GMT 40.012711 -81.142273 36,000 269 322 -64
2020-02-20 17:17:19 GMT 40.012814 -81.134285 36,000 270 323 64
2020-02-20 17:17:12 GMT 40.012985 -81.120544 36,000 270 322 64
2020-02-20 17:17:08 GMT 40.013092 -81.112625 36,000 270 323 64
2020-02-20 17:17:01 GMT 40.013229 -81.100952 36,000 269 323 -64
2020-02-20 17:16:58 GMT 40.013325 -81.093773 36,000 269 323 -64
2020-02-20 17:16:52 GMT 40.013466 -81.080597 36,000 269 323 -64
2020-02-20 17:16:48 GMT 40.013626 -81.069275 36,000 269 323 0
2020-02-20 17:16:41 GMT 40.013855 -81.053894 36,000 269 323 64
2020-02-20 17:16:28 GMT 40.014347 -81.017677 36,000 270 324 0
2020-02-20 17:16:19 GMT 40.014347 -81.017677 36,000 269 324 -64
2020-02-20 17:16:13 GMT 40.014542 -81.004700 36,000 270 324 -64
2020-02-20 17:16:09 GMT 40.014633 -80.997131 36,000 269 324 64
2020-02-20 17:16:03 GMT 40.014767 -80.985718 36,000 269 324 64
2020-02-20 17:15:58 GMT 40.014954 -80.971550 36,000 270 324 -64
2020-02-20 17:15:52 GMT 40.015045 -80.965698 36,000 270 324 64
2020-02-20 17:15:48 GMT 40.015232 -80.951324 36,000 270 324 64
2020-02-20 17:15:41 GMT 40.015278 -80.945206 36,000 270 324 64
2020-02-20 17:15:37 GMT 40.015411 -80.935303 36,000 270 324 -192
2020-02-20 17:15:29 GMT 40.015594 -80.919006 36,000 269 324 64
2020-02-20 17:15:25 GMT 40.015686 -80.913513 36,000 269 325 0
2020-02-20 17:15:21 GMT 40.015823 -80.905090 36,000 269 325 64
2020-02-20 17:15:17 GMT 40.015930 -80.896767 36,000 269 325 -64
2020-02-20 17:15:14 GMT 40.015980 -80.892021 36,000 269 325 -64
2020-02-20 17:15:11 GMT 40.016117 -80.883408 36,000 269 325 64
2020-02-20 17:15:05 GMT 40.016258 -80.872482 36,000 269 325 0
2020-02-20 17:14:59 GMT 40.016418 -80.863525 36,000 269 325 0
2020-02-20 17:14:54 GMT 40.016602 -80.851013 36,000 269 325 64
2020-02-20 17:14:42 GMT 40.016830 -80.829102 36,000 270 325 0
2020-02-20 17:14:37 GMT 40.016830 -80.818176 36,000 271 325 -64
2020-02-20 17:14:32 GMT 40.016769 -80.807755 36,000 271 325 -64
2020-02-20 17:14:27 GMT 40.016739 -80.800964 36,000 271 325 64
2020-02-20 17:14:22 GMT 40.016678 -80.788086 36,000 271 325 0
2020-02-20 17:14:17 GMT 40.016628 -80.768555 36,000 271 325 64
2020-02-20 17:14:11 GMT 40.016628 -80.768555 36,000 271 325 -64
2020-02-20 17:14:07 GMT 40.016602 -80.761902 36,000 271 325 0
2020-02-20 17:14:01 GMT 40.016582 -80.747452 36,000 271 325 64
2020-02-20 17:13:55 GMT 40.016491 -80.738091 36,000 271 325 0
2020-02-20 17:13:50 GMT 40.016464 -80.726685 36,000 271 325 -64
2020-02-20 17:13:40 GMT 40.016373 -80.708740 36,000 271 324 0
2020-02-20 17:13:37 GMT 40.016327 -80.701721 36,000 271 324 -64
2020-02-20 17:13:31 GMT 40.016258 -80.681099 36,000 271 324 -64
2020-02-20 17:13:27 GMT 40.016258 -80.681099 36,000 271 324 -64
2020-02-20 17:13:18 GMT 40.016144 -80.663696 36,000 271 324 0
2020-02-20 17:13:10 GMT 40.016098 -80.648804 36,000 271 324 64
2020-02-20 17:13:06 GMT 40.016071 -80.642960 36,000 271 324 64
2020-02-20 17:13:03 GMT 40.016026 -80.635155 36,000 271 324 64
2020-02-20 17:12:58 GMT 40.016026 -80.626663 36,000 271 324 -64
2020-02-20 17:12:55 GMT 40.015869 -80.602112 36,000 271 324 0
2020-02-20 17:12:46 GMT 40.015869 -80.602112 36,000 271 324 64
2020-02-20 17:12:43 GMT 40.015839 -80.594582 36,000 271 324 64
2020-02-20 17:12:38 GMT 40.015793 -80.585403 36,000 271 324 64
2020-02-20 17:12:35 GMT 40.015732 -80.579407 36,000 271 324 -64
2020-02-20 17:12:26 GMT 40.015652 -80.564995 36,000 271 323 -64
2020-02-20 17:12:23 GMT 40.015640 -80.556274 36,000 271 323 -64
2020-02-20 17:12:12 GMT 40.015503 -80.535889 36,000 271 323 -64
2020-02-20 17:12:03 GMT 40.015366 -80.511963 36,000 271 322 64
2020-02-20 17:11:52 GMT 40.015278 -80.496140 36,000 271 322 0
2020-02-20 17:11:47 GMT 40.015186 -80.485901 36,000 271 321 0
2020-02-20 17:11:43 GMT 40.015141 -80.478973 36,000 271 322 -64
2020-02-20 17:11:31 GMT 40.014999 -80.455879 36,000 271 321 64
2020-02-20 17:11:20 GMT 40.014862 -80.435303 36,000 271 320 64
2020-02-20 17:11:09 GMT 40.014721 -80.414177 36,000 271 320 0
2020-02-20 17:10:58 GMT 40.014587 -80.394531 36,000 271 319 -64
2020-02-20 17:10:49 GMT 40.014488 -80.374916 36,000 271 319 -128
2020-02-20 17:10:38 GMT 40.014347 -80.354256 36,000 271 318 64
2020-02-20 17:10:27 GMT 40.014160 -80.334274 36,000 271 318 0
2020-02-20 17:10:17 GMT 40.014023 -80.313614 36,000 271 318 -64
2020-02-20 17:10:09 GMT 40.013947 -80.300415 36,000 271 318 0
2020-02-20 17:10:06 GMT 40.013855 -80.293396 36,000 271 317 64
2020-02-20 17:10:03 GMT 40.013790 -80.286964 36,000 271 317 128
2020-02-20 17:09:55 GMT 40.013699 -80.273170 36,000 271 317 64
2020-02-20 17:09:50 GMT 40.013649 -80.264740 36,000 271 317 64
2020-02-20 17:09:45 GMT 40.013512 -80.252571 36,000 271 317 0
2020-02-20 17:09:42 GMT 40.013489 -80.246826 36,000 271 317 64
2020-02-20 17:09:36 GMT 40.013397 -80.236145 36,000 271 317 64
2020-02-20 17:09:33 GMT 40.013325 -80.226662 36,000 271 317 -64
2020-02-20 17:09:25 GMT 40.013229 -80.214493 36,000 271 317 -64
2020-02-20 17:09:20 GMT 40.013138 -80.207626 36,000 271 316 64
2020-02-20 17:09:15 GMT 40.013077 -80.197388 36,000 271 316 0
2020-02-20 17:09:10 GMT 40.012951 -80.186340 36,000 271 316 -64
2020-02-20 17:09:06 GMT 40.012894 -80.179871 36,000 271 316 64
2020-02-20 17:09:02 GMT 40.012802 -80.167847 36,000 271 316 64
2020-02-20 17:08:55 GMT 40.012718 -80.157562 36,000 271 316 -64
2020-02-20 17:08:49 GMT 40.012627 -80.149132 36,000 271 315 64
2020-02-20 17:08:44 GMT 40.012527 -80.137329 36,000 271 315 -64
2020-02-20 17:08:41 GMT 40.012440 -80.130905 36,000 271 315 0
2020-02-20 17:08:38 GMT 40.012440 -80.127846 36,000 271 315 64
2020-02-20 17:08:32 GMT 40.012299 -80.114990 36,000 271 315 0
2020-02-20 17:08:29 GMT 40.012253 -80.109314 36,000 271 315 0
2020-02-20 17:08:24 GMT 40.012161 -80.098511 36,000 271 315 0
2020-02-20 17:08:17 GMT 40.012070 -80.087524 36,000 271 314 0
2020-02-20 17:08:12 GMT 40.011978 -80.078308 36,000 271 314 0
2020-02-20 17:08:08 GMT 40.011883 -80.069611 36,000 271 314 64
2020-02-20 17:08:02 GMT 40.011749 -80.057922 36,000 271 314 -64
2020-02-20 17:07:57 GMT 40.011646 -80.047699 36,000 271 314 0
2020-02-20 17:07:52 GMT 40.011555 -80.039398 36,000 271 314 0
2020-02-20 17:07:47 GMT 40.011475 -80.029907 36,000 271 314 0
2020-02-20 17:07:42 GMT 40.011276 -80.009872 36,000 271 314 0
2020-02-20 17:07:37 GMT 40.011276 -80.009872 36,000 271 314 64
2020-02-20 17:07:33 GMT 40.011185 -80.002319 36,000 271 314 64
2020-02-20 17:07:25 GMT 40.011044 -79.988083 36,000 271 314 -64
2020-02-20 17:07:21 GMT 40.010948 -79.980408 36,000 271 314 0
2020-02-20 17:07:11 GMT 40.010742 -79.960388 36,000 271 314 -64
2020-02-20 17:07:05 GMT 40.010605 -79.949219 36,000 271 314 0
2020-02-20 17:07:01 GMT 40.010559 -79.943726 36,000 271 314 0
2020-02-20 17:06:54 GMT 40.010437 -79.929031 36,000 271 314 -64
2020-02-20 17:06:50 GMT 40.010376 -79.921082 36,000 271 314 -64
2020-02-20 17:06:44 GMT 40.010159 -79.904129 36,000 271 313 64
2020-02-20 17:06:41 GMT 40.010159 -79.904129 36,000 271 313 0
2020-02-20 17:06:33 GMT 40.009964 -79.889465 36,000 271 313 128
2020-02-20 17:06:22 GMT 40.009785 -79.868919 36,000 271 312 -128
2020-02-20 17:06:18 GMT 40.009693 -79.860497 36,000 271 312 -128
2020-02-20 17:06:13 GMT 40.009602 -79.852440 36,000 271 312 -64
2020-02-20 17:06:07 GMT 40.009460 -79.842224 36,000 272 312 64
2020-02-20 17:06:01 GMT 40.009274 -79.829094 36,000 272 311 64
2020-02-20 17:05:58 GMT 40.009186 -79.822754 36,000 271 311 64
2020-02-20 17:05:49 GMT 40.008957 -79.806213 36,000 271 309 -64
2020-02-20 17:05:42 GMT 40.008820 -79.794312 36,000 271 308 64
2020-02-20 17:05:36 GMT 40.008717 -79.785088 36,000 271 307 64
2020-02-20 17:05:28 GMT 40.008434 -79.762985 36,000 271 305 -64
2020-02-20 17:05:22 GMT 40.008362 -79.756775 36,000 271 304 64
2020-02-20 17:05:18 GMT 40.008270 -79.749451 36,000 271 303 -128
2020-02-20 17:05:15 GMT 40.008224 -79.746521 36,000 271 303 -64
2020-02-20 17:05:10 GMT 40.008133 -79.737061 36,000 271 302 64
2020-02-20 17:05:05 GMT 40.007996 -79.727844 36,000 271 301 -64
2020-02-20 17:05:00 GMT 40.007904 -79.718445 36,000 271 300 0
2020-02-20 17:04:57 GMT 40.007786 -79.707993 36,000 271 298 64
2020-02-20 17:04:49 GMT 40.007645 -79.699257 36,000 271 297 -64
2020-02-20 17:04:44 GMT 40.007553 -79.690140 36,000 271 296 64
2020-02-20 17:04:39 GMT 40.007401 -79.681091 36,000 271 295 -64
2020-02-20 17:04:35 GMT 40.007309 -79.671875 36,000 271 293 -64
2020-02-20 17:04:30 GMT 40.007172 -79.663391 36,000 271 291 64
2020-02-20 17:04:23 GMT 40.007034 -79.652832 36,000 271 290 -64
2020-02-20 17:04:17 GMT 40.006901 -79.642700 36,000 271 289 0
2020-02-20 17:04:14 GMT 40.006855 -79.635895 36,000 271 288 64
2020-02-20 17:04:08 GMT 40.006714 -79.626785 36,000 272 277 512
2020-02-20 17:04:02 GMT 40.006573 -79.616486 36,000 272 285 64
2020-02-20 17:03:59 GMT 40.006481 -79.609619 36,000 272 284 -64
2020-02-20 17:03:52 GMT 40.006302 -79.598450 36,000 272 282 0
2020-02-20 17:03:47 GMT 40.006210 -79.591675 36,000 272 277 512
2020-02-20 17:03:44 GMT 40.006119 -79.584167 36,000 272 280 64
2020-02-20 17:03:41 GMT 40.006016 -79.579155 36,000 272 279 -64
2020-02-20 17:03:38 GMT 40.005981 -79.574219 36,000 272 278 192
2020-02-20 17:03:30 GMT 40.005844 -79.562744 35,950 272 278 960
2020-02-20 17:03:27 GMT 40.005753 -79.557434 35,875 272 278 960
2020-02-20 17:03:22 GMT 40.005615 -79.547424 35,775 272 278 896
2020-02-20 17:03:19 GMT 40.005569 -79.544067 35,775 272 279 896
2020-02-20 17:03:10 GMT 40.005341 -79.527954 35,650 272 279 960
2020-02-20 17:03:07 GMT 40.005249 -79.522644 35,575 272 280 960
2020-02-20 17:03:02 GMT 40.005112 -79.513184 35,500 272 280 896
2020-02-20 17:02:59 GMT 40.005039 -79.508804 35,450 272 280 896
2020-02-20 17:02:49 GMT 40.004791 -79.491577 35,175 272 283 1088
2020-02-20 17:02:46 GMT 40.004745 -79.487610 35,250 272 282 1024
2020-02-20 17:02:38 GMT 40.004562 -79.473267 35,050 272 284 1088
2020-02-20 17:02:35 GMT 40.004517 -79.469910 35,050 272 283 1152
2020-02-20 17:02:28 GMT 40.004341 -79.458618 34,875 272 284 1088
2020-02-20 17:02:24 GMT 40.004242 -79.452087 34,900 272 285 1088
2020-02-20 17:02:17 GMT 40.003967 -79.432526 34,725 272 286 1152
2020-02-20 17:02:14 GMT 40.003967 -79.432526 34,675 272 286 1088
2020-02-20 17:02:08 GMT 40.003830 -79.424561 34,575 272 287 1088
2020-02-20 17:02:04 GMT 40.003689 -79.415924 34,500 272 288 1088
2020-02-20 17:01:58 GMT 40.003510 -79.404480 34,375 272 289 1024
2020-02-20 17:01:53 GMT 40.003410 -79.398003 34,325 272 290 1024
2020-02-20 17:01:49 GMT 40.003269 -79.389458 34,200 272 292 896
2020-02-20 17:01:43 GMT 40.003098 -79.380005 34,150 272 292 896
2020-02-20 17:01:37 GMT 40.002914 -79.368958 34,050 272 293 768
2020-02-20 17:01:33 GMT 40.002804 -79.362114 34,000 272 294 320
2020-02-20 17:01:26 GMT 40.002594 -79.350647 34,000 272 294 0
2020-02-20 17:01:23 GMT 40.002457 -79.342651 34,000 272 293 -64
2020-02-20 17:01:17 GMT 40.002293 -79.333275 34,000 272 293 0
2020-02-20 17:01:12 GMT 40.002197 -79.325600 34,000 272 293 0
2020-02-20 17:01:04 GMT 40.001953 -79.311768 34,000 272 291 -64
2020-02-20 17:01:01 GMT 40.001827 -79.304314 34,000 272 292 0
2020-02-20 17:00:57 GMT 40.001732 -79.298065 34,000 272 291 0
2020-02-20 17:00:50 GMT 40.001587 -79.287109 34,000 272 291 0
2020-02-20 17:00:45 GMT 40.001404 -79.278137 34,000 272 291 -64
2020-02-20 17:00:41 GMT 40.001266 -79.269295 34,000 272 290 -64
2020-02-20 17:00:35 GMT 40.001080 -79.260368 34,000 272 290 0
2020-02-20 17:00:30 GMT 40.000896 -79.249756 34,000 272 290 64
2020-02-20 17:00:24 GMT 40.000580 -79.231445 34,000 272 289 64
2020-02-20 17:00:18 GMT 40.000580 -79.231445 34,000 272 288 64
2020-02-20 17:00:14 GMT 40.000477 -79.224220 34,000 272 288 0
2020-02-20 17:00:09 GMT 40.000305 -79.213318 34,000 272 288 0
2020-02-20 17:00:05 GMT 40.000214 -79.207214 34,000 272 288 -64
2020-02-20 16:59:58 GMT 39.999939 -79.194641 34,000 272 287 0
2020-02-20 16:59:53 GMT 39.999847 -79.187744 34,000 272 287 64
2020-02-20 16:59:46 GMT 39.999638 -79.176346 34,000 272 287 64
2020-02-20 16:59:43 GMT 39.999546 -79.170975 34,000 272 286 64
2020-02-20 16:59:37 GMT 39.999313 -79.158493 34,000 272 285 64
2020-02-20 16:59:33 GMT 39.999218 -79.152435 34,000 272 285 64
2020-02-20 16:59:26 GMT 39.998894 -79.135208 34,000 272 284 64
2020-02-20 16:59:22 GMT 39.998753 -79.126968 34,000 272 289 -128
2020-02-20 16:59:17 GMT 39.998753 -79.126968 34,000 272 283 0
2020-02-20 16:59:13 GMT 39.998566 -79.117798 34,000 272 287 -128
2020-02-20 16:59:08 GMT 39.998428 -79.109238 34,000 272 285 -64
2020-02-20 16:59:04 GMT 39.998333 -79.103127 34,000 272 286 -64
2020-02-20 16:59:01 GMT 39.998245 -79.098633 34,000 272 289 -64
2020-02-20 16:58:57 GMT 39.998108 -79.091675 34,000 272 290 0
2020-02-20 16:58:54 GMT 39.997963 -79.085022 34,000 272 293 0
2020-02-20 16:58:51 GMT 39.997868 -79.079590 34,000 272 293 -64
2020-02-20 16:58:45 GMT 39.997730 -79.070915 34,000 272 294 -64
2020-02-20 16:58:42 GMT 39.997635 -79.065979 34,000 272 293 -64
2020-02-20 16:58:39 GMT 39.997543 -79.060486 34,000 272 293 -64
2020-02-20 16:58:36 GMT 39.997402 -79.054680 34,000 272 293 0
2020-02-20 16:58:33 GMT 39.997265 -79.047066 34,000 272 292 128
2020-02-20 16:58:30 GMT 39.997215 -79.044136 34,000 272 292 0
2020-02-20 16:58:25 GMT 39.997032 -79.035645 34,000 272 292 0
2020-02-20 16:58:21 GMT 39.996891 -79.026527 34,000 272 291 -64
2020-02-20 16:58:16 GMT 39.996735 -79.017944 34,000 272 290 -128
2020-02-20 16:58:09 GMT 39.996517 -79.008430 34,000 272 290 0
2020-02-20 16:58:05 GMT 39.996380 -79.000130 34,000 272 290 64
2020-02-20 16:58:00 GMT 39.996193 -78.990265 34,000 272 290 -64
2020-02-20 16:57:57 GMT 39.996052 -78.984085 34,000 272 290 64
2020-02-20 16:57:53 GMT 39.995956 -78.977478 34,000 272 290 64
2020-02-20 16:57:49 GMT 39.995636 -78.962036 34,000 272 290 0
2020-02-20 16:57:43 GMT 39.995636 -78.962036 34,000 272 290 -64
2020-02-20 16:57:38 GMT 39.995453 -78.953003 34,000 272 290 0
2020-02-20 16:57:34 GMT 39.995308 -78.944946 34,000 272 290 0
2020-02-20 16:57:29 GMT 39.995121 -78.935890 34,000 272 290 64
2020-02-20 16:57:23 GMT 39.994701 -78.917046 34,000 272 290 128
2020-02-20 16:57:18 GMT 39.994701 -78.917046 34,000 272 290 0
2020-02-20 16:57:11 GMT 39.994518 -78.906616 34,000 272 290 64
2020-02-20 16:57:06 GMT 39.994354 -78.898682 34,000 272 289 0
2020-02-20 16:57:02 GMT 39.994125 -78.888855 34,000 272 290 -64
2020-02-20 16:56:56 GMT 39.993958 -78.879463 34,000 272 290 0
2020-02-20 16:56:51 GMT 39.993820 -78.872475 34,000 272 290 0
2020-02-20 16:56:48 GMT 39.993679 -78.865608 34,000 272 290 64
2020-02-20 16:56:45 GMT 39.993530 -78.859619 34,000 272 291 0
2020-02-20 16:56:42 GMT 39.993259 -78.845253 34,000 272 291 0
2020-02-20 16:56:37 GMT 39.993259 -78.845253 34,000 272 291 64
2020-02-20 16:56:34 GMT 39.993027 -78.835205 34,000 272 291 0
2020-02-20 16:56:26 GMT 39.992889 -78.827515 34,000 272 291 -64
2020-02-20 16:56:23 GMT 39.992748 -78.822159 34,000 272 290 0
2020-02-20 16:56:20 GMT 39.992661 -78.817749 34,000 272 290 64
2020-02-20 16:56:14 GMT 39.992420 -78.805428 34,000 272 290 -64
2020-02-20 16:56:11 GMT 39.992294 -78.800171 34,000 272 290 -64
2020-02-20 16:56:06 GMT 39.991974 -78.785522 34,000 272 290 64
2020-02-20 16:56:03 GMT 39.991974 -78.785522 34,000 272 290 64
2020-02-20 16:56:00 GMT 39.991928 -78.782043 34,000 272 290 -64
2020-02-20 16:55:53 GMT 39.991631 -78.768417 34,000 272 290 -64
2020-02-20 16:55:50 GMT 39.991539 -78.764297 34,000 272 290 -64
2020-02-20 16:55:45 GMT 39.991398 -78.757301 34,000 272 290 64
2020-02-20 16:55:42 GMT 39.991261 -78.749687 34,000 272 290 0
2020-02-20 16:55:36 GMT 39.991013 -78.738831 34,000 272 289 0
2020-02-20 16:55:31 GMT 39.990829 -78.731934 34,000 272 289 0
2020-02-20 16:55:27 GMT 39.990692 -78.725037 34,000 272 289 0
2020-02-20 16:55:23 GMT 39.990417 -78.713135 34,000 272 289 0
2020-02-20 16:55:20 GMT 39.990326 -78.707237 34,000 272 289 64
2020-02-20 16:55:17 GMT 39.990326 -78.707237 34,000 272 289 64
2020-02-20 16:55:12 GMT 39.990143 -78.699890 34,000 272 289 0
2020-02-20 16:55:09 GMT 39.989861 -78.687706 34,000 272 289 0
2020-02-20 16:55:02 GMT 39.989769 -78.682274 34,000 272 289 -64
2020-02-20 16:54:58 GMT 39.989582 -78.673782 34,000 272 289 -64
2020-02-20 16:54:50 GMT 39.989258 -78.660049 34,000 272 290 0
2020-02-20 16:54:46 GMT 39.989090 -78.653259 34,000 272 290 0
2020-02-20 16:54:40 GMT 39.988838 -78.642448 34,000 272 291 -64
2020-02-20 16:54:36 GMT 39.988464 -78.624969 34,000 272 290 -64
2020-02-20 16:54:30 GMT 39.988464 -78.624969 34,000 272 291 -64
2020-02-20 16:54:26 GMT 39.988327 -78.617287 34,000 272 291 64
2020-02-20 16:54:21 GMT 39.988140 -78.610298 34,000 272 291 0
2020-02-20 16:54:14 GMT 39.987816 -78.597755 34,000 272 291 64
2020-02-20 16:54:09 GMT 39.987625 -78.589325 34,000 272 291 -64
2020-02-20 16:54:06 GMT 39.987488 -78.582153 34,000 272 292 0
2020-02-20 16:54:00 GMT 39.987255 -78.572533 34,000 272 292 0
2020-02-20 16:53:55 GMT 39.987022 -78.563423 34,000 272 292 0
2020-02-20 16:53:51 GMT 39.986801 -78.553223 34,000 272 291 0
2020-02-20 16:53:44 GMT 39.986618 -78.545471 34,000 272 293 -64
2020-02-20 16:53:39 GMT 39.986389 -78.534912 34,000 272 293 0
2020-02-20 16:53:36 GMT 39.986183 -78.526779 34,000 272 293 0
2020-02-20 16:53:27 GMT 39.985905 -78.515480 34,000 272 293 0
2020-02-20 16:53:23 GMT 39.985535 -78.499435 34,000 272 293 0
2020-02-20 16:53:18 GMT 39.985535 -78.499435 34,000 272 293 0
2020-02-20 16:53:15 GMT 39.985382 -78.493408 34,000 272 291 0
2020-02-20 16:53:12 GMT 39.985252 -78.488701 34,000 272 293 64
2020-02-20 16:53:09 GMT 39.984974 -78.476151 34,000 272 292 -64
2020-02-20 16:53:05 GMT 39.984787 -78.467224 34,000 272 292 -64
2020-02-20 16:53:00 GMT 39.984787 -78.467224 34,000 272 292 -64
2020-02-20 16:52:57 GMT 39.984463 -78.454247 34,000 272 292 0
2020-02-20 16:52:53 GMT 39.984463 -78.454247 34,000 272 291 0
2020-02-20 16:52:47 GMT 39.984230 -78.444443 34,000 272 292 0
2020-02-20 16:52:41 GMT 39.984009 -78.434937 34,000 272 291 0
2020-02-20 16:52:35 GMT 39.983459 -78.412537 34,000 272 291 0
2020-02-20 16:52:28 GMT 39.983459 -78.412537 34,000 272 291 -64
2020-02-20 16:52:25 GMT 39.983345 -78.406616 34,000 272 291 -64
2020-02-20 16:52:22 GMT 39.983139 -78.399963 34,000 272 291 0
2020-02-20 16:52:19 GMT 39.983021 -78.394691 34,000 272 291 0
2020-02-20 16:52:16 GMT 39.982880 -78.389137 34,000 272 291 0
2020-02-20 16:52:11 GMT 39.982544 -78.376892 34,000 272 291 0
2020-02-20 16:52:05 GMT 39.982407 -78.370789 34,000 272 291 -64
2020-02-20 16:51:58 GMT 39.982086 -78.358360 34,000 272 291 0
2020-02-20 16:51:55 GMT 39.981995 -78.354118 34,000 272 291 0
2020-02-20 16:51:51 GMT 39.981762 -78.345001 34,000 272 291 64
2020-02-20 16:51:48 GMT 39.981674 -78.340576 34,000 272 291 0
2020-02-20 16:51:41 GMT 39.981400 -78.329285 34,000 272 291 0
2020-02-20 16:51:37 GMT 39.981216 -78.322266 34,000 272 291 0
2020-02-20 16:51:34 GMT 39.981033 -78.316040 34,000 272 291 0
2020-02-20 16:51:29 GMT 39.980804 -78.307007 34,000 272 291 0
2020-02-20 16:51:24 GMT 39.980412 -78.290512 34,000 272 291 -64
2020-02-20 16:51:20 GMT 39.980412 -78.290512 34,000 272 291 0
2020-02-20 16:51:17 GMT 39.980255 -78.285156 34,000 272 291 -64
2020-02-20 16:51:12 GMT 39.980118 -78.278870 34,000 272 291 -64
2020-02-20 16:51:07 GMT 39.979889 -78.269104 34,000 272 291 64
2020-02-20 16:51:04 GMT 39.979713 -78.263229 34,000 272 290 0
2020-02-20 16:50:57 GMT 39.979481 -78.253365 34,000 272 290 -64
2020-02-20 16:50:54 GMT 39.979248 -78.245300 34,000 272 290 -64
2020-02-20 16:50:48 GMT 39.978970 -78.235207 34,000 272 290 0
2020-02-20 16:50:45 GMT 39.978882 -78.230652 34,000 272 290 0
2020-02-20 16:50:41 GMT 39.978653 -78.222351 34,000 272 290 0
2020-02-20 16:50:38 GMT 39.978561 -78.218933 34,000 272 290 0
2020-02-20 16:50:35 GMT 39.978424 -78.213257 34,000 272 290 0
2020-02-20 16:50:32 GMT 39.978317 -78.208801 34,000 272 290 0
2020-02-20 16:50:27 GMT 39.978012 -78.198608 34,000 272 290 0
2020-02-20 16:50:24 GMT 39.977921 -78.195129 34,000 272 290 0
2020-02-20 16:50:21 GMT 39.977783 -78.190308 34,000 272 290 0
2020-02-20 16:50:18 GMT 39.977619 -78.183640 34,000 272 289 0
2020-02-20 16:50:14 GMT 39.977417 -78.176331 34,000 272 289 0
2020-02-20 16:50:11 GMT 39.977280 -78.171448 34,000 272 289 64
2020-02-20 16:50:08 GMT 39.977200 -78.166916 34,000 272 289 64
2020-02-20 16:50:05 GMT 39.977013 -78.161362 34,000 272 289 64
2020-02-20 16:50:02 GMT 39.976875 -78.154488 34,000 272 289 64
2020-02-20 16:49:58 GMT 39.976734 -78.150307 34,000 272 289 -64
2020-02-20 16:49:54 GMT 39.976547 -78.143379 34,000 273 289 -128
2020-02-20 16:49:51 GMT 39.976315 -78.135704 34,000 272 289 64
2020-02-20 16:49:47 GMT 39.976128 -78.128647 34,000 272 289 -64
2020-02-20 16:49:42 GMT 39.975952 -78.122070 34,000 273 290 0
2020-02-20 16:49:39 GMT 39.975769 -78.114380 34,000 272 289 0
2020-02-20 16:49:35 GMT 39.975586 -78.107422 34,000 272 289 64
2020-02-20 16:49:30 GMT 39.975357 -78.099060 34,000 272 289 -64
2020-02-20 16:49:25 GMT 39.975197 -78.093254 34,000 272 289 0
2020-02-20 16:49:22 GMT 39.975037 -78.086548 34,000 272 289 64
2020-02-20 16:49:18 GMT 39.974854 -78.080994 34,000 272 290 64
2020-02-20 16:49:14 GMT 39.974640 -78.071716 34,000 272 290 0
2020-02-20 16:49:11 GMT 39.974545 -78.068848 34,000 272 290 0
2020-02-20 16:49:08 GMT 39.974396 -78.063660 34,000 272 290 0
2020-02-20 16:49:04 GMT 39.974129 -78.054176 34,000 272 290 0
2020-02-20 16:49:00 GMT 39.973984 -78.048401 34,000 272 290 64
2020-02-20 16:48:57 GMT 39.973801 -78.040947 34,000 272 290 -64
2020-02-20 16:48:51 GMT 39.973572 -78.032898 34,000 272 290 64
2020-02-20 16:48:48 GMT 39.973431 -78.027771 34,000 273 290 64
2020-02-20 16:48:45 GMT 39.973057 -78.015228 34,000 273 290 0
2020-02-20 16:48:42 GMT 39.973057 -78.015228 34,000 273 290 0
2020-02-20 16:48:39 GMT 39.972916 -78.010300 34,000 273 290 0
2020-02-20 16:48:35 GMT 39.972637 -77.999809 34,000 273 290 0
2020-02-20 16:48:32 GMT 39.972637 -77.999809 34,000 273 290 -64
2020-02-20 16:48:29 GMT 39.972336 -77.990356 34,000 272 290 64
2020-02-20 16:48:23 GMT 39.972198 -77.984802 34,000 272 290 0
2020-02-20 16:48:20 GMT 39.972015 -77.978516 34,000 273 291 0
2020-02-20 16:48:17 GMT 39.971878 -77.972900 34,000 273 291 64
2020-02-20 16:48:13 GMT 39.971466 -77.959717 34,000 273 291 0
2020-02-20 16:48:10 GMT 39.971466 -77.959717 34,000 273 291 0
2020-02-20 16:48:06 GMT 39.971195 -77.950180 34,000 273 291 64
2020-02-20 16:48:00 GMT 39.971008 -77.943192 34,000 273 291 64
2020-02-20 16:47:57 GMT 39.970821 -77.937698 34,000 273 291 0
2020-02-20 16:47:54 GMT 39.970734 -77.934387 34,000 273 291 0
2020-02-20 16:47:49 GMT 39.970402 -77.923027 34,000 273 291 64
2020-02-20 16:47:46 GMT 39.970322 -77.920410 34,000 273 291 -64
2020-02-20 16:47:43 GMT 39.970047 -77.909912 34,000 273 291 64
2020-02-20 16:47:40 GMT 39.970047 -77.909912 34,000 273 291 64
2020-02-20 16:47:37 GMT 39.969891 -77.904678 34,000 273 291 64
2020-02-20 16:47:34 GMT 39.969658 -77.896996 34,000 273 291 64
2020-02-20 16:47:30 GMT 39.969315 -77.884888 34,000 273 291 -64
2020-02-20 16:47:27 GMT 39.969315 -77.884888 34,000 273 291 -64
2020-02-20 16:47:23 GMT 39.969131 -77.879150 34,000 273 290 -64
2020-02-20 16:47:20 GMT 39.968994 -77.875000 34,000 273 290 0
2020-02-20 16:47:17 GMT 39.968674 -77.863770 34,000 273 290 0
2020-02-20 16:47:14 GMT 39.968536 -77.858887 34,000 273 291 -64
2020-02-20 16:47:07 GMT 39.968121 -77.843880 34,000 273 290 0
2020-02-20 16:47:03 GMT 39.968121 -77.843880 34,000 273 291 0
2020-02-20 16:46:59 GMT 39.967888 -77.836952 34,000 273 291 0
2020-02-20 16:46:56 GMT 39.967712 -77.830261 34,000 273 291 0
2020-02-20 16:46:53 GMT 39.967621 -77.826843 34,000 273 291 0
2020-02-20 16:46:48 GMT 39.967331 -77.817223 34,000 273 291 64
2020-02-20 16:46:45 GMT 39.967190 -77.813042 34,000 273 291 0
2020-02-20 16:46:42 GMT 39.967072 -77.808594 34,000 273 291 0
2020-02-20 16:46:39 GMT 39.966724 -77.796936 34,000 273 291 64
2020-02-20 16:46:33 GMT 39.966568 -77.790283 34,000 273 291 -64
2020-02-20 16:46:30 GMT 39.966400 -77.785072 34,000 273 291 0
2020-02-20 16:46:27 GMT 39.966309 -77.781578 34,000 273 291 64
2020-02-20 16:46:24 GMT 39.965973 -77.770020 34,000 273 291 64
2020-02-20 16:46:21 GMT 39.965702 -77.761978 34,000 273 291 0
2020-02-20 16:46:17 GMT 39.965702 -77.761978 34,000 273 291 0
2020-02-20 16:46:14 GMT 39.965607 -77.758850 34,000 273 291 0
2020-02-20 16:46:10 GMT 39.965424 -77.751495 34,000 273 291 0
2020-02-20 16:46:06 GMT 39.965191 -77.744499 34,000 273 291 -64
2020-02-20 16:46:03 GMT 39.965012 -77.738586 34,000 273 291 64
2020-02-20 16:45:59 GMT 39.964783 -77.731567 34,000 273 291 -64
2020-02-20 16:45:55 GMT 39.964352 -77.717224 34,000 273 291 -128
2020-02-20 16:45:51 GMT 39.964352 -77.717224 34,000 273 291 -64
2020-02-20 16:45:45 GMT 39.963867 -77.700806 34,000 273 291 -64
2020-02-20 16:45:42 GMT 39.963745 -77.697121 34,000 273 291 64
2020-02-20 16:45:36 GMT 39.963608 -77.693443 34,000 273 291 64
2020-02-20 16:45:33 GMT 39.963326 -77.682953 34,000 273 291 -64
2020-02-20 16:45:27 GMT 39.963043 -77.674866 34,000 273 291 0
2020-02-20 16:45:24 GMT 39.962952 -77.672180 34,000 273 291 0
2020-02-20 16:45:21 GMT 39.962769 -77.665894 34,000 273 291 -64
2020-02-20 16:45:18 GMT 39.962627 -77.660667 34,000 273 291 0
2020-02-20 16:45:14 GMT 39.962349 -77.652802 34,000 273 291 64
2020-02-20 16:45:11 GMT 39.962257 -77.649307 34,000 273 291 -64
2020-02-20 16:45:08 GMT 39.962025 -77.642319 34,000 273 291 0
2020-02-20 16:45:05 GMT 39.961929 -77.638130 34,000 273 291 0
2020-02-20 16:45:02 GMT 39.961716 -77.631470 34,000 273 291 0
2020-02-20 16:44:58 GMT 39.961464 -77.624336 34,000 273 290 0
2020-02-20 16:44:52 GMT 39.961231 -77.616470 34,000 273 290 0
2020-02-20 16:44:49 GMT 39.960983 -77.608459 34,000 273 289 -64
2020-02-20 16:44:46 GMT 39.960907 -77.606049 34,000 273 290 0
2020-02-20 16:44:43 GMT 39.960674 -77.599060 34,000 273 290 0
2020-02-20 16:44:37 GMT 39.960388 -77.588928 34,000 273 290 -64
2020-02-20 16:44:33 GMT 39.960159 -77.582031 34,000 273 290 -64
2020-02-20 16:44:30 GMT 39.959976 -77.576714 34,000 273 289 -64
2020-02-20 16:44:27 GMT 39.959656 -77.565918 34,000 273 289 0
2020-02-20 16:44:20 GMT 39.959461 -77.559296 34,000 273 289 0
2020-02-20 16:44:17 GMT 39.959244 -77.553345 34,000 273 289 0
2020-02-20 16:44:13 GMT 39.959015 -77.545166 34,000 273 289 0
2020-02-20 16:44:10 GMT 39.958858 -77.540627 34,000 273 289 0
2020-02-20 16:44:06 GMT 39.958466 -77.528320 34,000 273 289 64
2020-02-20 16:44:02 GMT 39.958466 -77.528320 34,000 273 289 64
2020-02-20 16:43:59 GMT 39.958328 -77.523499 34,000 273 289 0
2020-02-20 16:43:56 GMT 39.958145 -77.517212 34,000 273 289 -64
2020-02-20 16:43:52 GMT 39.957962 -77.511841 34,000 273 289 64
2020-02-20 16:43:49 GMT 39.957741 -77.505051 34,000 273 289 0
2020-02-20 16:43:46 GMT 39.957367 -77.493713 34,000 273 288 64
2020-02-20 16:43:43 GMT 39.957367 -77.493713 34,000 273 288 64
2020-02-20 16:43:39 GMT 39.957134 -77.486382 34,000 273 288 0
2020-02-20 16:43:35 GMT 39.956955 -77.481140 34,000 273 288 0
2020-02-20 16:43:31 GMT 39.956726 -77.472839 34,000 273 288 0
2020-02-20 16:43:28 GMT 39.956589 -77.469421 34,000 273 288 0
2020-02-20 16:43:24 GMT 39.956345 -77.461479 34,000 273 288 64
2020-02-20 16:43:21 GMT 39.956017 -77.451118 34,000 273 288 0
2020-02-20 16:43:18 GMT 39.956017 -77.451118 34,000 273 288 0
2020-02-20 16:43:15 GMT 39.955879 -77.446869 34,000 273 288 0
2020-02-20 16:43:12 GMT 39.955647 -77.439941 34,000 273 288 64
2020-02-20 16:43:09 GMT 39.955505 -77.436447 34,000 273 288 64
2020-02-20 16:43:06 GMT 39.955135 -77.425339 34,000 273 288 -64
2020-02-20 16:43:03 GMT 39.955135 -77.425339 34,000 273 289 0
2020-02-20 16:43:00 GMT 39.954941 -77.420166 34,000 273 289 0
2020-02-20 16:42:57 GMT 39.954807 -77.414909 34,000 273 289 0
2020-02-20 16:42:53 GMT 39.954575 -77.408447 34,000 273 289 0
2020-02-20 16:42:50 GMT 39.954437 -77.404671 34,000 273 289 -64
2020-02-20 16:42:47 GMT 39.953979 -77.391663 34,000 273 289 -64
2020-02-20 16:42:43 GMT 39.953979 -77.391663 34,000 273 289 64
2020-02-20 16:42:40 GMT 39.953831 -77.386444 34,000 273 289 64
2020-02-20 16:42:36 GMT 39.953598 -77.379456 34,000 273 290 64
2020-02-20 16:42:33 GMT 39.953224 -77.368469 34,000 273 290 0
2020-02-20 16:42:30 GMT 39.953110 -77.364502 34,000 273 290 -64
2020-02-20 16:42:23 GMT 39.952805 -77.355110 34,000 273 289 0
2020-02-20 16:42:20 GMT 39.952652 -77.349854 34,000 273 289 0
2020-02-20 16:42:16 GMT 39.952377 -77.343079 34,000 273 289 0
2020-02-20 16:42:13 GMT 39.952194 -77.337341 34,000 273 289 0
2020-02-20 16:42:10 GMT 39.952057 -77.333862 34,000 273 289 64
2020-02-20 16:42:07 GMT 39.951920 -77.329712 34,000 273 288 0
2020-02-20 16:42:04 GMT 39.951645 -77.321838 34,000 273 288 0
2020-02-20 16:42:01 GMT 39.951553 -77.319336 34,000 273 288 0
2020-02-20 16:41:58 GMT 39.951370 -77.313782 34,000 273 288 -64
2020-02-20 16:41:55 GMT 39.950943 -77.301056 34,000 273 287 0
2020-02-20 16:41:51 GMT 39.950943 -77.301056 34,000 273 287 0
2020-02-20 16:41:47 GMT 39.950638 -77.292419 34,000 273 287 0
2020-02-20 16:41:44 GMT 39.950546 -77.288940 34,000 273 286 0
2020-02-20 16:41:41 GMT 39.950340 -77.283134 34,000 273 286 -64
2020-02-20 16:41:38 GMT 39.950180 -77.278687 34,000 273 286 -64
2020-02-20 16:41:34 GMT 39.949722 -77.265625 34,000 273 285 0
2020-02-20 16:41:31 GMT 39.949722 -77.265625 34,000 273 285 0
2020-02-20 16:41:27 GMT 39.949501 -77.259171 34,000 273 285 -64
2020-02-20 16:41:24 GMT 39.949127 -77.247742 34,000 273 284 0
2020-02-20 16:41:20 GMT 39.949127 -77.247742 34,000 273 284 0
2020-02-20 16:41:16 GMT 39.948898 -77.241028 34,000 273 284 0
2020-02-20 16:41:13 GMT 39.948715 -77.236145 34,000 273 283 0
2020-02-20 16:41:10 GMT 39.948486 -77.230042 34,000 273 283 0
2020-02-20 16:41:06 GMT 39.948059 -77.218155 34,000 273 282 0
2020-02-20 16:41:02 GMT 39.948059 -77.218155 34,000 273 282 0
2020-02-20 16:40:59 GMT 39.947891 -77.213196 34,000 273 282 0
2020-02-20 16:40:55 GMT 39.947571 -77.204285 34,000 273 280 64
2020-02-20 16:40:52 GMT 39.947250 -77.194824 34,000 273 281 0
2020-02-20 16:40:49 GMT 39.947250 -77.194824 34,000 273 280 64
2020-02-20 16:40:45 GMT 39.946896 -77.184509 34,000 273 280 64
2020-02-20 16:40:42 GMT 39.946896 -77.184509 34,000 273 280 64
2020-02-20 16:40:39 GMT 39.946613 -77.176956 34,000 273 279 -64
2020-02-20 16:40:36 GMT 39.946472 -77.171936 34,000 273 279 -64
2020-02-20 16:40:33 GMT 39.946060 -77.159912 34,000 273 278 64
2020-02-20 16:40:29 GMT 39.946060 -77.159912 34,000 273 278 64
2020-02-20 16:40:26 GMT 39.945923 -77.156555 34,000 273 277 0
2020-02-20 16:40:23 GMT 39.945740 -77.151184 34,000 273 277 0
2020-02-20 16:40:18 GMT 39.945404 -77.141624 34,000 273 272 -64
2020-02-20 16:40:15 GMT 39.945053 -77.132568 34,000 273 276 0
2020-02-20 16:40:12 GMT 39.945053 -77.132568 34,000 273 276 64
2020-02-20 16:40:09 GMT 39.944870 -77.127258 34,000 273 275 0
2020-02-20 16:40:06 GMT 39.944687 -77.121948 34,000 273 275 0
2020-02-20 16:40:03 GMT 39.944519 -77.117653 34,000 273 275 0
2020-02-20 16:40:00 GMT 39.944366 -77.112793 34,000 273 274 0
2020-02-20 16:39:57 GMT 39.944138 -77.106934 34,000 273 274 0
2020-02-20 16:39:53 GMT 39.943817 -77.096863 34,000 273 273 0
2020-02-20 16:39:50 GMT 39.943817 -77.096863 34,000 273 273 -64
2020-02-20 16:39:47 GMT 39.943638 -77.091934 34,000 273 273 0
2020-02-20 16:39:44 GMT 39.943401 -77.085381 34,000 273 273 0
2020-02-20 16:39:41 GMT 39.943264 -77.081573 34,000 273 273 0
2020-02-20 16:39:38 GMT 39.942936 -77.072464 34,000 273 273 0
2020-02-20 16:39:32 GMT 39.942764 -77.068176 34,000 273 273 64
2020-02-20 16:39:29 GMT 39.942516 -77.061104 34,000 273 273 -64
2020-02-20 16:39:26 GMT 39.942352 -77.056213 34,000 273 273 -64
2020-02-20 16:39:23 GMT 39.942146 -77.051300 34,000 273 273 -64
2020-02-20 16:39:19 GMT 39.941940 -77.046387 34,000 273 272 -64
2020-02-20 16:39:16 GMT 39.941727 -77.040192 34,000 273 272 -64
2020-02-20 16:39:12 GMT 39.941494 -77.034264 34,000 273 272 -64
2020-02-20 16:39:08 GMT 39.941254 -77.027405 34,000 273 271 0
2020-02-20 16:39:05 GMT 39.941074 -77.022652 34,000 273 271 0
2020-02-20 16:39:02 GMT 39.940887 -77.017639 34,000 273 270 64
2020-02-20 16:38:59 GMT 39.940655 -77.012283 34,000 273 270 0
2020-02-20 16:38:56 GMT 39.940517 -77.008354 34,000 273 269 0
2020-02-20 16:38:53 GMT 39.940338 -77.003418 34,000 273 268 0
2020-02-20 16:38:49 GMT 39.940144 -76.997307 34,000 273 267 0
2020-02-20 16:38:46 GMT 39.939724 -76.987068 34,000 273 265 -64
2020-02-20 16:38:42 GMT 39.939514 -76.980347 34,000 273 264 0
2020-02-20 16:38:39 GMT 39.939514 -76.980347 34,000 273 264 0
2020-02-20 16:38:36 GMT 39.939354 -76.975647 34,000 273 263 0
2020-02-20 16:38:33 GMT 39.939148 -76.970886 34,000 273 262 0
2020-02-20 16:38:29 GMT 39.938793 -76.960480 34,000 273 260 64
2020-02-20 16:38:23 GMT 39.938644 -76.956421 34,000 273 259 0
2020-02-20 16:38:20 GMT 39.938278 -76.947083 34,000 273 258 0
2020-02-20 16:38:14 GMT 39.938095 -76.941872 34,000 273 256 0
2020-02-20 16:38:11 GMT 39.937958 -76.937569 34,000 273 256 0
2020-02-20 16:38:07 GMT 39.937729 -76.931824 34,000 273 254 64
2020-02-20 16:38:03 GMT 39.937546 -76.926392 34,000 273 253 192
2020-02-20 16:38:00 GMT 39.937351 -76.921089 34,000 273 252 384
2020-02-20 16:37:57 GMT 39.937180 -76.916504 33,950 273 252 640
2020-02-20 16:37:54 GMT 39.936977 -76.911354 33,900 273 252 960
2020-02-20 16:37:51 GMT 39.936562 -76.901054 33,800 273 253 960
2020-02-20 16:37:47 GMT 39.936562 -76.901054 33,725 273 254 960
2020-02-20 16:37:44 GMT 39.936356 -76.895325 33,750 273 254 960
2020-02-20 16:37:41 GMT 39.936218 -76.891541 33,675 273 255 960
2020-02-20 16:37:38 GMT 39.936047 -76.887070 33,650 273 256 1024
2020-02-20 16:37:35 GMT 39.935860 -76.881950 33,600 273 256 960
2020-02-20 16:37:32 GMT 39.935677 -76.876396 33,550 273 258 1024
2020-02-20 16:37:29 GMT 39.935349 -76.868591 33,500 273 258 1024
2020-02-20 16:37:26 GMT 39.935349 -76.868591 33,450 273 259 960
2020-02-20 16:37:22 GMT 39.935165 -76.863647 33,400 273 260 1024
2020-02-20 16:37:19 GMT 39.934929 -76.857666 33,375 273 260 1024
2020-02-20 16:37:15 GMT 39.934696 -76.851425 32,800 273 263 960
2020-02-20 16:37:12 GMT 39.934387 -76.842957 33,175 273 261 1024
2020-02-20 16:37:05 GMT 39.934093 -76.835754 33,125 273 262 1024
2020-02-20 16:37:02 GMT 39.933907 -76.830704 33,075 273 262 960
2020-02-20 16:36:58 GMT 39.933720 -76.825645 33,050 273 262 1024
2020-02-20 16:36:55 GMT 39.933487 -76.819466 32,950 273 263 960
2020-02-20 16:36:52 GMT 39.933350 -76.814911 32,900 273 263 960
2020-02-20 16:36:48 GMT 39.933151 -76.809570 32,800 273 263 960
2020-02-20 16:36:45 GMT 39.932922 -76.803833 32,775 273 263 960
2020-02-20 16:36:41 GMT 39.932510 -76.792480 32,675 273 264 1024
2020-02-20 16:36:38 GMT 39.932323 -76.787819 32,600 273 264 1024
2020-02-20 16:36:35 GMT 39.932323 -76.787819 32,600 273 264 1024
2020-02-20 16:36:32 GMT 39.932137 -76.782570 32,550 273 264 1024
2020-02-20 16:36:29 GMT 39.932007 -76.779114 32,125 272 264 1024
2020-02-20 16:36:26 GMT 39.931812 -76.772461 32,450 273 264 1024
2020-02-20 16:36:23 GMT 39.931671 -76.768654 32,400 273 265 960
2020-02-20 16:36:20 GMT 39.931534 -76.764160 32,375 273 265 960
2020-02-20 16:36:17 GMT 39.931393 -76.760979 32,275 271 262 832
2020-02-20 16:36:13 GMT 39.931206 -76.754608 32,250 273 265 960
2020-02-20 16:36:10 GMT 39.931019 -76.750175 32,225 273 265 1024
2020-02-20 16:36:07 GMT 39.930786 -76.743813 32,125 274 265 1024
2020-02-20 16:36:03 GMT 39.930588 -76.738403 32,100 274 265 1024
2020-02-20 16:36:00 GMT 39.930084 -76.728210 32,000 274 265 960
2020-02-20 16:35:53 GMT 39.929810 -76.721313 31,850 273 265 960
2020-02-20 16:35:50 GMT 39.929623 -76.715843 31,850 273 265 960
2020-02-20 16:35:47 GMT 39.929489 -76.711792 31,825 272 264 1024
2020-02-20 16:35:42 GMT 39.929214 -76.698364 31,700 270 264 960
2020-02-20 16:35:38 GMT 39.929214 -76.698364 31,675 270 264 960
2020-02-20 16:35:34 GMT 39.929352 -76.684387 31,550 269 263 1024
2020-02-20 16:35:31 GMT 39.929352 -76.684387 31,550 269 263 1024
2020-02-20 16:35:25 GMT 39.929436 -76.678391 31,475 269 263 1024
2020-02-20 16:35:22 GMT 39.929581 -76.671936 31,400 269 263 960
2020-02-20 16:35:19 GMT 39.929672 -76.667358 31,350 269 263 960
2020-02-20 16:35:16 GMT 39.929764 -76.662102 31,125 269 263 960
2020-02-20 16:35:11 GMT 39.929901 -76.656296 31,200 269 263 1024
2020-02-20 16:35:08 GMT 39.929996 -76.650612 31,175 269 263 1024
2020-02-20 16:35:05 GMT 39.930084 -76.645874 31,125 269 263 1024
2020-02-20 16:35:01 GMT 39.930222 -76.638916 31,075 269 263 1024
2020-02-20 16:34:57 GMT 39.930359 -76.631958 30,975 269 263 768
2020-02-20 16:34:54 GMT 39.930599 -76.617775 30,925 269 263 768
2020-02-20 16:34:48 GMT 39.930599 -76.617775 30,725 269 261 768
2020-02-20 16:34:45 GMT 39.930679 -76.613037 30,750 269 261 768
2020-02-20 16:34:39 GMT 39.930927 -76.600174 30,750 269 261 768
2020-02-20 16:34:36 GMT 39.930927 -76.600174 30,725 269 260 768
2020-02-20 16:34:33 GMT 39.930973 -76.596619 30,625 269 259 896
2020-02-20 16:34:30 GMT 39.931114 -76.590248 30,575 269 260 832
2020-02-20 16:34:27 GMT 39.931183 -76.584839 30,600 269 259 896
2020-02-20 16:34:23 GMT 39.931297 -76.579453 30,575 269 259 896
2020-02-20 16:34:20 GMT 39.931347 -76.575706 30,500 269 259 1088
2020-02-20 16:34:17 GMT 39.931484 -76.570152 30,425 269 259 1024
2020-02-20 16:34:14 GMT 39.931580 -76.565155 30,400 269 259 1088
2020-02-20 16:34:10 GMT 39.931671 -76.560165 30,275 269 259 1408
2020-02-20 16:34:07 GMT 39.931778 -76.554260 30,250 269 271 2560
2020-02-20 16:34:04 GMT 39.931824 -76.551147 30,175 269 260 1472
2020-02-20 16:34:01 GMT 39.931961 -76.544983 30,125 269 260 1472
2020-02-20 16:33:57 GMT 39.932045 -76.539627 30,075 269 259 1472
2020-02-20 16:33:54 GMT 39.932190 -76.530579 29,900 269 261 1408
2020-02-20 16:33:48 GMT 39.932281 -76.524475 29,825 269 261 1472
2020-02-20 16:33:45 GMT 39.932373 -76.519958 29,400 269 275 1536
2020-02-20 16:33:42 GMT 39.932465 -76.514465 29,675 269 261 1280
2020-02-20 16:33:37 GMT 39.932602 -76.506775 29,600 269 261 1600
2020-02-20 16:33:34 GMT 39.932693 -76.501709 29,575 269 261 1216
2020-02-20 16:33:31 GMT 39.932739 -76.498535 29,500 269 261 1344
2020-02-20 16:33:27 GMT 39.932877 -76.491638 29,350 269 261 1600
2020-02-20 16:33:24 GMT 39.932976 -76.486938 29,200 269 262 1856
2020-02-20 16:33:20 GMT 39.933067 -76.479950 29,125 269 263 2304
2020-02-20 16:33:16 GMT 39.933151 -76.474548 28,925 269 266 2688
2020-02-20 16:33:13 GMT 39.933334 -76.465698 28,725 269 267 2688
2020-02-20 16:33:10 GMT 39.933441 -76.458229 28,600 269 270 2560
2020-02-20 16:33:06 GMT 39.933517 -76.453369 26,250 269 271 2560
2020-02-20 16:33:03 GMT 39.933578 -76.449112 28,300 269 282 1920
2020-02-20 16:32:57 GMT 39.933674 -76.445244 28,200 269 276 2304
2020-02-20 16:32:53 GMT 39.933746 -76.438843 28,100 269 275 2368
2020-02-20 16:32:50 GMT 39.933907 -76.431198 27,925 269 279 1984
2020-02-20 16:32:46 GMT 39.933998 -76.425331 27,725 269 280 1920
2020-02-20 16:32:43 GMT 39.934048 -76.421150 27,725 269 280 1920
2020-02-20 16:32:40 GMT 39.934158 -76.416138 27,600 269 279 1984
2020-02-20 16:32:37 GMT 39.934387 -76.401306 27,225 269 280 1920
2020-02-20 16:32:32 GMT 39.934387 -76.401306 27,300 269 281 1920
2020-02-20 16:32:29 GMT 39.934479 -76.397278 27,275 269 281 1920
2020-02-20 16:32:26 GMT 39.934525 -76.393188 26,950 269 282 1920
2020-02-20 16:32:22 GMT 39.934746 -76.379326 26,950 269 282 1920
2020-02-20 16:32:18 GMT 39.934883 -76.371956 26,875 269 283 1984
2020-02-20 16:32:14 GMT 39.934883 -76.371956 26,725 269 284 1664
2020-02-20 16:32:11 GMT 39.934937 -76.367554 26,350 269 275 1536
2020-02-20 16:32:08 GMT 39.935028 -76.363342 26,325 269 284 1728
2020-02-20 16:32:05 GMT 39.935120 -76.355835 26,425 269 284 1600
2020-02-20 16:32:00 GMT 39.935349 -76.341492 26,275 269 283 1344
2020-02-20 16:31:54 GMT 39.935532 -76.332642 26,125 269 277 1408
2020-02-20 16:31:47 GMT 39.935623 -76.326050 26,125 269 282 1408
2020-02-20 16:31:44 GMT 39.935722 -76.320152 26,000 269 281 1408
2020-02-20 16:31:39 GMT 39.935898 -76.307678 25,850 269 280 1408
2020-02-20 16:31:30 GMT 39.936047 -76.297928 25,650 269 278 1408
2020-02-20 16:31:27 GMT 39.936142 -76.291183 25,575 269 278 1344
2020-02-20 16:31:19 GMT 39.936447 -76.274170 25,375 269 276 1536
2020-02-20 16:31:13 GMT 39.936653 -76.261223 24,950 269 274 1408
2020-02-20 16:31:09 GMT 39.936653 -76.261223 25,125 269 275 1472
2020-02-20 16:31:05 GMT 39.936722 -76.256287 25,075 269 274 1408
2020-02-20 16:31:00 GMT 39.936859 -76.247742 24,825 269 271 1472
2020-02-20 16:30:57 GMT 39.936977 -76.241684 24,875 269 272 1408
2020-02-20 16:30:54 GMT 39.936977 -76.238937 24,825 269 271 1408
2020-02-20 16:30:51 GMT 39.937088 -76.233521 24,750 269 270 1664
2020-02-20 16:30:48 GMT 39.937180 -76.227539 24,650 269 270 1664
2020-02-20 16:30:45 GMT 39.937225 -76.222351 24,600 269 269 1920
2020-02-20 16:30:41 GMT 39.937317 -76.217834 23,875 269 270 2304
2020-02-20 16:30:38 GMT 39.937408 -76.211365 24,450 269 269 2112
2020-02-20 16:30:34 GMT 39.937492 -76.205856 24,225 269 269 2112
2020-02-20 16:30:31 GMT 39.937584 -76.200050 24,100 269 269 2176
2020-02-20 16:30:27 GMT 39.937729 -76.188782 23,900 269 270 2304
2020-02-20 16:30:24 GMT 39.937866 -76.180847 23,750 269 271 2304
2020-02-20 16:30:16 GMT 39.937912 -76.175781 23,525 269 271 2240
2020-02-20 16:30:13 GMT 39.938004 -76.171692 23,075 269 272 1984
2020-02-20 16:30:09 GMT 39.938049 -76.166153 22,975 269 272 1984
2020-02-20 16:30:06 GMT 39.938236 -76.154419 23,125 269 271 1856
2020-02-20 16:30:03 GMT 39.938236 -76.154419 23,075 269 271 1856
2020-02-20 16:29:59 GMT 39.938324 -76.148865 21,975 269 275 2304
2020-02-20 16:29:56 GMT 39.938416 -76.143005 22,875 269 270 1984
2020-02-20 16:29:50 GMT 39.938507 -76.134033 22,750 269 270 2048
2020-02-20 16:29:47 GMT 39.938599 -76.128052 22,550 269 270 2176
2020-02-20 16:29:44 GMT 39.938690 -76.122864 22,425 269 272 2112
2020-02-20 16:29:41 GMT 39.938793 -76.115341 22,275 269 274 2368
2020-02-20 16:29:38 GMT 39.938873 -76.109070 22,175 269 273 2304
2020-02-20 16:29:34 GMT 39.938873 -76.109070 22,125 269 274 2368
2020-02-20 16:29:31 GMT 39.938965 -76.103943 22,025 269 275 2368
2020-02-20 16:29:28 GMT 39.939056 -76.098022 21,850 269 275 2304
2020-02-20 16:29:25 GMT 39.939102 -76.093201 21,775 269 275 2368
2020-02-20 16:29:21 GMT 39.939194 -76.087280 20,875 270 269 1536
2020-02-20 16:29:18 GMT 39.939259 -76.081635 21,475 269 276 2624
2020-02-20 16:29:15 GMT 39.939331 -76.076660 21,350 269 276 2688
2020-02-20 16:29:12 GMT 39.939400 -76.070335 21,150 269 277 2816
2020-02-20 16:29:09 GMT 39.939468 -76.066833 20,875 270 269 1536
2020-02-20 16:29:06 GMT 39.939541 -76.060287 20,900 269 279 2624
2020-02-20 16:29:03 GMT 39.939587 -76.055725 20,775 269 279 2560
2020-02-20 16:29:00 GMT 39.939789 -76.040466 20,400 269 280 2304
2020-02-20 16:28:54 GMT 39.939789 -76.040466 20,475 269 279 2176
2020-02-20 16:28:51 GMT 39.939911 -76.032692 20,250 269 279 2176
2020-02-20 16:28:43 GMT 39.940052 -76.023331 20,050 269 279 1984
2020-02-20 16:28:39 GMT 39.940144 -76.015404 17,775 269 276 1856
2020-02-20 16:28:35 GMT 39.940247 -76.008972 19,750 269 275 1920
2020-02-20 16:28:32 GMT 39.940292 -76.003052 19,700 269 274 1984
2020-02-20 16:28:28 GMT 39.940376 -75.998047 19,650 269 275 1920
2020-02-20 16:28:22 GMT 39.940521 -75.987976 19,225 270 273 2560
2020-02-20 16:28:19 GMT 39.940613 -75.979309 19,175 270 272 2496
2020-02-20 16:28:13 GMT 39.940750 -75.968201 18,875 270 273 2560
2020-02-20 16:28:10 GMT 39.940750 -75.968201 18,825 270 273 2624
2020-02-20 16:28:07 GMT 39.940796 -75.962723 18,725 270 273 2560
2020-02-20 16:28:03 GMT 39.940887 -75.955139 18,550 270 273 2368
2020-02-20 16:27:59 GMT 39.940933 -75.949097 18,375 270 273 2112
2020-02-20 16:27:56 GMT 39.940979 -75.945312 18,325 270 272 1920
2020-02-20 16:27:51 GMT 39.941071 -75.937256 18,250 270 271 1600
2020-02-20 16:27:48 GMT 39.941216 -75.928513 18,075 270 269 1536
2020-02-20 16:27:45 GMT 39.941299 -75.918030 17,950 270 267 1472
2020-02-20 16:27:39 GMT 39.941299 -75.918030 17,800 270 267 1408
2020-02-20 16:27:36 GMT 39.941402 -75.910599 17,800 270 265 1408
2020-02-20 16:27:30 GMT 39.941528 -75.898132 17,600 270 263 1536
2020-02-20 16:27:23 GMT 39.941666 -75.886108 17,450 270 261 1600
2020-02-20 16:27:20 GMT 39.941666 -75.886108 17,400 270 261 1600
2020-02-20 16:27:16 GMT 39.941727 -75.880882 17,150 270 260 1664
2020-02-20 16:27:11 GMT 39.941818 -75.873833 17,150 270 260 1984
2020-02-20 16:27:08 GMT 39.941959 -75.862534 16,925 270 260 2304
2020-02-20 16:26:59 GMT 39.942078 -75.854126 16,700 270 261 2496
2020-02-20 16:26:55 GMT 39.942146 -75.848114 16,550 270 262 2496
2020-02-20 16:26:50 GMT 39.942215 -75.840881 16,350 270 264 2432
2020-02-20 16:26:47 GMT 39.942287 -75.836067 16,225 270 263 2496
2020-02-20 16:26:44 GMT 39.942307 -75.831360 16,100 270 264 2496
2020-02-20 16:26:39 GMT 39.942425 -75.822266 15,950 270 264 2304
2020-02-20 16:26:36 GMT 39.942516 -75.814468 14,550 270 267 2368
2020-02-20 16:26:30 GMT 39.942581 -75.809692 15,550 270 265 2240
2020-02-20 16:26:27 GMT 39.942673 -75.802734 15,375 269 265 2560
2020-02-20 16:26:23 GMT 39.942753 -75.796051 15,250 270 265 2432
2020-02-20 16:26:18 GMT 39.942810 -75.789368 14,700 269 265 2560
2020-02-20 16:26:15 GMT 39.942902 -75.784241 14,950 269 265 2560
2020-02-20 16:26:12 GMT 39.942947 -75.780396 14,850 269 266 2496
2020-02-20 16:26:08 GMT 39.943031 -75.774956 14,700 270 266 2368
2020-02-20 16:26:04 GMT 39.943123 -75.767273 14,425 270 267 2368
2020-02-20 16:25:58 GMT 39.943085 -75.758606 14,300 273 266 2368
2020-02-20 16:25:55 GMT 39.942902 -75.754150 14,000 280 268 2688
2020-02-20 16:25:52 GMT 39.942535 -75.748413 14,125 276 267 2560
2020-02-20 16:25:46 GMT 39.941357 -75.738495 13,850 280 268 2688
2020-02-20 16:25:43 GMT 39.940235 -75.732819 13,625 288 271 2432
2020-02-20 16:25:39 GMT 39.938461 -75.726379 13,450 294 272 2496
2020-02-20 16:25:35 GMT 39.935349 -75.717346 13,075 295 273 2688
2020-02-20 16:25:28 GMT 39.933060 -75.710754 13,000 295 275 2688
2020-02-20 16:25:23 GMT 39.930367 -75.703232 12,775 295 274 2880
2020-02-20 16:25:18 GMT 39.927387 -75.694923 12,425 295 275 2624
2020-02-20 16:25:14 GMT 39.926086 -75.691185 12,350 295 275 2368
2020-02-20 16:25:11 GMT 39.922409 -75.681030 12,275 295 275 2368
2020-02-20 16:25:08 GMT 39.922409 -75.681030 12,100 295 274 2368
2020-02-20 16:25:05 GMT 39.921021 -75.677055 11,975 295 274 2496
2020-02-20 16:25:02 GMT 39.918591 -75.670166 11,875 295 274 2432
2020-02-20 16:24:56 GMT 39.915657 -75.661682 11,650 295 273 2240
2020-02-20 16:24:53 GMT 39.914749 -75.659142 11,600 295 272 2304
2020-02-20 16:24:50 GMT 39.913189 -75.654541 11,275 295 271 2368
2020-02-20 16:24:45 GMT 39.910072 -75.645508 11,225 295 271 2304
2020-02-20 16:24:40 GMT 39.907928 -75.639259 10,925 295 272 2688
2020-02-20 16:24:36 GMT 39.905975 -75.633606 10,750 295 271 2816
2020-02-20 16:24:33 GMT 39.903992 -75.627914 10,750 295 271 2880
2020-02-20 16:24:30 GMT 39.902985 -75.625046 10,500 295 272 2688
2020-02-20 16:24:26 GMT 39.900650 -75.618477 10,425 295 272 2624
2020-02-20 16:24:23 GMT 39.899368 -75.614899 9,975 295 273 2048
2020-02-20 16:24:20 GMT 39.897263 -75.608803 10,150 295 273 2112
2020-02-20 16:24:17 GMT 39.895641 -75.604309 9,900 295 270 1280
2020-02-20 16:24:14 GMT 39.892136 -75.594055 9,900 295 270 1280
2020-02-20 16:24:09 GMT 39.892136 -75.594055 7,850 294 269 1088
2020-02-20 16:24:03 GMT 39.889122 -75.585266 9,750 294 269 1344
2020-02-20 16:23:59 GMT 39.886597 -75.577873 9,650 294 269 1344
2020-02-20 16:23:53 GMT 39.883446 -75.568665 9,550 294 267 960
2020-02-20 16:23:50 GMT 39.882278 -75.565186 9,525 294 265 704
2020-02-20 16:23:41 GMT 39.877899 -75.552322 9,475 294 255 448
2020-02-20 16:23:38 GMT 39.876480 -75.548264 9,425 294 243 2176
2020-02-20 16:23:34 GMT 39.874420 -75.542168 9,350 294 249 1280
2020-02-20 16:23:31 GMT 39.873138 -75.538406 9,000 295 235 2688
2020-02-20 16:23:28 GMT 39.871712 -75.534180 9,200 295 245 2048
2020-02-20 16:23:23 GMT 39.869713 -75.528320 8,800 295 239 2240
2020-02-20 16:23:19 GMT 39.867325 -75.521515 8,875 295 239 2240
2020-02-20 16:23:16 GMT 39.866920 -75.516312 7,500 295 230 2368
2020-02-20 16:23:13 GMT 39.865589 -75.512543 8,400 295 236 2560
2020-02-20 16:23:10 GMT 39.864250 -75.508781 7,500 295 230 2368
2020-02-20 16:23:07 GMT 39.862919 -75.505013 7,500 295 230 2368
2020-02-20 16:23:04 GMT 39.861591 -75.501251 7,500 295 230 2368
2020-02-20 16:23:01 GMT 39.860249 -75.497490 7,500 295 230 2368
2020-02-20 16:22:58 GMT 39.857590 -75.489960 7,500 295 230 2368
2020-02-20 16:22:55 GMT 39.856251 -75.486198 7,500 295 230 2368
2020-02-20 16:22:52 GMT 39.856251 -75.486198 7,500 295 230 2368
2020-02-20 16:22:49 GMT 39.854919 -75.482430 7,500 295 230 2368
2020-02-20 16:22:46 GMT 39.853828 -75.478668 7,100 295 231 2368
2020-02-20 16:22:43 GMT 39.851151 -75.471199 7,100 295 232 2368
2020-02-20 16:22:40 GMT 39.849739 -75.467422 7,100 295 232 2368
2020-02-20 16:22:37 GMT 39.849739 -75.467422 6,900 295 232 2368
2020-02-20 16:22:34 GMT 39.848351 -75.463654 6,400 295 233 2368
2020-02-20 16:22:31 GMT 39.846901 -75.459969 6,400 295 233 2368
2020-02-20 16:22:28 GMT 39.845970 -75.456268 6,550 293 229 3328
2020-02-20 16:22:25 GMT 39.844700 -75.452400 6,400 294 233 2368
2020-02-20 16:22:22 GMT 39.843880 -75.448387 6,100 298 234 992
2020-02-20 16:22:19 GMT 39.842899 -75.444603 5,700 300 237 992
2020-02-20 16:22:16 GMT 39.841270 -75.440887 5,700 300 237 992
2020-02-20 16:22:13 GMT 39.840240 -75.436928 5,700 301 237 992
2020-02-20 16:22:10 GMT 39.837200 -75.429642 5,000 299 240 992
2020-02-20 16:22:07 GMT 39.837200 -75.429642 5,000 299 240 992
2020-02-20 16:22:04 GMT 39.835430 -75.426308 5,000 292 244 992
2020-02-20 16:22:01 GMT 39.833279 -75.422852 4,700 283 245 992
2020-02-20 16:21:58 GMT 39.832218 -75.418648 4,700 283 245 992
2020-02-20 16:21:55 GMT 39.830292 -75.414597 4,200 273 243 992
2020-02-20 16:21:52 GMT 39.828548 -75.410507 4,200 273 243 992
2020-02-20 16:21:49 GMT 39.828732 -75.406059 4,200 264 247 992
2020-02-20 16:21:46 GMT 39.827911 -75.401703 4,000 256 252 992
2020-02-20 16:21:43 GMT 39.828770 -75.392738 3,700 252 249 992
2020-02-20 16:21:37 GMT 39.829651 -75.387604 3,700 252 249 992
2020-02-20 16:21:34 GMT 39.831879 -75.379532 3,200 251 216 992
2020-02-20 16:21:28 GMT 39.833191 -75.375580 3,200 251 209 -96
2020-02-20 16:21:25 GMT 39.834068 -75.371986 3,200 251 209 -96
2020-02-20 16:21:22 GMT 39.834930 -75.368233 3,100 250 209 1664
2020-02-20 16:21:16 GMT 39.836750 -75.361221 2,900 250 219 1664
2020-02-20 16:21:13 GMT 39.837749 -75.357597 2,900 250 220 1664
2020-02-20 16:21:07 GMT 39.839851 -75.350121 2,400 250 207 1664
2020-02-20 16:21:04 GMT 39.840820 -75.346611 2,400 250 213 1664
2020-02-20 16:21:01 GMT 39.841801 -75.343010 2,200 249 212 1664
2020-02-20 16:20:58 GMT 39.842869 -75.339363 2,200 249 213 1664
2020-02-20 16:20:55 GMT 39.843811 -75.335854 1,700 249 208 1664
2020-02-20 16:20:52 GMT 39.844791 -75.332397 1,700 249 207 1664
2020-02-20 16:20:49 GMT 39.845810 -75.328842 1,700 249 213 1664
2020-02-20 16:20:46 GMT 39.846809 -75.325310 1,650 249 209 1664
2020-02-20 16:20:43 GMT 39.847839 -75.321678 1,500 249 212 1664
2020-02-20 16:20:40 GMT 39.848839 -75.318192 1,425 249 211 1664
2020-02-20 16:20:37 GMT 39.850941 -75.310966 1,325 250 197 1664
2020-02-20 16:20:34 GMT 39.851768 -75.307899 1,250 250 193 1664
2020-02-20 16:20:31 GMT 39.852638 -75.304619 1,200 250 192 1664
2020-02-20 16:20:28 GMT 39.853580 -75.301353 1,200 250 188 1664
2020-02-20 16:20:25 GMT 39.853580 -75.301353 1,200 250 179 1664
2020-02-20 16:20:22 GMT 39.854340 -75.298340 1,075 250 175 0
2020-02-20 16:20:19 GMT 39.855251 -75.295380 1,075 252 172 0
2020-02-20 16:20:16 GMT 39.856010 -75.292412 950 250 167 0
2020-02-20 16:20:13 GMT 39.856670 -75.289650 950 249 165 0
2020-02-20 16:20:10 GMT 39.857441 -75.286858 925 248 156 0
2020-02-20 16:20:07 GMT 39.858250 -75.284210 825 251 153 0
2020-02-20 16:20:04 GMT 39.858940 -75.281487 700 247 140 0
2020-02-20 16:20:01 GMT 39.859612 -75.279404 525 252 154 0
2020-02-20 16:19:58 GMT 39.860291 -75.276718 500 254 155 0
2020-02-20 16:19:55 GMT 39.860828 -75.274117 350 253 152 0
2020-02-20 16:19:52 GMT 39.861462 -75.271431 275 254 155 0
2020-02-20 16:19:49 GMT 39.862011 -75.268761 100 254 145 0
2020-02-20 16:19:46 GMT 39.862560 -75.266151 0 254 158 0
2020-02-20 16:19:43 GMT 39.863152 -75.263550 -175 256 149 0
2020-02-20 16:19:40 GMT 39.863682 -75.260933 -275 254 151 0
2020-02-20 16:19:37 GMT 39.864780 -75.255493 -500 255 160 0
2020-02-20 16:19:31 GMT 39.865311 -75.252769 -525 256 153 -192
2020-02-20 16:19:28 GMT 39.865810 -75.250137 -525 254 146 -192
2020-02-20 16:19:25 GMT 39.866322 -75.247719 -525 255 133 -192
2020-02-20 16:19:22 GMT 39.866779 -75.245453 -500 256 125 0
2020-02-20 16:19:19 GMT 39.867168 -75.243317 -500 254 110
2020-02-20 16:19:16 GMT 39.867569 -75.241463 -500 255 103
2020-02-20 16:19:13 GMT 39.867901 -75.239761 -500 256 96
2020-02-20 16:19:10 GMT 39.868439 -75.237068 -500 256 70
2020-02-20 16:19:07 GMT 39.868439 -75.237068 0 255 63
2020-02-20 16:19:04 GMT 39.868641 -75.235970 0 255 35
2020-02-20 16:19:01 GMT 39.868790 -75.235252 0 254 25
2020-02-20 16:18:58 GMT 39.868881 -75.234833 0 250 18
2020-02-20 16:18:55 GMT 39.868938 -75.234550 0 249 11
2020-02-20 16:18:52 GMT 39.869019 -75.234367 0 249 11
2020-02-20 16:18:49 GMT 39.869030 -75.234238 0 238 9
2020-02-20 16:18:46 GMT 39.869061 -75.234070 0 205 6
2020-02-20 16:18:43 GMT 39.869171 -75.234016 0 172 7
2020-02-20 16:18:40 GMT 39.869259 -75.234016 0 169 9
2020-02-20 16:18:37 GMT 39.869400 -75.234062 0 165 11
2020-02-20 16:18:34 GMT 39.869591 -75.234100 0 172 13
2020-02-20 16:18:31 GMT 39.869740 -75.234138 0 174 13
2020-02-20 16:18:28 GMT 39.869888 -75.234177 0 194 11
2020-02-20 16:18:25 GMT 39.870060 -75.234138 0 219 8
2020-02-20 16:18:22 GMT 39.870190 -75.234070 0 247 10
2020-02-20 16:18:19 GMT 39.870201 -75.233917 0 250 11
2020-02-20 16:18:16 GMT 39.870300 -75.233643 0 258 5
2020-02-20 16:18:13 GMT 39.870300 -75.233521 0 246 5
2020-02-20 16:18:10 GMT 39.870338 -75.233452 0 253 4
2020-02-20 16:18:07 GMT 39.870338 -75.233452 0 254 3
2020-02-20 16:18:04 GMT 39.870312 -75.233391 0 250 3
2020-02-20 16:18:01 GMT 39.870350 -75.233330 0 237 3
2020-02-20 16:17:58 GMT 39.870319 -75.233253 0 236 2
2020-02-20 16:17:55 GMT 39.870319 -75.233238 0 234 0
2020-02-20 16:17:52 GMT 39.870331 -75.233231 0 234 0
2020-02-20 16:17:47 GMT 39.870319 -75.233231 0 234 0
2020-02-20 16:17:44 GMT 39.870312 -75.233238 0 235 0
2020-02-20 16:17:41 GMT 39.870331 -75.233253 0 235 0
2020-02-20 16:17:38 GMT 39.870338 -75.233253 0 235 0
2020-02-20 16:17:34 GMT 39.870338 -75.233269 0 228 2
2020-02-20 16:17:31 GMT 39.870331 -75.233238 0 222 1
2020-02-20 16:17:28 GMT 39.870319 -75.233223 0 222 1
2020-02-20 16:17:25 GMT 39.870312 -75.233238 0 222 0
2020-02-20 16:17:22 GMT 39.870319 -75.233276 0 224 1
2020-02-20 16:17:19 GMT 39.870300 -75.233238 0 227 2
2020-02-20 16:17:16 GMT 39.870300 -75.233269 0 237 3
2020-02-20 16:17:13 GMT 39.870350 -75.233299 0 239 0
2020-02-20 16:17:10 GMT 39.870369 -75.233322 0 239 1
2020-02-20 16:17:07 GMT 39.870350 -75.233307 0 239 0
2020-02-20 16:17:04 GMT 39.870338 -75.233307 0 239 0
2020-02-20 16:17:01 GMT 39.870319 -75.233299 0 241 2
2020-02-20 16:16:58 GMT 39.870338 -75.233292 0 241 0
2020-02-20 16:16:55 GMT 39.870361 -75.233330 0 242 1
2020-02-20 16:16:52 GMT 39.870361 -75.233330 0 234 2
2020-02-20 16:16:49 GMT 39.870319 -75.233253 0 217 0
2020-02-20 16:16:46 GMT 39.870312 -75.233238 0 222 0
2020-02-20 16:16:43 GMT 39.870331 -75.233292 0 222 0
2020-02-20 16:16:40 GMT 39.870319 -75.233292 0 220 2
2020-02-20 16:16:37 GMT 39.870312 -75.233330 0 217 3
2020-02-20 16:16:34 GMT 39.870312 -75.233253 0 217 0
2020-02-20 16:16:31 GMT 39.870300 -75.233231 0 219 0
2020-02-20 16:16:28 GMT 39.870319 -75.233261 0 220 1
2020-02-20 16:16:25 GMT 39.870331 -75.233253 0 220 1
2020-02-20 16:16:22 GMT 39.870312 -75.233238 0 222 1
2020-02-20 16:16:19 GMT 39.870319 -75.233261 0 227 0
2020-02-20 16:16:16 GMT 39.870300 -75.233269 0 227 1
2020-02-20 16:16:13 GMT 39.870338 -75.233261 0 229 0
2020-02-20 16:16:10 GMT 39.870319 -75.233253 0 224 0
2020-02-20 16:16:07 GMT 39.870319 -75.233238 0 224 1
2020-02-20 16:16:04 GMT 39.870312 -75.233238 0 224 1
2020-02-20 16:16:01 GMT 39.870331 -75.233253 0 226 3
2020-02-20 16:15:58 GMT 39.870361 -75.233253 0 230 2
2020-02-20 16:15:55 GMT 39.870338 -75.233253 0 223 1
2020-02-20 16:15:52 GMT 39.870281 -75.233299 0 217 0
2020-02-20 16:15:49 GMT 39.870300 -75.233261 0 217 1
2020-02-20 16:15:46 GMT 39.870331 -75.233269 0 219 0
2020-02-20 16:15:40 GMT 39.870338 -75.233253 0 219 0
2020-02-20 16:15:37 GMT 39.870338 -75.233253 0 219 0
2020-02-20 16:15:34 GMT 39.870331 -75.233253 0 220 1
2020-02-20 16:15:31 GMT 39.870331 -75.233238 0 220 1
2020-02-20 16:15:28 GMT 39.870338 -75.233238 0 220 3
2020-02-20 16:15:25 GMT 39.870338 -75.233223 0 229 2
2020-02-20 16:15:22 GMT 39.870319 -75.233231 0 234 0
2020-02-20 16:15:19 GMT 39.870331 -75.233261 0 255 1
2020-02-20 16:15:16 GMT 39.870331 -75.233253 0 255 2
2020-02-20 16:15:13 GMT 39.870380 -75.233231 0 275 4
2020-02-20 16:15:10 GMT 39.870338 -75.233162 0 251 6
2020-02-20 16:15:07 GMT 39.870399 -75.232971 0 238 6
2020-02-20 16:15:04 GMT 39.870499 -75.232727 0 242 8
2020-02-20 16:15:01 GMT 39.870499 -75.232727 0 243 7
2020-02-20 16:14:58 GMT 39.870541 -75.232620 0 222 5
2020-02-20 16:14:55 GMT 39.870571 -75.232536 0 230 7
2020-02-20 16:14:52 GMT 39.870628 -75.232452 0 218 5
2020-02-20 16:14:49 GMT 39.870670 -75.232361 0 212 3
2020-02-20 16:14:46 GMT 39.870701 -75.232277 0 207 0
2020-02-20 16:14:43 GMT 39.870720 -75.232262 0 207 1
2020-02-20 16:14:40 GMT 39.870731 -75.232269 0 207 0
2020-02-20 16:14:36 GMT 39.870731 -75.232262 0 208 0
2020-02-20 16:14:32 GMT 39.870739 -75.232269 0 211 0
2020-02-20 16:14:29 GMT 39.870731 -75.232262 0 211 1
2020-02-20 16:14:26 GMT 39.870739 -75.232246 0 211 1
2020-02-20 16:14:22 GMT 39.870739 -75.232262 0 211 0
2020-02-20 16:14:19 GMT 39.870731 -75.232246 0 211 0
2020-02-20 16:14:16 GMT 39.870701 -75.232224 0 211 1
2020-02-20 16:14:13 GMT 39.870750 -75.232262 0 216 0
2020-02-20 16:14:10 GMT 39.870762 -75.232269 0 216 0
2020-02-20 16:14:07 GMT 39.870750 -75.232277 0 216 0
2020-02-20 16:14:03 GMT 39.870739 -75.232277 0 216 0
2020-02-20 16:13:59 GMT 39.870762 -75.232269 0 219 1
2020-02-20 16:13:56 GMT 39.870770 -75.232292 0 215 0
2020-02-20 16:13:53 GMT 39.870750 -75.232277 0 216 1
2020-02-20 16:13:50 GMT 39.870731 -75.232300 0 222 0
2020-02-20 16:13:47 GMT 39.870739 -75.232338 0 222 1
2020-02-20 16:13:44 GMT 39.870731 -75.232292 0 221 2
2020-02-20 16:13:41 GMT 39.870739 -75.232292 0 221 2
2020-02-20 16:13:38 GMT 39.870720 -75.232246 0 222 2
2020-02-20 16:13:34 GMT 39.870720 -75.232262 0 225 0
2020-02-20 16:13:30 GMT 39.870720 -75.232262 0 229 0
2020-02-20 16:13:27 GMT 39.870720 -75.232269 0 226 1
2020-02-20 16:13:24 GMT 39.870708 -75.232231 0 226 1
2020-02-20 16:13:21 GMT 39.870689 -75.232208 0 230 2
2020-02-20 16:13:18 GMT 39.870720 -75.232262 0 231 2
2020-02-20 16:13:15 GMT 39.870731 -75.232269 0 235 0
2020-02-20 16:13:12 GMT 39.870739 -75.232269 0 230 1
2020-02-20 16:13:08 GMT 39.870739 -75.232269 0 228 1
2020-02-20 16:13:05 GMT 39.870701 -75.232239 0 227 0
2020-02-20 16:13:02 GMT 39.870708 -75.232269 0 227 1
2020-02-20 16:12:59 GMT 39.870720 -75.232239 0 228 0
2020-02-20 16:12:55 GMT 39.870720 -75.232246 0 228 0
2020-02-20 16:12:52 GMT 39.870720 -75.232269 0 227 1
2020-02-20 16:12:49 GMT 39.870701 -75.232231 0 225 1
2020-02-20 16:12:46 GMT 39.870701 -75.232224 0 226 0
2020-02-20 16:12:43 GMT 39.870720 -75.232231 0 226 0
2020-02-20 16:12:40 GMT 39.870720 -75.232231 0 226 0
2020-02-20 16:12:34 GMT 39.870701 -75.232224 0 227 1
2020-02-20 16:12:31 GMT 39.870720 -75.232239 0 232 0
2020-02-20 16:12:25 GMT 39.870720 -75.232246 0 234 0
2020-02-20 16:12:22 GMT 39.870701 -75.232231 0 235 1
2020-02-20 16:12:19 GMT 39.870708 -75.232224 0 239 2
2020-02-20 16:12:16 GMT 39.870731 -75.232277 0 241 0
2020-02-20 16:12:13 GMT 39.870720 -75.232269 0 241 0
2020-02-20 16:12:10 GMT 39.870731 -75.232292 0 243 0
2020-02-20 16:12:07 GMT 39.870739 -75.232300 0 243 0
2020-02-20 16:12:04 GMT 39.870720 -75.232277 0 243 2
2020-02-20 16:12:01 GMT 39.870762 -75.232338 0 243 2
2020-02-20 16:11:58 GMT 39.870750 -75.232277 0 241 2
2020-02-20 16:11:55 GMT 39.870720 -75.232323 0 241 2
2020-02-20 16:11:52 GMT 39.870731 -75.232307 0 241 1
2020-02-20 16:11:48 GMT 39.870701 -75.232231 0 238 0
2020-02-20 16:11:45 GMT 39.870708 -75.232208 0 239 1
2020-02-20 16:11:42 GMT 39.870708 -75.232208 0 244 1
2020-02-20 16:11:39 GMT 39.870708 -75.232239 0 246 1
2020-02-20 16:11:36 GMT 39.870720 -75.232262 0 246 0
2020-02-20 16:11:32 GMT 39.870731 -75.232246 0 246 1
2020-02-20 16:11:29 GMT 39.870731 -75.232239 0 246 0
2020-02-20 16:11:26 GMT 39.870739 -75.232231 0 247 0
2020-02-20 16:11:20 GMT 39.870720 -75.232239 0 248 0
2020-02-20 16:11:17 GMT 39.870731 -75.232246 0 248 0
2020-02-20 16:11:14 GMT 39.870708 -75.232262 0 248 0
2020-02-20 16:11:08 GMT 39.870731 -75.232246 0 248 1
2020-02-20 16:11:05 GMT 39.870731 -75.232246 0 245 1
2020-02-20 16:11:02 GMT 39.870708 -75.232262 0 244 0
2020-02-20 16:10:59 GMT 39.870689 -75.232224 0 247 1
2020-02-20 16:10:56 GMT 39.870731 -75.232269 0 249 0
2020-02-20 16:10:53 GMT 39.870739 -75.232277 0 249 0
2020-02-20 16:10:50 GMT 39.870762 -75.232307 0 249 1
2020-02-20 16:10:44 GMT 39.870750 -75.232277 0 251 0
2020-02-20 16:10:41 GMT 39.870750 -75.232300 0 254 0
2020-02-20 16:10:34 GMT 39.870739 -75.232292 0 254 0
2020-02-20 16:10:31 GMT 39.870750 -75.232300 0 252 1
2020-02-20 16:10:28 GMT 39.870720 -75.232239 0 215 1
2020-02-20 16:10:25 GMT 39.870720 -75.232231 0 212 1
2020-02-20 16:10:22 GMT 39.870701 -75.232224 0 209 1
2020-02-20 16:10:19 GMT 39.870670 -75.232201 0 220 3
2020-02-20 16:10:16 GMT 39.870731 -75.232231 0 227 1
2020-02-20 16:10:13 GMT 39.870701 -75.232246 0 224 1
2020-02-20 16:10:10 GMT 39.870720 -75.232277 0 231 3
2020-02-20 16:10:07 GMT 39.870720 -75.232262 0 233 6
2020-02-20 16:10:04 GMT 39.870789 -75.232170 0 239 8
2020-02-20 16:10:01 GMT 39.870850 -75.232040 0 229 7
2020-02-20 16:09:58 GMT 39.870880 -75.231911 0 208 8
2020-02-20 16:09:55 GMT 39.870998 -75.231880 0 224 7
2020-02-20 16:09:52 GMT 39.871059 -75.231796 0 225 9
2020-02-20 16:09:49 GMT 39.871151 -75.231697 0 235 10
2020-02-20 16:09:46 GMT 39.871250 -75.231583 0 243 8
2020-02-20 16:09:43 GMT 39.871269 -75.231461 0 247 8
2020-02-20 16:09:40 GMT 39.871319 -75.231323 0 231 9
2020-02-20 16:09:37 GMT 39.871391 -75.231171 0 226 8
2020-02-20 16:09:34 GMT 39.871471 -75.231071 0 201 9
2020-02-20 16:09:31 GMT 39.871571 -75.230949 0 169 9
2020-02-20 16:09:28 GMT 39.871689 -75.230957 0 163 12
2020-02-20 16:09:25 GMT 39.871868 -75.231033 0 159 13
2020-02-20 16:09:22 GMT 39.872028 -75.231102 0 154 16
2020-02-20 16:09:19 GMT 39.872238 -75.231232 0 157 19
2020-02-20 16:09:16 GMT 39.872471 -75.231354 0 159 21
2020-02-20 16:09:13 GMT 39.872749 -75.231491 0 159 21
2020-02-20 16:09:10 GMT 39.873032 -75.231621 0 161 19
2020-02-20 16:09:07 GMT 39.873249 -75.231773 0 170 16
2020-02-20 16:09:04 GMT 39.873459 -75.231796 0 153 13
2020-02-20 16:09:01 GMT 39.873619 -75.231941 0 162 17
2020-02-20 16:08:58 GMT 39.873840 -75.232040 0 161 12
2020-02-20 16:08:55 GMT 39.874001 -75.232109 0 157 10
2020-02-20 16:08:52 GMT 39.874111 -75.232193 0 165 10
2020-02-20 16:08:49 GMT 39.874241 -75.232239 0 160 6
2020-02-20 16:08:46 GMT 39.874329 -75.232262 0 164 5
2020-02-20 16:08:43 GMT 39.874409 -75.232300 0 167 1
2020-02-20 16:08:40 GMT 39.874420 -75.232330 0 167 0
2020-02-20 16:08:34 GMT 39.874432 -75.232323 0 167 0
2020-02-20 16:08:31 GMT 39.874439 -75.232338 0 167 0
2020-02-20 16:08:25 GMT 39.874451 -75.232338 0 166 0
2020-02-20 16:08:22 GMT 39.874439 -75.232330 0 166 0
2020-02-20 16:08:19 GMT 39.874432 -75.232330 0 166 0
2020-02-20 16:08:16 GMT 39.874439 -75.232330 0 164 0
2020-02-20 16:08:06 GMT 39.874432 -75.232330 0 164 0
2020-02-20 16:07:48 GMT 39.874439 -75.232338 0 162 0
2020-02-20 16:07:45 GMT 39.874439 -75.232338 0 162 0
2020-02-20 16:07:39 GMT 39.874439 -75.232353 0 165 0
2020-02-20 16:07:33 GMT 39.874470 -75.232368 0 164 2
2020-02-20 16:07:27 GMT 39.874481 -75.232361 0 151 4
2020-02-20 16:07:24 GMT 39.874531 -75.232422 0 158 5
2020-02-20 16:07:21 GMT 39.874649 -75.232452 0 158 6
2020-02-20 16:07:15 GMT 39.874870 -75.232590 0 171 7
2020-02-20 16:07:12 GMT 39.874981 -75.232559 0 160 8
2020-02-20 16:07:09 GMT 39.875050 -75.232643 0 156 9
2020-02-20 16:07:06 GMT 39.875198 -75.232719 0 158 10
2020-02-20 16:07:03 GMT 39.875198 -75.232719 0 173 6
2020-02-20 16:07:00 GMT 39.875359 -75.232758 0 159 4
2020-02-20 16:06:57 GMT 39.875359 -75.232758 0 153 6
2020-02-20 16:06:54 GMT 39.875420 -75.232819 0 149 7
2020-02-20 16:06:51 GMT 39.875542 -75.232872 0 153 5
2020-02-20 16:06:48 GMT 39.875591 -75.232910 0 170 5
2020-02-20 16:06:45 GMT 39.875648 -75.232941 0 164 6
2020-02-20 16:06:42 GMT 39.875740 -75.232948 0 157 3
2020-02-20 16:06:39 GMT 39.875790 -75.232986 0 164 3
2020-02-20 16:06:36 GMT 39.875820 -75.233002 0 154 4
2020-02-20 16:06:33 GMT 39.875889 -75.233032 0 159 4
2020-02-20 16:06:30 GMT 39.875919 -75.233063 0 149 5
2020-02-20 16:06:27 GMT 39.875980 -75.233078 0 151 4
2020-02-20 16:06:24 GMT 39.876019 -75.233131 0 153 1
2020-02-20 16:06:21 GMT 39.876060 -75.233131 0 151 2
2020-02-20 16:06:18 GMT 39.876080 -75.233139 0 151 0
2020-02-20 16:06:15 GMT 39.876110 -75.233147 0 151 0
2020-02-20 16:06:12 GMT 39.876110 -75.233124 0 152 2
2020-02-20 16:06:09 GMT 39.876148 -75.233162 0 150 0
2020-02-20 16:06:05 GMT 39.876148 -75.233162 0 150 0
2020-02-20 16:05:59 GMT 39.876148 -75.233147 0 150 0
2020-02-20 16:05:56 GMT 39.876160 -75.233162 0 151 1
2020-02-20 16:05:53 GMT 39.876160 -75.233147 0 151 0
2020-02-20 16:05:50 GMT 39.876141 -75.233147 0 152 0
2020-02-20 16:05:47 GMT 39.876141 -75.233170 0 152 0
2020-02-20 16:05:44 GMT 39.876141 -75.233162 0 152 0
2020-02-20 16:05:41 GMT 39.876141 -75.233170 0 152 1
2020-02-20 16:05:38 GMT 39.876148 -75.233162 0 151 0
2020-02-20 16:05:35 GMT 39.876160 -75.233147 0 153 1
2020-02-20 16:05:32 GMT 39.876148 -75.233139 0 153 2
2020-02-20 16:05:29 GMT 39.876179 -75.233170 0 158 3
2020-02-20 16:05:25 GMT 39.876209 -75.233200 0 157 9
2020-02-20 16:05:22 GMT 39.876301 -75.233269 0 165 11
2020-02-20 16:05:19 GMT 39.876438 -75.233292 0 156 12
2020-02-20 16:05:16 GMT 39.876598 -75.233391 0 155 12
2020-02-20 16:05:13 GMT 39.876751 -75.233482 0 159 11
2020-02-20 16:05:10 GMT 39.876888 -75.233528 0 156 11
2020-02-20 16:05:07 GMT 39.877071 -75.233627 0 158 10
2020-02-20 16:05:04 GMT 39.877209 -75.233704 0 162 12
2020-02-20 16:05:01 GMT 39.877350 -75.233810 0 167 12
2020-02-20 16:04:58 GMT 39.877510 -75.233810 0 155 14
2020-02-20 16:04:55 GMT 39.877640 -75.233932 0 126 14
2020-02-20 16:04:52 GMT 39.877781 -75.234123 0 118 12
2020-02-20 16:04:49 GMT 39.877800 -75.234268 0 103 10
2020-02-20 16:04:46 GMT 39.877850 -75.234459 0 63 9
2020-02-20 16:04:43 GMT 39.877831 -75.234619 0 51 10
2020-02-20 16:04:40 GMT 39.877701 -75.234772 0 38 8
2020-02-20 16:04:37 GMT 39.877621 -75.234932 0 19 8
2020-02-20 16:04:31 GMT 39.877270 -75.235092 0 16 10
2020-02-20 16:04:28 GMT 39.877270 -75.235092 0 16 10
2020-02-20 16:04:25 GMT 39.877151 -75.235153 0 15 12
2020-02-20 16:04:22 GMT 39.876999 -75.235191 0 15 11
2020-02-20 16:04:19 GMT 39.876831 -75.235313 0 10 11
2020-02-20 16:04:16 GMT 39.876690 -75.235329 0 17 15
2020-02-20 16:04:13 GMT 39.876480 -75.235420 0 21 13
2020-02-20 16:04:10 GMT 39.876308 -75.235512 0 19 12
2020-02-20 16:04:07 GMT 39.876160 -75.235558 0 8 11
2020-02-20 16:04:04 GMT 39.875999 -75.235611 0 23 12
2020-02-20 16:04:01 GMT 39.875671 -75.235809 0 19 12
2020-02-20 16:03:58 GMT 39.875671 -75.235809 0 23 14
2020-02-20 16:03:55 GMT 39.875511 -75.235901 0 30 11
2020-02-20 16:03:52 GMT 39.875370 -75.235947 0 43 10
2020-02-20 16:03:49 GMT 39.875252 -75.236092 0 48 10
2020-02-20 16:03:46 GMT 39.875141 -75.236252 0 41 10
2020-02-20 16:03:43 GMT 39.875050 -75.236389 0 38 9
2020-02-20 16:03:40 GMT 39.874931 -75.236481 0 46 8
2020-02-20 16:03:37 GMT 39.874859 -75.236603 0 41 7
2020-02-20 16:03:34 GMT 39.874779 -75.236679 0 47 7
2020-02-20 16:03:31 GMT 39.874710 -75.236771 0 46 6
2020-02-20 16:03:28 GMT 39.874660 -75.236847 0 50 4
2020-02-20 16:03:25 GMT 39.874619 -75.236900 0 47 6
2020-02-20 16:03:22 GMT 39.874561 -75.236969 0 53 6
2020-02-20 16:03:19 GMT 39.874531 -75.237030 0 45 5
2020-02-20 16:03:16 GMT 39.874470 -75.237122 0 34 7
2020-02-20 16:03:13 GMT 39.874409 -75.237152 0 55 5
2020-02-20 16:03:10 GMT 39.874371 -75.237228 0 53 4
2020-02-20 16:03:07 GMT 39.874340 -75.237297 0 52 5
2020-02-20 16:03:04 GMT 39.874290 -75.237389 0 57 6
2020-02-20 16:03:01 GMT 39.874241 -75.237442 0 71 6
2020-02-20 16:02:58 GMT 39.874222 -75.237541 0 70 6
2020-02-20 16:02:55 GMT 39.874191 -75.237633 0 70 5
2020-02-20 16:02:52 GMT 39.874119 -75.237823 0 73 7
2020-02-20 16:02:49 GMT 39.874119 -75.237907 0 77 7
2020-02-20 16:02:43 GMT 39.874062 -75.238228 0 85 8
2020-02-20 16:02:40 GMT 39.874081 -75.238388 0 83 8
2020-02-20 16:02:37 GMT 39.874081 -75.238388 0 78 10
2020-02-20 16:02:34 GMT 39.874020 -75.238548 0 121 10
2020-02-20 16:02:31 GMT 39.874039 -75.238693 0 136 10
2020-02-20 16:02:28 GMT 39.874119 -75.238838 0 133 7
2020-02-20 16:02:25 GMT 39.874130 -75.238960 0 160 8
2020-02-20 16:02:22 GMT 39.874271 -75.239021 0 163 8
2020-02-20 16:02:19 GMT 39.874359 -75.239052 0 161 9
2020-02-20 16:02:16 GMT 39.874470 -75.239098 0 170 10

Making use of Plane Finder data

You are free to use the raw flight data, aircraft information and images provided in this report for your own purposes provided the data is correctly attributed to Plane Finder. We ask that you please credit Plane Finder and link to planefinder.net in close proximity to the content.

Optionally one of the following logos (no smaller then 150x24px) can be used and must link to planefinder.net

Embedding the Plane Finder map

You are welcome to embed the Plane Finder playback map on your website to offer visitors a more interactive experience. We suggest using the following HTML code:

<iframe src="//planefinder.net/data/report/AA4621-N129HQ-7700-squawk-2020-02-20/map" width="800" height="600" seamless="seamless"></iframe>

Where our data comes from

Plane Finder has a global network of data feeds and antenna radars that receive data broadcast directly from aircraft. The primary technologies used are ADS-B and MLAT. We also show feeds from the FAA and a FLARM glider feed.

Click here to find out more about the Plane Finder network.

How we collect our data